<?xml version='1.0' encoding='UTF-8'?><gpx version="1.1" creator="JPX - https://github.com/jenetics/jpx" xmlns="http://www.topografix.com/GPX/1/1"><trk><trkseg><trkpt lat="44.7858547" lon="9.059804"><ele>328.0</ele><time>2026-05-03T07:25:17.079Z</time></trkpt><trkpt lat="44.7859635" lon="9.0598768"><ele>328.0</ele><time>2026-05-03T07:25:19.079Z</time></trkpt><trkpt lat="44.7860455" lon="9.0598924"><ele>328.0</ele><time>2026-05-03T07:25:20.079Z</time></trkpt><trkpt lat="44.7861158" lon="9.0599225"><ele>328.0</ele><time>2026-05-03T07:25:21.079Z</time></trkpt><trkpt lat="44.7861827" lon="9.0599609"><ele>328.0</ele><time>2026-05-03T07:25:22.08Z</time></trkpt><trkpt lat="44.7862401" lon="9.0600054"><ele>328.0</ele><time>2026-05-03T07:25:23.079Z</time></trkpt><trkpt lat="44.7863623" lon="9.0600704"><ele>327.71428571428567</ele><time>2026-05-03T07:25:25.08Z</time></trkpt><trkpt lat="44.7864298" lon="9.0601062"><ele>327.42857142857144</ele><time>2026-05-03T07:25:26.078Z</time></trkpt><trkpt lat="44.7864957" lon="9.0601361"><ele>327.1428571428571</ele><time>2026-05-03T07:25:27.08Z</time></trkpt><trkpt lat="44.7865579" lon="9.0601704"><ele>326.85714285714283</ele><time>2026-05-03T07:25:28.08Z</time></trkpt><trkpt lat="44.7866186" lon="9.0602038"><ele>326.57142857142856</ele><time>2026-05-03T07:25:29.08Z</time></trkpt><trkpt lat="44.7866759" lon="9.0602526"><ele>326.2857142857143</ele><time>2026-05-03T07:25:30.078Z</time></trkpt><trkpt lat="44.7867405" lon="9.0603021"><ele>326.0</ele><time>2026-05-03T07:25:31.079Z</time></trkpt><trkpt lat="44.7868033" lon="9.0603379"><ele>326.0</ele><time>2026-05-03T07:25:32.08Z</time></trkpt><trkpt lat="44.786912" lon="9.0603892"><ele>326.0</ele><time>2026-05-03T07:25:34.079Z</time></trkpt><trkpt lat="44.7869886" lon="9.0604346"><ele>326.0</ele><time>2026-05-03T07:25:36.079Z</time></trkpt><trkpt lat="44.7870511" lon="9.0604677"><ele>326.0</ele><time>2026-05-03T07:25:38.079Z</time></trkpt><trkpt lat="44.7871094" lon="9.0605262"><ele>326.0</ele><time>2026-05-03T07:25:41.078Z</time></trkpt><trkpt lat="44.7871915" lon="9.0604857"><ele>326.0</ele><time>2026-05-03T07:25:50.079Z</time></trkpt><trkpt lat="44.7872651" lon="9.0603288"><ele>326.0</ele><time>2026-05-03T07:25:52.078Z</time></trkpt><trkpt lat="44.7873084" lon="9.0602366"><ele>326.0</ele><time>2026-05-03T07:25:53.078Z</time></trkpt><trkpt lat="44.7873532" lon="9.0601349"><ele>326.0</ele><time>2026-05-03T07:25:54.078Z</time></trkpt><trkpt lat="44.787389" lon="9.060018"><ele>326.0</ele><time>2026-05-03T07:25:55.078Z</time></trkpt><trkpt lat="44.7874335" lon="9.0599111"><ele>326.0</ele><time>2026-05-03T07:25:56.079Z</time></trkpt><trkpt lat="44.7874703" lon="9.0598021"><ele>326.0</ele><time>2026-05-03T07:25:57.08Z</time></trkpt><trkpt lat="44.7875061" lon="9.0596975"><ele>326.0</ele><time>2026-05-03T07:25:58.078Z</time></trkpt><trkpt lat="44.787546" lon="9.0595886"><ele>326.0</ele><time>2026-05-03T07:25:59.079Z</time></trkpt><trkpt lat="44.7875831" lon="9.0594875"><ele>326.0</ele><time>2026-05-03T07:26:00.08Z</time></trkpt><trkpt lat="44.7876174" lon="9.0593681"><ele>326.0</ele><time>2026-05-03T07:26:01.081Z</time></trkpt><trkpt lat="44.7876626" lon="9.0592487"><ele>326.0</ele><time>2026-05-03T07:26:02.078Z</time></trkpt><trkpt lat="44.7877017" lon="9.0591196"><ele>324.8</ele><time>2026-05-03T07:26:03.079Z</time></trkpt><trkpt lat="44.787749" lon="9.0589765"><ele>323.6</ele><time>2026-05-03T07:26:04.08Z</time></trkpt><trkpt lat="44.7877982" lon="9.0588291"><ele>322.4</ele><time>2026-05-03T07:26:05.078Z</time></trkpt><trkpt lat="44.7878419" lon="9.0586875"><ele>321.2</ele><time>2026-05-03T07:26:06.08Z</time></trkpt><trkpt lat="44.7878863" lon="9.0585593"><ele>320.0</ele><time>2026-05-03T07:26:07.08Z</time></trkpt><trkpt lat="44.7879253" lon="9.0584271"><ele>320.0</ele><time>2026-05-03T07:26:08.08Z</time></trkpt><trkpt lat="44.7879691" lon="9.0583052"><ele>320.0</ele><time>2026-05-03T07:26:09.079Z</time></trkpt><trkpt lat="44.7880138" lon="9.0581769"><ele>320.0</ele><time>2026-05-03T07:26:10.081Z</time></trkpt><trkpt lat="44.7880565" lon="9.0580427"><ele>320.0</ele><time>2026-05-03T07:26:11.079Z</time></trkpt><trkpt lat="44.7881078" lon="9.0579056"><ele>320.0</ele><time>2026-05-03T07:26:12.078Z</time></trkpt><trkpt lat="44.7881628" lon="9.0577687"><ele>320.2</ele><time>2026-05-03T07:26:13.079Z</time></trkpt><trkpt lat="44.78822" lon="9.0576381"><ele>320.4</ele><time>2026-05-03T07:26:14.081Z</time></trkpt><trkpt lat="44.7882805" lon="9.0575177"><ele>320.6</ele><time>2026-05-03T07:26:15.079Z</time></trkpt><trkpt lat="44.7883416" lon="9.0574009"><ele>320.8</ele><time>2026-05-03T07:26:16.079Z</time></trkpt><trkpt lat="44.788407" lon="9.0572915"><ele>321.0</ele><time>2026-05-03T07:26:17.08Z</time></trkpt><trkpt lat="44.788475" lon="9.0571754"><ele>320.25</ele><time>2026-05-03T07:26:18.079Z</time></trkpt><trkpt lat="44.7885484" lon="9.0570501"><ele>319.5</ele><time>2026-05-03T07:26:19.08Z</time></trkpt><trkpt lat="44.7886279" lon="9.0569169"><ele>318.75</ele><time>2026-05-03T07:26:20.078Z</time></trkpt><trkpt lat="44.7887074" lon="9.0567819"><ele>318.0</ele><time>2026-05-03T07:26:21.08Z</time></trkpt><trkpt lat="44.7887855" lon="9.0566582"><ele>318.25</ele><time>2026-05-03T07:26:22.079Z</time></trkpt><trkpt lat="44.7888671" lon="9.0565338"><ele>318.5</ele><time>2026-05-03T07:26:23.078Z</time></trkpt><trkpt lat="44.7889457" lon="9.0564093"><ele>318.75</ele><time>2026-05-03T07:26:24.078Z</time></trkpt><trkpt lat="44.7890237" lon="9.0562843"><ele>319.0</ele><time>2026-05-03T07:26:25.08Z</time></trkpt><trkpt lat="44.7890955" lon="9.0561514"><ele>319.0</ele><time>2026-05-03T07:26:26.078Z</time></trkpt><trkpt lat="44.7891699" lon="9.0560223"><ele>319.0</ele><time>2026-05-03T07:26:27.079Z</time></trkpt><trkpt lat="44.7892459" lon="9.0558945"><ele>319.0</ele><time>2026-05-03T07:26:28.079Z</time></trkpt><trkpt lat="44.7893203" lon="9.0557716"><ele>319.0</ele><time>2026-05-03T07:26:29.078Z</time></trkpt><trkpt lat="44.7893873" lon="9.0556619"><ele>319.0</ele><time>2026-05-03T07:26:30.079Z</time></trkpt><trkpt lat="44.7894524" lon="9.0555606"><ele>319.0</ele><time>2026-05-03T07:26:31.078Z</time></trkpt><trkpt lat="44.7895172" lon="9.0554555"><ele>319.0</ele><time>2026-05-03T07:26:32.081Z</time></trkpt><trkpt lat="44.7895736" lon="9.0553554"><ele>319.0</ele><time>2026-05-03T07:26:33.079Z</time></trkpt><trkpt lat="44.7896256" lon="9.0552601"><ele>319.0</ele><time>2026-05-03T07:26:34.079Z</time></trkpt><trkpt lat="44.7896786" lon="9.0551733"><ele>319.0</ele><time>2026-05-03T07:26:35.079Z</time></trkpt><trkpt lat="44.7897241" lon="9.0550873"><ele>319.0</ele><time>2026-05-03T07:26:36.079Z</time></trkpt><trkpt lat="44.7897539" lon="9.055"><ele>319.0</ele><time>2026-05-03T07:26:37.08Z</time></trkpt><trkpt lat="44.7897749" lon="9.0549102"><ele>319.0</ele><time>2026-05-03T07:26:38.079Z</time></trkpt><trkpt lat="44.789801" lon="9.0547767"><ele>319.0</ele><time>2026-05-03T07:26:40.079Z</time></trkpt><trkpt lat="44.7898218" lon="9.054683"><ele>319.0</ele><time>2026-05-03T07:26:47.08Z</time></trkpt><trkpt lat="44.7898974" lon="9.0546239"><ele>319.0</ele><time>2026-05-03T07:31:25.08Z</time></trkpt><trkpt lat="44.7899519" lon="9.0546706"><ele>319.0</ele><time>2026-05-03T07:31:27.079Z</time></trkpt><trkpt lat="44.7899193" lon="9.0547952"><ele>319.0</ele><time>2026-05-03T07:31:30.079Z</time></trkpt><trkpt lat="44.7898578" lon="9.0548739"><ele>319.0</ele><time>2026-05-03T07:31:31.079Z</time></trkpt><trkpt lat="44.7897645" lon="9.0550038"><ele>319.0</ele><time>2026-05-03T07:31:33.078Z</time></trkpt><trkpt lat="44.7897108" lon="9.0550804"><ele>319.0</ele><time>2026-05-03T07:31:34.079Z</time></trkpt><trkpt lat="44.7896532" lon="9.0551703"><ele>319.0</ele><time>2026-05-03T07:31:35.08Z</time></trkpt><trkpt lat="44.7895917" lon="9.0552642"><ele>319.0</ele><time>2026-05-03T07:31:36.08Z</time></trkpt><trkpt lat="44.7895279" lon="9.0553713"><ele>319.0</ele><time>2026-05-03T07:31:37.078Z</time></trkpt><trkpt lat="44.7894568" lon="9.0554906"><ele>319.0</ele><time>2026-05-03T07:31:38.079Z</time></trkpt><trkpt lat="44.7893831" lon="9.0556071"><ele>319.0</ele><time>2026-05-03T07:31:39.079Z</time></trkpt><trkpt lat="44.7893174" lon="9.0557193"><ele>319.0</ele><time>2026-05-03T07:31:40.078Z</time></trkpt><trkpt lat="44.789255" lon="9.0558291"><ele>319.0</ele><time>2026-05-03T07:31:41.079Z</time></trkpt><trkpt lat="44.7891855" lon="9.0559431"><ele>319.0</ele><time>2026-05-03T07:31:42.079Z</time></trkpt><trkpt lat="44.7891151" lon="9.0560648"><ele>319.0</ele><time>2026-05-03T07:31:43.078Z</time></trkpt><trkpt lat="44.7890379" lon="9.0561908"><ele>319.0</ele><time>2026-05-03T07:31:44.079Z</time></trkpt><trkpt lat="44.788962" lon="9.0563098"><ele>319.0</ele><time>2026-05-03T07:31:45.08Z</time></trkpt><trkpt lat="44.7888949" lon="9.0564203"><ele>319.0</ele><time>2026-05-03T07:31:46.079Z</time></trkpt><trkpt lat="44.7888322" lon="9.056523"><ele>319.0</ele><time>2026-05-03T07:31:47.078Z</time></trkpt><trkpt lat="44.7887735" lon="9.0566187"><ele>319.0</ele><time>2026-05-03T07:31:48.08Z</time></trkpt><trkpt lat="44.788707" lon="9.0567226"><ele>319.0</ele><time>2026-05-03T07:31:49.079Z</time></trkpt><trkpt lat="44.7886459" lon="9.0568294"><ele>318.8</ele><time>2026-05-03T07:31:50.078Z</time></trkpt><trkpt lat="44.7885865" lon="9.0569268"><ele>318.59999999999997</ele><time>2026-05-03T07:31:51.079Z</time></trkpt><trkpt lat="44.7885219" lon="9.0570377"><ele>318.4</ele><time>2026-05-03T07:31:52.079Z</time></trkpt><trkpt lat="44.7884497" lon="9.0571605"><ele>318.2</ele><time>2026-05-03T07:31:53.08Z</time></trkpt><trkpt lat="44.7883634" lon="9.0572988"><ele>318.0</ele><time>2026-05-03T07:31:54.079Z</time></trkpt><trkpt lat="44.7882839" lon="9.057435"><ele>318.6</ele><time>2026-05-03T07:31:55.078Z</time></trkpt><trkpt lat="44.7882163" lon="9.0575655"><ele>319.20000000000005</ele><time>2026-05-03T07:31:56.078Z</time></trkpt><trkpt lat="44.7881589" lon="9.057693"><ele>319.8</ele><time>2026-05-03T07:31:57.079Z</time></trkpt><trkpt lat="44.7881073" lon="9.0578213"><ele>320.40000000000003</ele><time>2026-05-03T07:31:58.079Z</time></trkpt><trkpt lat="44.7880572" lon="9.0579574"><ele>321.0</ele><time>2026-05-03T07:31:59.079Z</time></trkpt><trkpt lat="44.788009" lon="9.0580939"><ele>321.0</ele><time>2026-05-03T07:32:00.08Z</time></trkpt><trkpt lat="44.7879603" lon="9.0582331"><ele>321.0</ele><time>2026-05-03T07:32:01.079Z</time></trkpt><trkpt lat="44.7879104" lon="9.058378"><ele>321.0</ele><time>2026-05-03T07:32:02.079Z</time></trkpt><trkpt lat="44.7878634" lon="9.0585283"><ele>321.0</ele><time>2026-05-03T07:32:03.079Z</time></trkpt><trkpt lat="44.7878191" lon="9.0586669"><ele>321.0</ele><time>2026-05-03T07:32:04.079Z</time></trkpt><trkpt lat="44.7877738" lon="9.0587986"><ele>320.8333333333333</ele><time>2026-05-03T07:32:05.08Z</time></trkpt><trkpt lat="44.7877314" lon="9.0589281"><ele>320.6666666666667</ele><time>2026-05-03T07:32:06.079Z</time></trkpt><trkpt lat="44.7876973" lon="9.0590433"><ele>320.5</ele><time>2026-05-03T07:32:07.078Z</time></trkpt><trkpt lat="44.7876705" lon="9.0591321"><ele>320.33333333333337</ele><time>2026-05-03T07:32:08.08Z</time></trkpt><trkpt lat="44.7876444" lon="9.0592199"><ele>320.1666666666667</ele><time>2026-05-03T07:32:09.08Z</time></trkpt><trkpt lat="44.7875955" lon="9.059355"><ele>320.0</ele><time>2026-05-03T07:32:11.079Z</time></trkpt><trkpt lat="44.7875371" lon="9.0594107"><ele>321.2</ele><time>2026-05-03T07:32:13.079Z</time></trkpt><trkpt lat="44.7874728" lon="9.0593827"><ele>322.4</ele><time>2026-05-03T07:32:15.079Z</time></trkpt><trkpt lat="44.7874015" lon="9.0593377"><ele>323.6</ele><time>2026-05-03T07:32:33.078Z</time></trkpt><trkpt lat="44.7872778" lon="9.0592563"><ele>324.8</ele><time>2026-05-03T07:32:35.078Z</time></trkpt><trkpt lat="44.7872033" lon="9.0592067"><ele>326.0</ele><time>2026-05-03T07:32:36.079Z</time></trkpt><trkpt lat="44.7871119" lon="9.0591454"><ele>326.0</ele><time>2026-05-03T07:32:37.079Z</time></trkpt><trkpt lat="44.7870187" lon="9.0590776"><ele>326.0</ele><time>2026-05-03T07:32:38.079Z</time></trkpt><trkpt lat="44.7869248" lon="9.0590133"><ele>326.0</ele><time>2026-05-03T07:32:39.079Z</time></trkpt><trkpt lat="44.786831" lon="9.0589421"><ele>326.0</ele><time>2026-05-03T07:32:40.078Z</time></trkpt><trkpt lat="44.7867434" lon="9.0588739"><ele>326.0</ele><time>2026-05-03T07:32:41.08Z</time></trkpt><trkpt lat="44.7866632" lon="9.0588153"><ele>326.0</ele><time>2026-05-03T07:32:42.08Z</time></trkpt><trkpt lat="44.7865927" lon="9.058769"><ele>326.0</ele><time>2026-05-03T07:32:43.078Z</time></trkpt><trkpt lat="44.7865273" lon="9.0587222"><ele>326.0</ele><time>2026-05-03T07:32:44.078Z</time></trkpt><trkpt lat="44.7864573" lon="9.0586807"><ele>326.0</ele><time>2026-05-03T07:32:45.078Z</time></trkpt><trkpt lat="44.7863794" lon="9.0586569"><ele>326.0</ele><time>2026-05-03T07:32:46.08Z</time></trkpt><trkpt lat="44.7862936" lon="9.0586323"><ele>326.0</ele><time>2026-05-03T07:32:47.079Z</time></trkpt><trkpt lat="44.7861948" lon="9.0585848"><ele>326.0</ele><time>2026-05-03T07:32:48.079Z</time></trkpt><trkpt lat="44.7861" lon="9.058523"><ele>326.0</ele><time>2026-05-03T07:32:49.079Z</time></trkpt><trkpt lat="44.7860106" lon="9.0584578"><ele>326.0</ele><time>2026-05-03T07:32:50.078Z</time></trkpt><trkpt lat="44.7859306" lon="9.0584003"><ele>326.0</ele><time>2026-05-03T07:32:51.078Z</time></trkpt><trkpt lat="44.7858559" lon="9.0583407"><ele>326.0</ele><time>2026-05-03T07:32:52.079Z</time></trkpt><trkpt lat="44.7857911" lon="9.058294"><ele>328.8</ele><time>2026-05-03T07:32:53.078Z</time></trkpt><trkpt lat="44.7857303" lon="9.0582635"><ele>331.6</ele><time>2026-05-03T07:32:54.078Z</time></trkpt><trkpt lat="44.7856238" lon="9.0582124"><ele>334.4</ele><time>2026-05-03T07:32:56.078Z</time></trkpt><trkpt lat="44.7855493" lon="9.0580932"><ele>337.2</ele><time>2026-05-03T07:32:58.079Z</time></trkpt><trkpt lat="44.7855323" lon="9.0579862"><ele>340.0</ele><time>2026-05-03T07:32:59.078Z</time></trkpt><trkpt lat="44.7855195" lon="9.0578708"><ele>340.0</ele><time>2026-05-03T07:33:00.079Z</time></trkpt><trkpt lat="44.7855144" lon="9.0577503"><ele>340.0</ele><time>2026-05-03T07:33:01.079Z</time></trkpt><trkpt lat="44.7855071" lon="9.0576343"><ele>340.0</ele><time>2026-05-03T07:33:02.078Z</time></trkpt><trkpt lat="44.785484" lon="9.0575391"><ele>340.0</ele><time>2026-05-03T07:33:03.081Z</time></trkpt><trkpt lat="44.7854424" lon="9.0574356"><ele>340.0</ele><time>2026-05-03T07:33:04.079Z</time></trkpt><trkpt lat="44.7853845" lon="9.0573477"><ele>340.0</ele><time>2026-05-03T07:33:05.08Z</time></trkpt><trkpt lat="44.7853092" lon="9.0572848"><ele>343.2</ele><time>2026-05-03T07:33:06.078Z</time></trkpt><trkpt lat="44.7852221" lon="9.0572307"><ele>346.4</ele><time>2026-05-03T07:33:07.079Z</time></trkpt><trkpt lat="44.7851343" lon="9.0571725"><ele>349.6</ele><time>2026-05-03T07:33:08.078Z</time></trkpt><trkpt lat="44.7850439" lon="9.0571136"><ele>352.8</ele><time>2026-05-03T07:33:09.079Z</time></trkpt><trkpt lat="44.7849692" lon="9.0570468"><ele>356.0</ele><time>2026-05-03T07:33:10.078Z</time></trkpt><trkpt lat="44.7849061" lon="9.0569866"><ele>356.33333333333337</ele><time>2026-05-03T07:33:11.079Z</time></trkpt><trkpt lat="44.7848391" lon="9.056937"><ele>356.6666666666667</ele><time>2026-05-03T07:33:12.078Z</time></trkpt><trkpt lat="44.7847775" lon="9.0568607"><ele>357.0</ele><time>2026-05-03T07:33:13.079Z</time></trkpt><trkpt lat="44.7847106" lon="9.0567866"><ele>357.3333333333333</ele><time>2026-05-03T07:33:14.08Z</time></trkpt><trkpt lat="44.7846591" lon="9.0566806"><ele>357.66666666666663</ele><time>2026-05-03T07:33:15.078Z</time></trkpt><trkpt lat="44.784608" lon="9.0565698"><ele>358.0</ele><time>2026-05-03T07:33:16.079Z</time></trkpt><trkpt lat="44.7845586" lon="9.0564437"><ele>358.79999999999995</ele><time>2026-05-03T07:33:17.079Z</time></trkpt><trkpt lat="44.7845163" lon="9.0563094"><ele>359.6</ele><time>2026-05-03T07:33:18.079Z</time></trkpt><trkpt lat="44.7844779" lon="9.0561699"><ele>360.4</ele><time>2026-05-03T07:33:19.08Z</time></trkpt><trkpt lat="44.784426" lon="9.0560489"><ele>361.20000000000005</ele><time>2026-05-03T07:33:20.078Z</time></trkpt><trkpt lat="44.7843651" lon="9.0559367"><ele>362.0</ele><time>2026-05-03T07:33:21.08Z</time></trkpt><trkpt lat="44.7842886" lon="9.0558358"><ele>364.33333333333337</ele><time>2026-05-03T07:33:22.079Z</time></trkpt><trkpt lat="44.7842114" lon="9.0557573"><ele>366.6666666666667</ele><time>2026-05-03T07:33:23.079Z</time></trkpt><trkpt lat="44.7841461" lon="9.0556995"><ele>369.0</ele><time>2026-05-03T07:33:24.078Z</time></trkpt><trkpt lat="44.7840446" lon="9.0556371"><ele>371.3333333333333</ele><time>2026-05-03T07:33:26.078Z</time></trkpt><trkpt lat="44.7839907" lon="9.0555671"><ele>373.66666666666663</ele><time>2026-05-03T07:33:28.079Z</time></trkpt><trkpt lat="44.7840403" lon="9.0554787"><ele>376.0</ele><time>2026-05-03T07:33:30.079Z</time></trkpt><trkpt lat="44.7841888" lon="9.055462"><ele>376.0</ele><time>2026-05-03T07:33:32.079Z</time></trkpt><trkpt lat="44.7842882" lon="9.0554783"><ele>376.0</ele><time>2026-05-03T07:33:33.078Z</time></trkpt><trkpt lat="44.7844039" lon="9.0554935"><ele>376.0</ele><time>2026-05-03T07:33:34.078Z</time></trkpt><trkpt lat="44.7845047" lon="9.0554874"><ele>376.0</ele><time>2026-05-03T07:33:35.079Z</time></trkpt><trkpt lat="44.7846061" lon="9.0554714"><ele>376.0</ele><time>2026-05-03T07:33:36.081Z</time></trkpt><trkpt lat="44.7847173" lon="9.0554248"><ele>376.5</ele><time>2026-05-03T07:33:37.078Z</time></trkpt><trkpt lat="44.784803" lon="9.0553847"><ele>377.0</ele><time>2026-05-03T07:33:38.078Z</time></trkpt><trkpt lat="44.784866" lon="9.0553594"><ele>377.5</ele><time>2026-05-03T07:33:39.079Z</time></trkpt><trkpt lat="44.7849314" lon="9.0553377"><ele>378.0</ele><time>2026-05-03T07:33:40.079Z</time></trkpt><trkpt lat="44.7850428" lon="9.0554132"><ele>378.5</ele><time>2026-05-03T07:33:42.08Z</time></trkpt><trkpt lat="44.7851005" lon="9.0554553"><ele>379.0</ele><time>2026-05-03T07:33:43.079Z</time></trkpt><trkpt lat="44.7852005" lon="9.0555547"><ele>379.0</ele><time>2026-05-03T07:33:45.08Z</time></trkpt><trkpt lat="44.7852897" lon="9.0556344"><ele>379.0</ele><time>2026-05-03T07:33:47.079Z</time></trkpt><trkpt lat="44.7853672" lon="9.0556784"><ele>379.0</ele><time>2026-05-03T07:33:49.08Z</time></trkpt><trkpt lat="44.7854754" lon="9.0556503"><ele>379.0</ele><time>2026-05-03T07:33:51.077Z</time></trkpt><trkpt lat="44.785582" lon="9.0556126"><ele>379.0</ele><time>2026-05-03T07:33:53.078Z</time></trkpt><trkpt lat="44.785685" lon="9.0555541"><ele>379.0</ele><time>2026-05-03T07:33:55.079Z</time></trkpt><trkpt lat="44.7857763" lon="9.0555217"><ele>379.0</ele><time>2026-05-03T07:33:57.078Z</time></trkpt><trkpt lat="44.7858162" lon="9.0554166"><ele>379.0</ele><time>2026-05-03T07:33:59.08Z</time></trkpt><trkpt lat="44.7858016" lon="9.0552472"><ele>379.0</ele><time>2026-05-03T07:34:01.079Z</time></trkpt><trkpt lat="44.7857953" lon="9.055125"><ele>379.0</ele><time>2026-05-03T07:34:02.078Z</time></trkpt><trkpt lat="44.78579" lon="9.0550098"><ele>382.16666666666663</ele><time>2026-05-03T07:34:03.078Z</time></trkpt><trkpt lat="44.7857879" lon="9.0548758"><ele>385.3333333333333</ele><time>2026-05-03T07:34:04.079Z</time></trkpt><trkpt lat="44.7857917" lon="9.0547694"><ele>388.5</ele><time>2026-05-03T07:34:05.079Z</time></trkpt><trkpt lat="44.7858081" lon="9.0546211"><ele>391.66666666666663</ele><time>2026-05-03T07:34:07.08Z</time></trkpt><trkpt lat="44.7858537" lon="9.0545255"><ele>394.8333333333333</ele><time>2026-05-03T07:34:09.079Z</time></trkpt><trkpt lat="44.7859066" lon="9.0544629"><ele>398.0</ele><time>2026-05-03T07:35:03.078Z</time></trkpt><trkpt lat="44.7859937" lon="9.0544074"><ele>395.66666666666663</ele><time>2026-05-03T07:35:06.079Z</time></trkpt><trkpt lat="44.7860867" lon="9.054374"><ele>393.3333333333333</ele><time>2026-05-03T07:35:08.079Z</time></trkpt><trkpt lat="44.7861893" lon="9.0543462"><ele>391.0</ele><time>2026-05-03T07:35:10.08Z</time></trkpt><trkpt lat="44.7862736" lon="9.0542816"><ele>388.66666666666663</ele><time>2026-05-03T07:35:12.078Z</time></trkpt><trkpt lat="44.786319" lon="9.0542114"><ele>386.3333333333333</ele><time>2026-05-03T07:35:13.078Z</time></trkpt><trkpt lat="44.7863601" lon="9.0541379"><ele>384.0</ele><time>2026-05-03T07:35:14.079Z</time></trkpt><trkpt lat="44.7864506" lon="9.0540399"><ele>387.6</ele><time>2026-05-03T07:35:16.079Z</time></trkpt><trkpt lat="44.7865568" lon="9.0540446"><ele>391.2</ele><time>2026-05-03T07:35:18.079Z</time></trkpt><trkpt lat="44.7866778" lon="9.0540084"><ele>394.8</ele><time>2026-05-03T07:35:20.079Z</time></trkpt><trkpt lat="44.7867753" lon="9.0539908"><ele>398.40000000000003</ele><time>2026-05-03T07:35:22.079Z</time></trkpt><trkpt lat="44.7868603" lon="9.0539302"><ele>402.0</ele><time>2026-05-03T07:35:24.078Z</time></trkpt><trkpt lat="44.7869331" lon="9.0538004"><ele>402.0</ele><time>2026-05-03T07:35:26.078Z</time></trkpt><trkpt lat="44.7870146" lon="9.0537072"><ele>402.0</ele><time>2026-05-03T07:35:28.079Z</time></trkpt><trkpt lat="44.7870619" lon="9.0536416"><ele>402.0</ele><time>2026-05-03T07:35:29.079Z</time></trkpt><trkpt lat="44.7871369" lon="9.053579"><ele>402.0</ele><time>2026-05-03T07:35:30.079Z</time></trkpt><trkpt lat="44.787191" lon="9.0535029"><ele>402.0</ele><time>2026-05-03T07:35:31.079Z</time></trkpt><trkpt lat="44.7872473" lon="9.0534272"><ele>402.0</ele><time>2026-05-03T07:35:32.079Z</time></trkpt><trkpt lat="44.7873068" lon="9.0533378"><ele>402.0</ele><time>2026-05-03T07:35:33.079Z</time></trkpt><trkpt lat="44.7873523" lon="9.0532745"><ele>402.0</ele><time>2026-05-03T07:35:34.079Z</time></trkpt><trkpt lat="44.7874154" lon="9.0532114"><ele>402.0</ele><time>2026-05-03T07:35:36.079Z</time></trkpt><trkpt lat="44.7875436" lon="9.0532482"><ele>402.0</ele><time>2026-05-03T07:35:38.078Z</time></trkpt><trkpt lat="44.7876149" lon="9.0532984"><ele>402.0</ele><time>2026-05-03T07:35:39.079Z</time></trkpt><trkpt lat="44.7877247" lon="9.0533292"><ele>403.8333333333333</ele><time>2026-05-03T07:35:41.078Z</time></trkpt><trkpt lat="44.7877876" lon="9.0533217"><ele>405.66666666666663</ele><time>2026-05-03T07:35:42.079Z</time></trkpt><trkpt lat="44.7878642" lon="9.053262"><ele>407.5</ele><time>2026-05-03T07:35:43.078Z</time></trkpt><trkpt lat="44.7879257" lon="9.0532002"><ele>409.3333333333333</ele><time>2026-05-03T07:35:44.078Z</time></trkpt><trkpt lat="44.787978" lon="9.0531434"><ele>411.16666666666663</ele><time>2026-05-03T07:35:45.078Z</time></trkpt><trkpt lat="44.7880605" lon="9.0530236"><ele>413.0</ele><time>2026-05-03T07:35:47.08Z</time></trkpt><trkpt lat="44.7880944" lon="9.0529393"><ele>413.0</ele><time>2026-05-03T07:35:48.08Z</time></trkpt><trkpt lat="44.7881093" lon="9.052731"><ele>413.0</ele><time>2026-05-03T07:35:50.08Z</time></trkpt><trkpt lat="44.7881423" lon="9.0526335"><ele>413.0</ele><time>2026-05-03T07:35:51.079Z</time></trkpt><trkpt lat="44.7881725" lon="9.0525097"><ele>413.0</ele><time>2026-05-03T07:35:52.079Z</time></trkpt><trkpt lat="44.7882069" lon="9.052396"><ele>413.0</ele><time>2026-05-03T07:35:53.079Z</time></trkpt><trkpt lat="44.7882358" lon="9.0522838"><ele>417.4</ele><time>2026-05-03T07:35:54.079Z</time></trkpt><trkpt lat="44.7882688" lon="9.0521845"><ele>421.79999999999995</ele><time>2026-05-03T07:35:55.079Z</time></trkpt><trkpt lat="44.7882736" lon="9.0519867"><ele>426.2</ele><time>2026-05-03T07:35:57.079Z</time></trkpt><trkpt lat="44.7883218" lon="9.0518613"><ele>430.6</ele><time>2026-05-03T07:35:58.079Z</time></trkpt><trkpt lat="44.7883529" lon="9.0517587"><ele>435.0</ele><time>2026-05-03T07:35:59.078Z</time></trkpt><trkpt lat="44.7884005" lon="9.0516724"><ele>433.6666666666667</ele><time>2026-05-03T07:36:00.078Z</time></trkpt><trkpt lat="44.7884355" lon="9.0515869"><ele>432.33333333333337</ele><time>2026-05-03T07:36:01.079Z</time></trkpt><trkpt lat="44.7884678" lon="9.0514808"><ele>431.0</ele><time>2026-05-03T07:36:02.079Z</time></trkpt><trkpt lat="44.7884832" lon="9.0513422"><ele>429.6666666666667</ele><time>2026-05-03T07:36:03.079Z</time></trkpt><trkpt lat="44.7885104" lon="9.051219"><ele>428.33333333333337</ele><time>2026-05-03T07:36:04.078Z</time></trkpt><trkpt lat="44.7885369" lon="9.0510888"><ele>427.0</ele><time>2026-05-03T07:36:05.079Z</time></trkpt><trkpt lat="44.788574" lon="9.0509799"><ele>427.0</ele><time>2026-05-03T07:36:06.079Z</time></trkpt><trkpt lat="44.7886438" lon="9.0508333"><ele>427.00000000000006</ele><time>2026-05-03T07:36:08.08Z</time></trkpt><trkpt lat="44.7887012" lon="9.0507835"><ele>427.00000000000006</ele><time>2026-05-03T07:36:09.079Z</time></trkpt><trkpt lat="44.7887256" lon="9.0506971"><ele>427.0</ele><time>2026-05-03T07:36:10.08Z</time></trkpt><trkpt lat="44.7887253" lon="9.0505372"><ele>427.0</ele><time>2026-05-03T07:36:12.079Z</time></trkpt><trkpt lat="44.7888264" lon="9.0505118"><ele>431.33333333333337</ele><time>2026-05-03T07:36:14.078Z</time></trkpt><trkpt lat="44.7889318" lon="9.0504898"><ele>435.6666666666667</ele><time>2026-05-03T07:36:16.079Z</time></trkpt><trkpt lat="44.7890234" lon="9.0504149"><ele>440.0</ele><time>2026-05-03T07:36:18.079Z</time></trkpt><trkpt lat="44.7890561" lon="9.0503139"><ele>444.33333333333337</ele><time>2026-05-03T07:36:19.078Z</time></trkpt><trkpt lat="44.7890938" lon="9.050224"><ele>448.6666666666667</ele><time>2026-05-03T07:36:20.079Z</time></trkpt><trkpt lat="44.7891375" lon="9.0501518"><ele>453.0</ele><time>2026-05-03T07:36:21.078Z</time></trkpt><trkpt lat="44.7892389" lon="9.0500342"><ele>451.0</ele><time>2026-05-03T07:36:23.08Z</time></trkpt><trkpt lat="44.7893492" lon="9.0499623"><ele>448.99999999999994</ele><time>2026-05-03T07:36:25.079Z</time></trkpt><trkpt lat="44.7894286" lon="9.0499423"><ele>446.99999999999994</ele><time>2026-05-03T07:36:26.079Z</time></trkpt><trkpt lat="44.7895044" lon="9.0499385"><ele>445.0</ele><time>2026-05-03T07:36:27.078Z</time></trkpt><trkpt lat="44.7895834" lon="9.0499079"><ele>443.0</ele><time>2026-05-03T07:36:29.079Z</time></trkpt><trkpt lat="44.7896635" lon="9.0498164"><ele>446.99999999999994</ele><time>2026-05-03T07:36:31.079Z</time></trkpt><trkpt lat="44.7897674" lon="9.049731"><ele>451.0</ele><time>2026-05-03T07:36:33.079Z</time></trkpt><trkpt lat="44.7898236" lon="9.0496854"><ele>455.0</ele><time>2026-05-03T07:36:34.079Z</time></trkpt><trkpt lat="44.789897" lon="9.049584"><ele>459.0</ele><time>2026-05-03T07:36:36.078Z</time></trkpt><trkpt lat="44.7899432" lon="9.049501"><ele>462.99999999999994</ele><time>2026-05-03T07:36:37.078Z</time></trkpt><trkpt lat="44.7899933" lon="9.0494143"><ele>467.0</ele><time>2026-05-03T07:36:38.079Z</time></trkpt><trkpt lat="44.7900706" lon="9.0492738"><ele>467.0</ele><time>2026-05-03T07:36:40.08Z</time></trkpt><trkpt lat="44.7901547" lon="9.0491802"><ele>467.00000000000006</ele><time>2026-05-03T07:36:42.081Z</time></trkpt><trkpt lat="44.7901844" lon="9.0490973"><ele>467.00000000000006</ele><time>2026-05-03T07:36:43.079Z</time></trkpt><trkpt lat="44.7902153" lon="9.0489575"><ele>467.0</ele><time>2026-05-03T07:36:45.08Z</time></trkpt><trkpt lat="44.790191" lon="9.0487772"><ele>467.0</ele><time>2026-05-03T07:36:47.079Z</time></trkpt><trkpt lat="44.7901959" lon="9.0486246"><ele>470.40000000000003</ele><time>2026-05-03T07:36:49.078Z</time></trkpt><trkpt lat="44.7902512" lon="9.0485196"><ele>473.80000000000007</ele><time>2026-05-03T07:36:51.079Z</time></trkpt><trkpt lat="44.7903207" lon="9.0484095"><ele>477.2</ele><time>2026-05-03T07:36:53.079Z</time></trkpt><trkpt lat="44.790371" lon="9.0483187"><ele>480.6</ele><time>2026-05-03T07:36:54.078Z</time></trkpt><trkpt lat="44.7904662" lon="9.0482023"><ele>484.0</ele><time>2026-05-03T07:36:56.079Z</time></trkpt><trkpt lat="44.7905234" lon="9.0481616"><ele>486.0</ele><time>2026-05-03T07:36:57.078Z</time></trkpt><trkpt lat="44.7906169" lon="9.0481521"><ele>488.0</ele><time>2026-05-03T07:36:59.079Z</time></trkpt><trkpt lat="44.7907064" lon="9.0481824"><ele>490.0</ele><time>2026-05-03T07:37:01.079Z</time></trkpt><trkpt lat="44.7907503" lon="9.0480927"><ele>492.0</ele><time>2026-05-03T07:37:03.078Z</time></trkpt><trkpt lat="44.7907162" lon="9.0479021"><ele>494.0</ele><time>2026-05-03T07:37:05.08Z</time></trkpt><trkpt lat="44.7906843" lon="9.047736"><ele>493.99999999999994</ele><time>2026-05-03T07:37:07.078Z</time></trkpt><trkpt lat="44.7906696" lon="9.0475706"><ele>494.0</ele><time>2026-05-03T07:37:09.08Z</time></trkpt><trkpt lat="44.7906705" lon="9.0474805"><ele>494.0</ele><time>2026-05-03T07:37:10.078Z</time></trkpt><trkpt lat="44.7906532" lon="9.047381"><ele>494.0</ele><time>2026-05-03T07:37:12.079Z</time></trkpt><trkpt lat="44.7906064" lon="9.0472809"><ele>493.99999999999994</ele><time>2026-05-03T07:37:14.078Z</time></trkpt><trkpt lat="44.7905245" lon="9.0472086"><ele>494.0</ele><time>2026-05-03T07:37:16.078Z</time></trkpt><trkpt lat="44.7904455" lon="9.0471228"><ele>494.4</ele><time>2026-05-03T07:37:18.079Z</time></trkpt><trkpt lat="44.7903985" lon="9.0469889"><ele>494.79999999999995</ele><time>2026-05-03T07:37:20.079Z</time></trkpt><trkpt lat="44.790336" lon="9.0468702"><ele>495.20000000000005</ele><time>2026-05-03T07:37:22.079Z</time></trkpt><trkpt lat="44.7902916" lon="9.0467981"><ele>495.6</ele><time>2026-05-03T07:37:23.079Z</time></trkpt><trkpt lat="44.7902248" lon="9.0467271"><ele>496.0</ele><time>2026-05-03T07:37:24.078Z</time></trkpt><trkpt lat="44.7901578" lon="9.0466347"><ele>494.00000000000006</ele><time>2026-05-03T07:37:25.079Z</time></trkpt><trkpt lat="44.790103" lon="9.046556"><ele>492.0</ele><time>2026-05-03T07:37:26.078Z</time></trkpt><trkpt lat="44.7900465" lon="9.0464897"><ele>490.0</ele><time>2026-05-03T07:37:27.079Z</time></trkpt><trkpt lat="44.7899935" lon="9.0464343"><ele>488.0</ele><time>2026-05-03T07:37:28.079Z</time></trkpt><trkpt lat="44.7899296" lon="9.0463894"><ele>486.00000000000006</ele><time>2026-05-03T07:37:29.079Z</time></trkpt><trkpt lat="44.7898541" lon="9.0463153"><ele>484.0</ele><time>2026-05-03T07:37:30.078Z</time></trkpt><trkpt lat="44.7897789" lon="9.0462554"><ele>484.00000000000006</ele><time>2026-05-03T07:37:31.079Z</time></trkpt><trkpt lat="44.7897091" lon="9.0461907"><ele>484.0</ele><time>2026-05-03T07:37:32.079Z</time></trkpt><trkpt lat="44.7896387" lon="9.0461381"><ele>484.0</ele><time>2026-05-03T07:37:33.078Z</time></trkpt><trkpt lat="44.7896109" lon="9.0460136"><ele>484.0</ele><time>2026-05-03T07:37:35.079Z</time></trkpt><trkpt lat="44.7895793" lon="9.0458906"><ele>484.00000000000006</ele><time>2026-05-03T07:37:37.078Z</time></trkpt><trkpt lat="44.7895496" lon="9.0457964"><ele>484.0</ele><time>2026-05-03T07:37:38.078Z</time></trkpt><trkpt lat="44.7894823" lon="9.0457398"><ele>485.79999999999995</ele><time>2026-05-03T07:37:39.079Z</time></trkpt><trkpt lat="44.7893914" lon="9.0456754"><ele>487.59999999999997</ele><time>2026-05-03T07:37:41.079Z</time></trkpt><trkpt lat="44.7892968" lon="9.0456644"><ele>489.4</ele><time>2026-05-03T07:37:43.078Z</time></trkpt><trkpt lat="44.7892197" lon="9.0456667"><ele>491.2</ele><time>2026-05-03T07:37:45.079Z</time></trkpt><trkpt lat="44.7891226" lon="9.0456206"><ele>493.0</ele><time>2026-05-03T07:37:47.078Z</time></trkpt><trkpt lat="44.7890259" lon="9.0455529"><ele>493.00000000000006</ele><time>2026-05-03T07:37:49.078Z</time></trkpt><trkpt lat="44.7889613" lon="9.0455353"><ele>493.0</ele><time>2026-05-03T07:37:50.078Z</time></trkpt><trkpt lat="44.7888892" lon="9.0455258"><ele>493.0</ele><time>2026-05-03T07:37:51.079Z</time></trkpt><trkpt lat="44.7888083" lon="9.0455198"><ele>493.0</ele><time>2026-05-03T07:37:52.079Z</time></trkpt><trkpt lat="44.7887292" lon="9.0455087"><ele>493.00000000000006</ele><time>2026-05-03T07:37:53.079Z</time></trkpt><trkpt lat="44.7886505" lon="9.0454996"><ele>493.0</ele><time>2026-05-03T07:37:54.079Z</time></trkpt><trkpt lat="44.7885617" lon="9.0454723"><ele>499.2</ele><time>2026-05-03T07:37:55.079Z</time></trkpt><trkpt lat="44.7884758" lon="9.0454468"><ele>505.4</ele><time>2026-05-03T07:37:56.079Z</time></trkpt><trkpt lat="44.7884122" lon="9.045416"><ele>511.59999999999997</ele><time>2026-05-03T07:37:57.078Z</time></trkpt><trkpt lat="44.7883122" lon="9.0453057"><ele>517.8</ele><time>2026-05-03T07:37:59.079Z</time></trkpt><trkpt lat="44.7882018" lon="9.0451861"><ele>524.0</ele><time>2026-05-03T07:38:01.079Z</time></trkpt><trkpt lat="44.7881423" lon="9.045129"><ele>524.0</ele><time>2026-05-03T07:38:02.079Z</time></trkpt><trkpt lat="44.7880811" lon="9.0450771"><ele>524.0</ele><time>2026-05-03T07:38:03.078Z</time></trkpt><trkpt lat="44.7880087" lon="9.0449875"><ele>524.0</ele><time>2026-05-03T07:38:05.078Z</time></trkpt><trkpt lat="44.7879454" lon="9.0449564"><ele>524.0</ele><time>2026-05-03T07:38:07.079Z</time></trkpt><trkpt lat="44.7879132" lon="9.0450628"><ele>524.0</ele><time>2026-05-03T07:38:09.078Z</time></trkpt><trkpt lat="44.7878977" lon="9.0451887"><ele>524.0</ele><time>2026-05-03T07:38:11.078Z</time></trkpt><trkpt lat="44.7878321" lon="9.0452976"><ele>524.0</ele><time>2026-05-03T07:38:13.078Z</time></trkpt><trkpt lat="44.7877597" lon="9.0453084"><ele>524.0</ele><time>2026-05-03T07:38:14.079Z</time></trkpt><trkpt lat="44.7876467" lon="9.045344"><ele>524.0</ele><time>2026-05-03T07:38:16.078Z</time></trkpt><trkpt lat="44.7875965" lon="9.045438"><ele>524.0</ele><time>2026-05-03T07:38:19.079Z</time></trkpt><trkpt lat="44.7876073" lon="9.0455259"><ele>524.0</ele><time>2026-05-03T07:42:35.08Z</time></trkpt><trkpt lat="44.7875533" lon="9.045474"><ele>524.0</ele><time>2026-05-03T07:42:51.079Z</time></trkpt><trkpt lat="44.7874858" lon="9.0453746"><ele>528.2</ele><time>2026-05-03T07:42:54.08Z</time></trkpt><trkpt lat="44.7874185" lon="9.0452711"><ele>532.4</ele><time>2026-05-03T07:42:56.078Z</time></trkpt><trkpt lat="44.7873695" lon="9.045143"><ele>536.6</ele><time>2026-05-03T07:42:58.077Z</time></trkpt><trkpt lat="44.7873506" lon="9.0450094"><ele>540.8</ele><time>2026-05-03T07:43:00.079Z</time></trkpt><trkpt lat="44.7873451" lon="9.0448921"><ele>545.0</ele><time>2026-05-03T07:43:02.077Z</time></trkpt><trkpt lat="44.7873945" lon="9.0447622"><ele>546.4</ele><time>2026-05-03T07:43:04.08Z</time></trkpt><trkpt lat="44.7873998" lon="9.0446394"><ele>547.8</ele><time>2026-05-03T07:43:06.079Z</time></trkpt><trkpt lat="44.7873619" lon="9.0445468"><ele>549.2</ele><time>2026-05-03T07:43:07.079Z</time></trkpt><trkpt lat="44.7873028" lon="9.044397"><ele>550.6</ele><time>2026-05-03T07:43:09.079Z</time></trkpt><trkpt lat="44.7872679" lon="9.0443192"><ele>552.0</ele><time>2026-05-03T07:43:10.08Z</time></trkpt><trkpt lat="44.7871912" lon="9.0442173"><ele>552.0</ele><time>2026-05-03T07:43:12.078Z</time></trkpt><trkpt lat="44.7871413" lon="9.0441556"><ele>552.0</ele><time>2026-05-03T07:43:13.078Z</time></trkpt><trkpt lat="44.7870969" lon="9.0440872"><ele>552.0</ele><time>2026-05-03T07:43:14.079Z</time></trkpt><trkpt lat="44.787055" lon="9.04402"><ele>552.0</ele><time>2026-05-03T07:43:15.077Z</time></trkpt><trkpt lat="44.7870048" lon="9.0439141"><ele>552.0</ele><time>2026-05-03T07:43:16.079Z</time></trkpt><trkpt lat="44.7869774" lon="9.0438206"><ele>552.0</ele><time>2026-05-03T07:43:17.078Z</time></trkpt><trkpt lat="44.7869501" lon="9.0437241"><ele>552.0</ele><time>2026-05-03T07:43:18.079Z</time></trkpt><trkpt lat="44.7869537" lon="9.0435886"><ele>551.0</ele><time>2026-05-03T07:43:19.078Z</time></trkpt><trkpt lat="44.7869526" lon="9.043463"><ele>550.0</ele><time>2026-05-03T07:43:20.079Z</time></trkpt><trkpt lat="44.7869433" lon="9.0433518"><ele>549.0</ele><time>2026-05-03T07:43:21.078Z</time></trkpt><trkpt lat="44.7869366" lon="9.0432525"><ele>548.0</ele><time>2026-05-03T07:43:22.079Z</time></trkpt><trkpt lat="44.7869133" lon="9.0431456"><ele>547.0</ele><time>2026-05-03T07:43:23.079Z</time></trkpt><trkpt lat="44.7869074" lon="9.0430454"><ele>546.0</ele><time>2026-05-03T07:43:24.077Z</time></trkpt><trkpt lat="44.7868961" lon="9.0429271"><ele>545.6</ele><time>2026-05-03T07:43:25.079Z</time></trkpt><trkpt lat="44.7868903" lon="9.0428169"><ele>545.2</ele><time>2026-05-03T07:43:26.077Z</time></trkpt><trkpt lat="44.7868847" lon="9.0426957"><ele>544.8</ele><time>2026-05-03T07:43:27.079Z</time></trkpt><trkpt lat="44.7868825" lon="9.0425899"><ele>544.4</ele><time>2026-05-03T07:43:28.077Z</time></trkpt><trkpt lat="44.786866" lon="9.0423796"><ele>544.0</ele><time>2026-05-03T07:43:30.078Z</time></trkpt><trkpt lat="44.786842" lon="9.0422934"><ele>550.6</ele><time>2026-05-03T07:43:31.077Z</time></trkpt><trkpt lat="44.786805" lon="9.0422051"><ele>557.2</ele><time>2026-05-03T07:43:32.078Z</time></trkpt><trkpt lat="44.7867565" lon="9.0421302"><ele>563.8000000000001</ele><time>2026-05-03T07:43:33.078Z</time></trkpt><trkpt lat="44.786686" lon="9.0419908"><ele>570.4</ele><time>2026-05-03T07:43:35.078Z</time></trkpt><trkpt lat="44.7866784" lon="9.0418298"><ele>577.0</ele><time>2026-05-03T07:43:37.078Z</time></trkpt><trkpt lat="44.7866866" lon="9.0416785"><ele>575.4</ele><time>2026-05-03T07:43:38.078Z</time></trkpt><trkpt lat="44.7866829" lon="9.0415206"><ele>573.8000000000001</ele><time>2026-05-03T07:43:39.077Z</time></trkpt><trkpt lat="44.7866774" lon="9.0413869"><ele>572.2</ele><time>2026-05-03T07:43:40.078Z</time></trkpt><trkpt lat="44.7866972" lon="9.041256"><ele>570.6</ele><time>2026-05-03T07:43:42.078Z</time></trkpt><trkpt lat="44.7866091" lon="9.0413"><ele>569.0</ele><time>2026-05-03T07:44:06.078Z</time></trkpt><trkpt lat="44.7865282" lon="9.0414277"><ele>569.0000000000001</ele><time>2026-05-03T07:44:08.078Z</time></trkpt><trkpt lat="44.7864789" lon="9.0414993"><ele>569.0</ele><time>2026-05-03T07:44:09.079Z</time></trkpt><trkpt lat="44.7864172" lon="9.0415765"><ele>569.0</ele><time>2026-05-03T07:44:10.079Z</time></trkpt><trkpt lat="44.7863623" lon="9.0416235"><ele>569.0</ele><time>2026-05-03T07:44:11.079Z</time></trkpt><trkpt lat="44.7862978" lon="9.0416608"><ele>569.0</ele><time>2026-05-03T07:44:12.079Z</time></trkpt><trkpt lat="44.7862341" lon="9.0416804"><ele>569.0000000000001</ele><time>2026-05-03T07:44:13.078Z</time></trkpt><trkpt lat="44.7861639" lon="9.0416739"><ele>569.0</ele><time>2026-05-03T07:44:14.079Z</time></trkpt><trkpt lat="44.786101" lon="9.0416814"><ele>568.4</ele><time>2026-05-03T07:44:15.079Z</time></trkpt><trkpt lat="44.7860098" lon="9.0416588"><ele>567.8</ele><time>2026-05-03T07:44:17.078Z</time></trkpt><trkpt lat="44.7859386" lon="9.0416234"><ele>567.2</ele><time>2026-05-03T07:44:19.077Z</time></trkpt><trkpt lat="44.7858323" lon="9.0415666"><ele>566.6</ele><time>2026-05-03T07:44:21.079Z</time></trkpt><trkpt lat="44.7857681" lon="9.041535"><ele>566.0</ele><time>2026-05-03T07:44:22.079Z</time></trkpt><trkpt lat="44.7856686" lon="9.0414678"><ele>566.0</ele><time>2026-05-03T07:44:24.079Z</time></trkpt><trkpt lat="44.7856072" lon="9.0414266"><ele>566.0</ele><time>2026-05-03T07:44:25.078Z</time></trkpt><trkpt lat="44.7855363" lon="9.0413605"><ele>566.0</ele><time>2026-05-03T07:44:26.078Z</time></trkpt><trkpt lat="44.7854714" lon="9.0413089"><ele>566.0</ele><time>2026-05-03T07:44:27.078Z</time></trkpt><trkpt lat="44.7854103" lon="9.0412617"><ele>566.0</ele><time>2026-05-03T07:44:28.078Z</time></trkpt><trkpt lat="44.7853467" lon="9.0412097"><ele>566.0</ele><time>2026-05-03T07:44:29.078Z</time></trkpt><trkpt lat="44.7852809" lon="9.0411437"><ele>566.0</ele><time>2026-05-03T07:44:30.077Z</time></trkpt><trkpt lat="44.7852234" lon="9.0410847"><ele>566.0</ele><time>2026-05-03T07:44:31.078Z</time></trkpt><trkpt lat="44.7851645" lon="9.0410223"><ele>566.0</ele><time>2026-05-03T07:44:32.079Z</time></trkpt><trkpt lat="44.7851049" lon="9.040977"><ele>566.0</ele><time>2026-05-03T07:44:33.078Z</time></trkpt><trkpt lat="44.7850462" lon="9.0409218"><ele>566.0</ele><time>2026-05-03T07:44:34.079Z</time></trkpt><trkpt lat="44.7849883" lon="9.0408692"><ele>566.0</ele><time>2026-05-03T07:44:35.078Z</time></trkpt><trkpt lat="44.7848903" lon="9.0407707"><ele>564.1666666666666</ele><time>2026-05-03T07:44:37.079Z</time></trkpt><trkpt lat="44.7848237" lon="9.0407344"><ele>562.3333333333333</ele><time>2026-05-03T07:44:38.077Z</time></trkpt><trkpt lat="44.7847453" lon="9.0407048"><ele>560.5</ele><time>2026-05-03T07:44:39.077Z</time></trkpt><trkpt lat="44.7846779" lon="9.0406701"><ele>558.6666666666666</ele><time>2026-05-03T07:44:40.078Z</time></trkpt><trkpt lat="44.7846212" lon="9.040622"><ele>556.8333333333334</ele><time>2026-05-03T07:44:41.078Z</time></trkpt><trkpt lat="44.7845675" lon="9.0405025"><ele>555.0</ele><time>2026-05-03T07:44:43.077Z</time></trkpt><trkpt lat="44.7845556" lon="9.0403965"><ele>555.0</ele><time>2026-05-03T07:44:44.079Z</time></trkpt><trkpt lat="44.7845389" lon="9.0403042"><ele>555.0</ele><time>2026-05-03T07:44:45.078Z</time></trkpt><trkpt lat="44.7845403" lon="9.040131"><ele>555.0</ele><time>2026-05-03T07:44:47.078Z</time></trkpt><trkpt lat="44.7845281" lon="9.04002"><ele>555.0</ele><time>2026-05-03T07:44:48.079Z</time></trkpt><trkpt lat="44.7845109" lon="9.0399303"><ele>555.0</ele><time>2026-05-03T07:44:49.079Z</time></trkpt><trkpt lat="44.7844939" lon="9.0397697"><ele>553.8</ele><time>2026-05-03T07:44:51.078Z</time></trkpt><trkpt lat="44.7844932" lon="9.0396311"><ele>552.6</ele><time>2026-05-03T07:44:53.078Z</time></trkpt><trkpt lat="44.7844636" lon="9.0394958"><ele>551.4</ele><time>2026-05-03T07:44:55.077Z</time></trkpt><trkpt lat="44.7843961" lon="9.0394384"><ele>550.2</ele><time>2026-05-03T07:44:57.078Z</time></trkpt><trkpt lat="44.7842796" lon="9.039433"><ele>549.0</ele><time>2026-05-03T07:44:59.079Z</time></trkpt><trkpt lat="44.7841868" lon="9.0393945"><ele>549.0</ele><time>2026-05-03T07:45:01.077Z</time></trkpt><trkpt lat="44.7841305" lon="9.0393058"><ele>549.0</ele><time>2026-05-03T07:45:03.079Z</time></trkpt><trkpt lat="44.7840841" lon="9.0392343"><ele>549.0</ele><time>2026-05-03T07:45:06.079Z</time></trkpt><trkpt lat="44.7840348" lon="9.0393607"><ele>549.0</ele><time>2026-05-03T07:45:08.079Z</time></trkpt><trkpt lat="44.7840122" lon="9.0394445"><ele>549.0</ele><time>2026-05-03T07:45:09.077Z</time></trkpt><trkpt lat="44.7839951" lon="9.0395329"><ele>549.0</ele><time>2026-05-03T07:45:10.078Z</time></trkpt><trkpt lat="44.7839577" lon="9.0397157"><ele>549.0</ele><time>2026-05-03T07:45:12.077Z</time></trkpt><trkpt lat="44.7839278" lon="9.0398218"><ele>549.0</ele><time>2026-05-03T07:45:13.078Z</time></trkpt><trkpt lat="44.7839102" lon="9.0399161"><ele>549.0</ele><time>2026-05-03T07:45:14.078Z</time></trkpt><trkpt lat="44.7838881" lon="9.0400079"><ele>549.0</ele><time>2026-05-03T07:45:15.078Z</time></trkpt><trkpt lat="44.7837929" lon="9.0401502"><ele>549.0</ele><time>2026-05-03T07:45:17.079Z</time></trkpt><trkpt lat="44.783734" lon="9.0402355"><ele>549.0</ele><time>2026-05-03T07:45:18.077Z</time></trkpt><trkpt lat="44.7836485" lon="9.0403509"><ele>550.0</ele><time>2026-05-03T07:45:20.078Z</time></trkpt><trkpt lat="44.7835968" lon="9.0404978"><ele>551.0</ele><time>2026-05-03T07:45:22.078Z</time></trkpt><trkpt lat="44.7835508" lon="9.0406552"><ele>552.0</ele><time>2026-05-03T07:45:24.077Z</time></trkpt><trkpt lat="44.7835347" lon="9.0408133"><ele>553.0</ele><time>2026-05-03T07:45:26.079Z</time></trkpt><trkpt lat="44.7835506" lon="9.0409322"><ele>554.0</ele><time>2026-05-03T07:45:28.078Z</time></trkpt><trkpt lat="44.7834872" lon="9.0409844"><ele>549.8</ele><time>2026-05-03T07:45:30.079Z</time></trkpt><trkpt lat="44.783399" lon="9.0409793"><ele>545.5999999999999</ele><time>2026-05-03T07:45:32.078Z</time></trkpt><trkpt lat="44.7833116" lon="9.040943"><ele>541.4</ele><time>2026-05-03T07:45:34.077Z</time></trkpt><trkpt lat="44.7832497" lon="9.0409726"><ele>537.1999999999999</ele><time>2026-05-03T07:45:36.077Z</time></trkpt><trkpt lat="44.7831353" lon="9.0409995"><ele>533.0</ele><time>2026-05-03T07:45:38.079Z</time></trkpt><trkpt lat="44.78302" lon="9.0410192"><ele>533.0</ele><time>2026-05-03T07:45:40.077Z</time></trkpt><trkpt lat="44.7829515" lon="9.041077"><ele>533.0</ele><time>2026-05-03T07:45:41.078Z</time></trkpt><trkpt lat="44.7828778" lon="9.0411299"><ele>533.0</ele><time>2026-05-03T07:45:42.078Z</time></trkpt><trkpt lat="44.7827824" lon="9.0411644"><ele>533.0</ele><time>2026-05-03T07:45:43.079Z</time></trkpt><trkpt lat="44.7827141" lon="9.0412021"><ele>533.0</ele><time>2026-05-03T07:45:44.077Z</time></trkpt><trkpt lat="44.7826152" lon="9.0412417"><ele>533.0</ele><time>2026-05-03T07:45:45.078Z</time></trkpt><trkpt lat="44.7825272" lon="9.0412771"><ele>530.8333333333333</ele><time>2026-05-03T07:45:46.079Z</time></trkpt><trkpt lat="44.7824521" lon="9.0413073"><ele>528.6666666666666</ele><time>2026-05-03T07:45:47.079Z</time></trkpt><trkpt lat="44.7823686" lon="9.0413148"><ele>526.5</ele><time>2026-05-03T07:45:48.077Z</time></trkpt><trkpt lat="44.7822998" lon="9.0413407"><ele>524.3333333333334</ele><time>2026-05-03T07:45:49.078Z</time></trkpt><trkpt lat="44.7822257" lon="9.0414067"><ele>522.1666666666667</ele><time>2026-05-03T07:45:50.078Z</time></trkpt><trkpt lat="44.7821438" lon="9.0414545"><ele>520.0</ele><time>2026-05-03T07:45:51.078Z</time></trkpt><trkpt lat="44.7820801" lon="9.0414934"><ele>520.0</ele><time>2026-05-03T07:45:52.077Z</time></trkpt><trkpt lat="44.7820233" lon="9.0415392"><ele>520.0</ele><time>2026-05-03T07:45:53.078Z</time></trkpt><trkpt lat="44.7819413" lon="9.0416553"><ele>520.0</ele><time>2026-05-03T07:45:55.078Z</time></trkpt><trkpt lat="44.781902" lon="9.0417408"><ele>520.0</ele><time>2026-05-03T07:45:56.079Z</time></trkpt><trkpt lat="44.7818759" lon="9.0418309"><ele>520.0</ele><time>2026-05-03T07:45:57.077Z</time></trkpt><trkpt lat="44.7818278" lon="9.0419787"><ele>520.0</ele><time>2026-05-03T07:45:59.078Z</time></trkpt><trkpt lat="44.7818158" lon="9.0421098"><ele>521.2</ele><time>2026-05-03T07:46:01.079Z</time></trkpt><trkpt lat="44.7817194" lon="9.0421104"><ele>522.4</ele><time>2026-05-03T07:46:04.078Z</time></trkpt><trkpt lat="44.781629" lon="9.0420118"><ele>523.6</ele><time>2026-05-03T07:46:06.079Z</time></trkpt><trkpt lat="44.7815377" lon="9.041963"><ele>524.8</ele><time>2026-05-03T07:46:08.078Z</time></trkpt><trkpt lat="44.7814024" lon="9.0419869"><ele>526.0</ele><time>2026-05-03T07:46:10.077Z</time></trkpt><trkpt lat="44.781308" lon="9.0420572"><ele>526.0</ele><time>2026-05-03T07:46:11.079Z</time></trkpt><trkpt lat="44.7812342" lon="9.0421019"><ele>526.0</ele><time>2026-05-03T07:46:12.077Z</time></trkpt><trkpt lat="44.781168" lon="9.0421771"><ele>526.0</ele><time>2026-05-03T07:46:13.078Z</time></trkpt><trkpt lat="44.7811179" lon="9.0422454"><ele>526.0</ele><time>2026-05-03T07:46:14.079Z</time></trkpt><trkpt lat="44.7810629" lon="9.0423477"><ele>526.0</ele><time>2026-05-03T07:46:15.079Z</time></trkpt><trkpt lat="44.7810178" lon="9.0424289"><ele>526.0</ele><time>2026-05-03T07:46:16.078Z</time></trkpt><trkpt lat="44.7809827" lon="9.0425075"><ele>526.4</ele><time>2026-05-03T07:46:17.079Z</time></trkpt><trkpt lat="44.7809657" lon="9.0426143"><ele>526.8</ele><time>2026-05-03T07:46:18.079Z</time></trkpt><trkpt lat="44.7809373" lon="9.0427246"><ele>527.1999999999999</ele><time>2026-05-03T07:46:19.077Z</time></trkpt><trkpt lat="44.7808962" lon="9.0428198"><ele>527.6</ele><time>2026-05-03T07:46:20.078Z</time></trkpt><trkpt lat="44.78081" lon="9.0430065"><ele>528.0</ele><time>2026-05-03T07:46:22.077Z</time></trkpt><trkpt lat="44.7807501" lon="9.0430911"><ele>528.0</ele><time>2026-05-03T07:46:23.078Z</time></trkpt><trkpt lat="44.7806855" lon="9.0432023"><ele>528.0</ele><time>2026-05-03T07:46:25.079Z</time></trkpt><trkpt lat="44.7806679" lon="9.0433442"><ele>528.0</ele><time>2026-05-03T07:46:27.078Z</time></trkpt><trkpt lat="44.7806251" lon="9.0434209"><ele>528.0</ele><time>2026-05-03T07:46:28.078Z</time></trkpt><trkpt lat="44.7805348" lon="9.0435709"><ele>528.0</ele><time>2026-05-03T07:46:30.078Z</time></trkpt><trkpt lat="44.7805015" lon="9.0436742"><ele>530.5</ele><time>2026-05-03T07:46:31.078Z</time></trkpt><trkpt lat="44.7804593" lon="9.0437684"><ele>533.0</ele><time>2026-05-03T07:46:32.077Z</time></trkpt><trkpt lat="44.7804074" lon="9.0438584"><ele>535.5</ele><time>2026-05-03T07:46:33.077Z</time></trkpt><trkpt lat="44.7803598" lon="9.04395"><ele>538.0</ele><time>2026-05-03T07:46:34.078Z</time></trkpt><trkpt lat="44.7803263" lon="9.0440621"><ele>540.5</ele><time>2026-05-03T07:46:35.08Z</time></trkpt><trkpt lat="44.7802935" lon="9.0441707"><ele>543.0</ele><time>2026-05-03T07:46:36.077Z</time></trkpt><trkpt lat="44.7802469" lon="9.044289"><ele>541.0</ele><time>2026-05-03T07:46:37.078Z</time></trkpt><trkpt lat="44.7802042" lon="9.044406"><ele>539.0</ele><time>2026-05-03T07:46:38.078Z</time></trkpt><trkpt lat="44.7801628" lon="9.0445258"><ele>537.0</ele><time>2026-05-03T07:46:39.078Z</time></trkpt><trkpt lat="44.7801245" lon="9.0446351"><ele>535.0</ele><time>2026-05-03T07:46:40.077Z</time></trkpt><trkpt lat="44.7800882" lon="9.0447839"><ele>533.0</ele><time>2026-05-03T07:46:42.078Z</time></trkpt><trkpt lat="44.7800865" lon="9.0448904"><ele>534.6666666666666</ele><time>2026-05-03T07:46:43.078Z</time></trkpt><trkpt lat="44.7800938" lon="9.0449848"><ele>536.3333333333333</ele><time>2026-05-03T07:46:44.079Z</time></trkpt><trkpt lat="44.7801222" lon="9.0450893"><ele>538.0</ele><time>2026-05-03T07:46:45.079Z</time></trkpt><trkpt lat="44.7801753" lon="9.0452315"><ele>539.6666666666666</ele><time>2026-05-03T07:46:47.078Z</time></trkpt><trkpt lat="44.7801764" lon="9.0453203"><ele>541.3333333333334</ele><time>2026-05-03T07:46:48.078Z</time></trkpt><trkpt lat="44.7801539" lon="9.045493"><ele>543.0</ele><time>2026-05-03T07:46:50.079Z</time></trkpt><trkpt lat="44.7801296" lon="9.0455868"><ele>543.0</ele><time>2026-05-03T07:46:51.079Z</time></trkpt><trkpt lat="44.780083" lon="9.0456849"><ele>543.0</ele><time>2026-05-03T07:46:52.078Z</time></trkpt><trkpt lat="44.7800499" lon="9.0458319"><ele>543.0</ele><time>2026-05-03T07:46:54.078Z</time></trkpt><trkpt lat="44.7800608" lon="9.0459272"><ele>543.0</ele><time>2026-05-03T07:46:55.079Z</time></trkpt><trkpt lat="44.7801092" lon="9.0460734"><ele>543.0</ele><time>2026-05-03T07:46:57.077Z</time></trkpt><trkpt lat="44.780154" lon="9.0461506"><ele>543.0</ele><time>2026-05-03T07:46:58.078Z</time></trkpt><trkpt lat="44.7802254" lon="9.0463162"><ele>544.5</ele><time>2026-05-03T07:47:00.079Z</time></trkpt><trkpt lat="44.78028" lon="9.0464181"><ele>546.0</ele><time>2026-05-03T07:47:01.078Z</time></trkpt><trkpt lat="44.7803311" lon="9.0465058"><ele>547.5</ele><time>2026-05-03T07:47:02.078Z</time></trkpt><trkpt lat="44.780365" lon="9.0466015"><ele>549.0</ele><time>2026-05-03T07:47:03.078Z</time></trkpt><trkpt lat="44.7803906" lon="9.0467151"><ele>550.5</ele><time>2026-05-03T07:47:04.078Z</time></trkpt><trkpt lat="44.780406" lon="9.0468289"><ele>552.0</ele><time>2026-05-03T07:47:05.078Z</time></trkpt><trkpt lat="44.7804112" lon="9.0469457"><ele>552.0</ele><time>2026-05-03T07:47:06.078Z</time></trkpt><trkpt lat="44.7804223" lon="9.0470609"><ele>552.0</ele><time>2026-05-03T07:47:07.078Z</time></trkpt><trkpt lat="44.7804405" lon="9.0472058"><ele>552.0</ele><time>2026-05-03T07:47:09.078Z</time></trkpt><trkpt lat="44.7804309" lon="9.047356"><ele>552.0</ele><time>2026-05-03T07:47:11.078Z</time></trkpt><trkpt lat="44.7803697" lon="9.0475218"><ele>552.0</ele><time>2026-05-03T07:47:13.079Z</time></trkpt><trkpt lat="44.7803366" lon="9.0476076"><ele>549.6666666666666</ele><time>2026-05-03T07:47:14.079Z</time></trkpt><trkpt lat="44.7802974" lon="9.0476945"><ele>547.3333333333334</ele><time>2026-05-03T07:47:15.077Z</time></trkpt><trkpt lat="44.7802506" lon="9.0477682"><ele>545.0</ele><time>2026-05-03T07:47:16.078Z</time></trkpt><trkpt lat="44.7801967" lon="9.0478632"><ele>542.6666666666667</ele><time>2026-05-03T07:47:17.078Z</time></trkpt><trkpt lat="44.7801534" lon="9.04793"><ele>540.3333333333334</ele><time>2026-05-03T07:47:18.077Z</time></trkpt><trkpt lat="44.7801168" lon="9.0480026"><ele>538.0</ele><time>2026-05-03T07:47:19.077Z</time></trkpt><trkpt lat="44.7800836" lon="9.0481784"><ele>537.6666666666667</ele><time>2026-05-03T07:47:21.078Z</time></trkpt><trkpt lat="44.7800696" lon="9.0482662"><ele>537.3333333333334</ele><time>2026-05-03T07:47:22.078Z</time></trkpt><trkpt lat="44.7800411" lon="9.0483702"><ele>537.0</ele><time>2026-05-03T07:47:23.077Z</time></trkpt><trkpt lat="44.7799993" lon="9.0484619"><ele>536.6666666666666</ele><time>2026-05-03T07:47:24.077Z</time></trkpt><trkpt lat="44.7799449" lon="9.0485503"><ele>536.3333333333333</ele><time>2026-05-03T07:47:25.077Z</time></trkpt><trkpt lat="44.7798877" lon="9.0486469"><ele>536.0</ele><time>2026-05-03T07:47:26.079Z</time></trkpt><trkpt lat="44.7798331" lon="9.048747"><ele>537.5</ele><time>2026-05-03T07:47:27.079Z</time></trkpt><trkpt lat="44.7797702" lon="9.0488623"><ele>539.0</ele><time>2026-05-03T07:47:28.078Z</time></trkpt><trkpt lat="44.7797149" lon="9.048975"><ele>540.5</ele><time>2026-05-03T07:47:29.078Z</time></trkpt><trkpt lat="44.7796733" lon="9.0490752"><ele>542.0</ele><time>2026-05-03T07:47:30.078Z</time></trkpt><trkpt lat="44.779623" lon="9.0491837"><ele>543.5</ele><time>2026-05-03T07:47:31.078Z</time></trkpt><trkpt lat="44.7795893" lon="9.0492645"><ele>545.0</ele><time>2026-05-03T07:47:32.077Z</time></trkpt><trkpt lat="44.7794991" lon="9.0493855"><ele>545.4</ele><time>2026-05-03T07:47:34.078Z</time></trkpt><trkpt lat="44.7794272" lon="9.0494344"><ele>545.8</ele><time>2026-05-03T07:47:35.078Z</time></trkpt><trkpt lat="44.7793468" lon="9.0494963"><ele>546.2</ele><time>2026-05-03T07:47:36.079Z</time></trkpt><trkpt lat="44.7792683" lon="9.0495386"><ele>546.6</ele><time>2026-05-03T07:47:37.078Z</time></trkpt><trkpt lat="44.7791437" lon="9.0496132"><ele>547.0</ele><time>2026-05-03T07:47:39.079Z</time></trkpt><trkpt lat="44.7790359" lon="9.0496742"><ele>547.3333333333334</ele><time>2026-05-03T07:47:41.079Z</time></trkpt><trkpt lat="44.7789251" lon="9.0497277"><ele>547.6666666666667</ele><time>2026-05-03T07:47:43.077Z</time></trkpt><trkpt lat="44.7788611" lon="9.0497715"><ele>548.0</ele><time>2026-05-03T07:47:44.078Z</time></trkpt><trkpt lat="44.7787984" lon="9.0498251"><ele>548.3333333333334</ele><time>2026-05-03T07:47:45.077Z</time></trkpt><trkpt lat="44.7787238" lon="9.0498813"><ele>548.6666666666666</ele><time>2026-05-03T07:47:46.079Z</time></trkpt><trkpt lat="44.7786567" lon="9.049946"><ele>549.0</ele><time>2026-05-03T07:47:47.077Z</time></trkpt><trkpt lat="44.7785665" lon="9.0500501"><ele>547.8</ele><time>2026-05-03T07:47:48.077Z</time></trkpt><trkpt lat="44.7784892" lon="9.0501415"><ele>546.5999999999999</ele><time>2026-05-03T07:47:49.078Z</time></trkpt><trkpt lat="44.7784166" lon="9.0502206"><ele>545.4</ele><time>2026-05-03T07:47:50.078Z</time></trkpt><trkpt lat="44.7783309" lon="9.0502953"><ele>544.1999999999999</ele><time>2026-05-03T07:47:51.077Z</time></trkpt><trkpt lat="44.7782393" lon="9.0504076"><ele>543.0</ele><time>2026-05-03T07:47:53.079Z</time></trkpt><trkpt lat="44.7781805" lon="9.050469"><ele>543.0</ele><time>2026-05-03T07:47:54.078Z</time></trkpt><trkpt lat="44.778112" lon="9.0505331"><ele>543.0</ele><time>2026-05-03T07:47:55.079Z</time></trkpt><trkpt lat="44.7780474" lon="9.0505895"><ele>543.0</ele><time>2026-05-03T07:47:56.079Z</time></trkpt><trkpt lat="44.7779883" lon="9.0506209"><ele>543.0</ele><time>2026-05-03T07:47:57.079Z</time></trkpt><trkpt lat="44.7778773" lon="9.0506624"><ele>543.0</ele><time>2026-05-03T07:47:59.077Z</time></trkpt><trkpt lat="44.7778039" lon="9.0506606"><ele>543.0</ele><time>2026-05-03T07:48:00.078Z</time></trkpt><trkpt lat="44.7777313" lon="9.0506471"><ele>542.0</ele><time>2026-05-03T07:48:01.08Z</time></trkpt><trkpt lat="44.7776682" lon="9.0506317"><ele>541.0</ele><time>2026-05-03T07:48:02.078Z</time></trkpt><trkpt lat="44.7775628" lon="9.0506191"><ele>540.0</ele><time>2026-05-03T07:48:04.078Z</time></trkpt><trkpt lat="44.7774454" lon="9.0506451"><ele>539.0</ele><time>2026-05-03T07:48:06.077Z</time></trkpt><trkpt lat="44.777369" lon="9.0506867"><ele>538.0</ele><time>2026-05-03T07:48:07.078Z</time></trkpt><trkpt lat="44.7772953" lon="9.0507087"><ele>537.0</ele><time>2026-05-03T07:48:08.078Z</time></trkpt><trkpt lat="44.7772092" lon="9.0507568"><ele>538.8333333333334</ele><time>2026-05-03T07:48:09.078Z</time></trkpt><trkpt lat="44.7771353" lon="9.0507925"><ele>540.6666666666666</ele><time>2026-05-03T07:48:10.08Z</time></trkpt><trkpt lat="44.7770575" lon="9.0508056"><ele>542.5</ele><time>2026-05-03T07:48:11.079Z</time></trkpt><trkpt lat="44.7769846" lon="9.0508214"><ele>544.3333333333333</ele><time>2026-05-03T07:48:12.077Z</time></trkpt><trkpt lat="44.7768882" lon="9.0508627"><ele>546.1666666666666</ele><time>2026-05-03T07:48:14.078Z</time></trkpt><trkpt lat="44.776826" lon="9.0510019"><ele>548.0</ele><time>2026-05-03T07:48:16.078Z</time></trkpt><trkpt lat="44.7767618" lon="9.0511466"><ele>549.3333333333333</ele><time>2026-05-03T07:48:18.078Z</time></trkpt><trkpt lat="44.7767195" lon="9.0512152"><ele>550.6666666666666</ele><time>2026-05-03T07:48:19.077Z</time></trkpt><trkpt lat="44.7766692" lon="9.0512845"><ele>552.0</ele><time>2026-05-03T07:48:20.079Z</time></trkpt><trkpt lat="44.7766164" lon="9.0513339"><ele>553.3333333333334</ele><time>2026-05-03T07:48:21.078Z</time></trkpt><trkpt lat="44.7765551" lon="9.0513738"><ele>554.6666666666667</ele><time>2026-05-03T07:48:22.079Z</time></trkpt><trkpt lat="44.7764325" lon="9.0514248"><ele>556.0</ele><time>2026-05-03T07:48:24.079Z</time></trkpt><trkpt lat="44.7763696" lon="9.0514407"><ele>556.0</ele><time>2026-05-03T07:48:25.078Z</time></trkpt><trkpt lat="44.7762318" lon="9.0514427"><ele>556.0</ele><time>2026-05-03T07:48:27.077Z</time></trkpt><trkpt lat="44.7761491" lon="9.0514506"><ele>556.0</ele><time>2026-05-03T07:48:28.077Z</time></trkpt><trkpt lat="44.7760775" lon="9.0514643"><ele>556.0</ele><time>2026-05-03T07:48:29.077Z</time></trkpt><trkpt lat="44.7760101" lon="9.0514685"><ele>556.0</ele><time>2026-05-03T07:48:30.078Z</time></trkpt><trkpt lat="44.7758939" lon="9.0514555"><ele>558.6</ele><time>2026-05-03T07:48:32.077Z</time></trkpt><trkpt lat="44.7758278" lon="9.0514499"><ele>561.2</ele><time>2026-05-03T07:48:33.077Z</time></trkpt><trkpt lat="44.775764" lon="9.0514388"><ele>563.8</ele><time>2026-05-03T07:48:34.079Z</time></trkpt><trkpt lat="44.7756432" lon="9.0514018"><ele>566.4</ele><time>2026-05-03T07:48:36.077Z</time></trkpt><trkpt lat="44.775513" lon="9.0513627"><ele>569.0</ele><time>2026-05-03T07:48:38.078Z</time></trkpt><trkpt lat="44.7753656" lon="9.0513804"><ele>569.0</ele><time>2026-05-03T07:48:40.077Z</time></trkpt><trkpt lat="44.775278" lon="9.0514143"><ele>569.0</ele><time>2026-05-03T07:48:41.078Z</time></trkpt><trkpt lat="44.7752026" lon="9.0514402"><ele>569.0</ele><time>2026-05-03T07:48:42.077Z</time></trkpt><trkpt lat="44.7751263" lon="9.0514674"><ele>569.0</ele><time>2026-05-03T07:48:43.079Z</time></trkpt><trkpt lat="44.7750003" lon="9.0515433"><ele>569.0</ele><time>2026-05-03T07:48:45.079Z</time></trkpt><trkpt lat="44.7749334" lon="9.0516047"><ele>572.0</ele><time>2026-05-03T07:48:46.077Z</time></trkpt><trkpt lat="44.7748725" lon="9.0516559"><ele>575.0</ele><time>2026-05-03T07:48:47.077Z</time></trkpt><trkpt lat="44.7747772" lon="9.0517142"><ele>578.0</ele><time>2026-05-03T07:48:49.077Z</time></trkpt><trkpt lat="44.7747162" lon="9.0517411"><ele>581.0</ele><time>2026-05-03T07:48:50.077Z</time></trkpt><trkpt lat="44.7746269" lon="9.0517643"><ele>584.0</ele><time>2026-05-03T07:48:51.078Z</time></trkpt><trkpt lat="44.7745346" lon="9.0517829"><ele>587.0</ele><time>2026-05-03T07:48:52.079Z</time></trkpt><trkpt lat="44.7744316" lon="9.0518015"><ele>585.2</ele><time>2026-05-03T07:48:53.078Z</time></trkpt><trkpt lat="44.7743342" lon="9.0518172"><ele>583.4000000000001</ele><time>2026-05-03T07:48:54.077Z</time></trkpt><trkpt lat="44.7742546" lon="9.0518222"><ele>581.5999999999999</ele><time>2026-05-03T07:48:55.079Z</time></trkpt><trkpt lat="44.7741696" lon="9.0518322"><ele>579.8</ele><time>2026-05-03T07:48:56.077Z</time></trkpt><trkpt lat="44.7740846" lon="9.051837"><ele>578.0</ele><time>2026-05-03T07:48:57.078Z</time></trkpt><trkpt lat="44.7739593" lon="9.0518271"><ele>578.0</ele><time>2026-05-03T07:48:59.078Z</time></trkpt><trkpt lat="44.7738446" lon="9.0518129"><ele>578.0</ele><time>2026-05-03T07:49:01.078Z</time></trkpt><trkpt lat="44.7737317" lon="9.0518006"><ele>578.0</ele><time>2026-05-03T07:49:03.078Z</time></trkpt><trkpt lat="44.7736526" lon="9.0517899"><ele>578.0</ele><time>2026-05-03T07:49:04.079Z</time></trkpt><trkpt lat="44.7735861" lon="9.0517646"><ele>578.0</ele><time>2026-05-03T07:49:05.079Z</time></trkpt><trkpt lat="44.7734596" lon="9.0517075"><ele>577.7142857142858</ele><time>2026-05-03T07:49:07.077Z</time></trkpt><trkpt lat="44.7733956" lon="9.0516904"><ele>577.4285714285714</ele><time>2026-05-03T07:49:08.078Z</time></trkpt><trkpt lat="44.7733274" lon="9.0516796"><ele>577.1428571428571</ele><time>2026-05-03T07:49:09.079Z</time></trkpt><trkpt lat="44.773263" lon="9.0516781"><ele>576.8571428571429</ele><time>2026-05-03T07:49:10.078Z</time></trkpt><trkpt lat="44.7731976" lon="9.0516915"><ele>576.5714285714286</ele><time>2026-05-03T07:49:11.08Z</time></trkpt><trkpt lat="44.7731197" lon="9.0517283"><ele>576.2857142857143</ele><time>2026-05-03T07:49:12.078Z</time></trkpt><trkpt lat="44.773038" lon="9.0517438"><ele>576.0</ele><time>2026-05-03T07:49:13.078Z</time></trkpt><trkpt lat="44.7729619" lon="9.0517684"><ele>576.0</ele><time>2026-05-03T07:49:14.077Z</time></trkpt><trkpt lat="44.772848" lon="9.0517978"><ele>576.0</ele><time>2026-05-03T07:49:16.077Z</time></trkpt><trkpt lat="44.7727386" lon="9.0518165"><ele>576.0</ele><time>2026-05-03T07:49:18.077Z</time></trkpt><trkpt lat="44.772632" lon="9.0518093"><ele>576.0</ele><time>2026-05-03T07:49:20.078Z</time></trkpt><trkpt lat="44.7725032" lon="9.051788"><ele>576.1666666666666</ele><time>2026-05-03T07:49:22.078Z</time></trkpt><trkpt lat="44.7724209" lon="9.0517791"><ele>576.3333333333334</ele><time>2026-05-03T07:49:23.079Z</time></trkpt><trkpt lat="44.7723026" lon="9.051744"><ele>576.5</ele><time>2026-05-03T07:49:25.077Z</time></trkpt><trkpt lat="44.7722425" lon="9.0517129"><ele>576.6666666666667</ele><time>2026-05-03T07:49:26.078Z</time></trkpt><trkpt lat="44.7721723" lon="9.0516721"><ele>576.8333333333334</ele><time>2026-05-03T07:49:27.078Z</time></trkpt><trkpt lat="44.7721095" lon="9.0515992"><ele>577.0</ele><time>2026-05-03T07:49:28.077Z</time></trkpt><trkpt lat="44.7720194" lon="9.0514724"><ele>574.2</ele><time>2026-05-03T07:49:30.079Z</time></trkpt><trkpt lat="44.7719178" lon="9.0513757"><ele>571.4000000000001</ele><time>2026-05-03T07:49:32.079Z</time></trkpt><trkpt lat="44.7718217" lon="9.0513549"><ele>568.5999999999999</ele><time>2026-05-03T07:49:33.079Z</time></trkpt><trkpt lat="44.7717219" lon="9.0513177"><ele>565.8</ele><time>2026-05-03T07:49:34.077Z</time></trkpt><trkpt lat="44.7716374" lon="9.0512834"><ele>563.0</ele><time>2026-05-03T07:49:35.077Z</time></trkpt><trkpt lat="44.7715632" lon="9.051245"><ele>563.0</ele><time>2026-05-03T07:49:36.077Z</time></trkpt><trkpt lat="44.7714899" lon="9.0512202"><ele>563.0</ele><time>2026-05-03T07:49:37.078Z</time></trkpt><trkpt lat="44.7714074" lon="9.051196"><ele>563.0</ele><time>2026-05-03T07:49:39.078Z</time></trkpt><trkpt lat="44.7713122" lon="9.0511802"><ele>563.0</ele><time>2026-05-03T07:49:41.079Z</time></trkpt><trkpt lat="44.7711962" lon="9.0511148"><ele>563.0</ele><time>2026-05-03T07:49:43.078Z</time></trkpt><trkpt lat="44.7711139" lon="9.0511046"><ele>563.0</ele><time>2026-05-03T07:49:44.077Z</time></trkpt><trkpt lat="44.7710413" lon="9.0511186"><ele>563.0</ele><time>2026-05-03T07:49:45.078Z</time></trkpt><trkpt lat="44.7709683" lon="9.0511194"><ele>563.0</ele><time>2026-05-03T07:49:46.079Z</time></trkpt><trkpt lat="44.7708864" lon="9.0511528"><ele>563.0</ele><time>2026-05-03T07:49:47.078Z</time></trkpt><trkpt lat="44.7707741" lon="9.0512048"><ele>563.0</ele><time>2026-05-03T07:49:48.078Z</time></trkpt><trkpt lat="44.7706862" lon="9.0512398"><ele>563.0</ele><time>2026-05-03T07:49:49.079Z</time></trkpt><trkpt lat="44.7706047" lon="9.0512741"><ele>562.6</ele><time>2026-05-03T07:49:50.078Z</time></trkpt><trkpt lat="44.7704967" lon="9.0513202"><ele>562.1999999999999</ele><time>2026-05-03T07:49:51.078Z</time></trkpt><trkpt lat="44.7704097" lon="9.051364"><ele>561.8</ele><time>2026-05-03T07:49:52.079Z</time></trkpt><trkpt lat="44.7703419" lon="9.051398"><ele>561.4</ele><time>2026-05-03T07:49:53.078Z</time></trkpt><trkpt lat="44.7702806" lon="9.0514298"><ele>561.0</ele><time>2026-05-03T07:49:54.078Z</time></trkpt><trkpt lat="44.7701739" lon="9.0514716"><ele>558.3333333333334</ele><time>2026-05-03T07:49:56.078Z</time></trkpt><trkpt lat="44.7700866" lon="9.0514724"><ele>555.6666666666666</ele><time>2026-05-03T07:49:59.078Z</time></trkpt><trkpt lat="44.7700229" lon="9.0514886"><ele>553.0</ele><time>2026-05-03T07:50:02.078Z</time></trkpt><trkpt lat="44.7698805" lon="9.0514967"><ele>550.3333333333333</ele><time>2026-05-03T07:52:57.079Z</time></trkpt><trkpt lat="44.7698047" lon="9.0514979"><ele>547.6666666666666</ele><time>2026-05-03T07:52:58.078Z</time></trkpt><trkpt lat="44.7697393" lon="9.051506"><ele>545.0</ele><time>2026-05-03T07:52:59.077Z</time></trkpt><trkpt lat="44.7696743" lon="9.0514756"><ele>545.0</ele><time>2026-05-03T07:53:00.078Z</time></trkpt><trkpt lat="44.7695896" lon="9.0514198"><ele>545.0</ele><time>2026-05-03T07:53:02.079Z</time></trkpt><trkpt lat="44.7694833" lon="9.0513795"><ele>545.0</ele><time>2026-05-03T07:53:04.078Z</time></trkpt><trkpt lat="44.7694135" lon="9.0513864"><ele>545.0</ele><time>2026-05-03T07:53:05.078Z</time></trkpt><trkpt lat="44.7693385" lon="9.0514048"><ele>545.0</ele><time>2026-05-03T07:53:06.078Z</time></trkpt><trkpt lat="44.7692532" lon="9.0514488"><ele>545.0</ele><time>2026-05-03T07:53:07.078Z</time></trkpt><trkpt lat="44.7691638" lon="9.0515062"><ele>545.8333333333333</ele><time>2026-05-03T07:53:08.079Z</time></trkpt><trkpt lat="44.769095" lon="9.0515451"><ele>546.6666666666666</ele><time>2026-05-03T07:53:09.079Z</time></trkpt><trkpt lat="44.7690267" lon="9.0515654"><ele>547.5</ele><time>2026-05-03T07:53:10.078Z</time></trkpt><trkpt lat="44.7689642" lon="9.0515913"><ele>548.3333333333334</ele><time>2026-05-03T07:53:11.078Z</time></trkpt><trkpt lat="44.7688587" lon="9.0516379"><ele>549.1666666666667</ele><time>2026-05-03T07:53:13.079Z</time></trkpt><trkpt lat="44.7687502" lon="9.0516746"><ele>550.0</ele><time>2026-05-03T07:53:15.079Z</time></trkpt><trkpt lat="44.7686669" lon="9.0516756"><ele>552.6</ele><time>2026-05-03T07:53:17.079Z</time></trkpt><trkpt lat="44.7685808" lon="9.0516727"><ele>555.2</ele><time>2026-05-03T07:53:19.078Z</time></trkpt><trkpt lat="44.7684733" lon="9.0516363"><ele>557.8</ele><time>2026-05-03T07:53:21.078Z</time></trkpt><trkpt lat="44.7683733" lon="9.0515834"><ele>560.4</ele><time>2026-05-03T07:53:23.078Z</time></trkpt><trkpt lat="44.7683017" lon="9.0515335"><ele>563.0</ele><time>2026-05-03T07:53:25.078Z</time></trkpt><trkpt lat="44.76824" lon="9.0514952"><ele>563.1666666666666</ele><time>2026-05-03T07:53:27.078Z</time></trkpt><trkpt lat="44.7681694" lon="9.0514325"><ele>563.3333333333333</ele><time>2026-05-03T07:53:30.079Z</time></trkpt><trkpt lat="44.7680853" lon="9.0514271"><ele>563.5</ele><time>2026-05-03T07:53:36.079Z</time></trkpt><trkpt lat="44.7680412" lon="9.0515082"><ele>563.6666666666666</ele><time>2026-05-03T07:53:38.079Z</time></trkpt><trkpt lat="44.7680022" lon="9.0516065"><ele>563.8333333333334</ele><time>2026-05-03T07:53:40.078Z</time></trkpt><trkpt lat="44.7679582" lon="9.0517266"><ele>564.0</ele><time>2026-05-03T07:53:42.078Z</time></trkpt><trkpt lat="44.7679061" lon="9.0518256"><ele>565.0</ele><time>2026-05-03T07:53:44.079Z</time></trkpt><trkpt lat="44.7678619" lon="9.0519207"><ele>566.0</ele><time>2026-05-03T07:53:46.079Z</time></trkpt><trkpt lat="44.7678096" lon="9.0520182"><ele>567.0</ele><time>2026-05-03T07:53:48.077Z</time></trkpt><trkpt lat="44.7677583" lon="9.05213"><ele>568.0</ele><time>2026-05-03T07:53:50.077Z</time></trkpt><trkpt lat="44.7677027" lon="9.0522386"><ele>569.0</ele><time>2026-05-03T07:53:52.078Z</time></trkpt><trkpt lat="44.7676582" lon="9.0523157"><ele>570.0</ele><time>2026-05-03T07:53:53.078Z</time></trkpt><trkpt lat="44.7676241" lon="9.0523916"><ele>568.2</ele><time>2026-05-03T07:53:54.078Z</time></trkpt><trkpt lat="44.7675766" lon="9.0525333"><ele>566.4</ele><time>2026-05-03T07:53:56.077Z</time></trkpt><trkpt lat="44.7674981" lon="9.0525929"><ele>564.6</ele><time>2026-05-03T07:53:58.078Z</time></trkpt><trkpt lat="44.7673993" lon="9.0526446"><ele>562.8</ele><time>2026-05-03T07:54:00.078Z</time></trkpt><trkpt lat="44.7673038" lon="9.0526978"><ele>561.0</ele><time>2026-05-03T07:54:02.078Z</time></trkpt><trkpt lat="44.7672038" lon="9.0527928"><ele>561.0</ele><time>2026-05-03T07:54:04.079Z</time></trkpt><trkpt lat="44.7671519" lon="9.0528511"><ele>561.0</ele><time>2026-05-03T07:54:05.077Z</time></trkpt><trkpt lat="44.7670541" lon="9.0529415"><ele>561.0</ele><time>2026-05-03T07:54:07.078Z</time></trkpt><trkpt lat="44.7669672" lon="9.0530212"><ele>561.0</ele><time>2026-05-03T07:54:09.077Z</time></trkpt><trkpt lat="44.7668685" lon="9.0530347"><ele>561.0</ele><time>2026-05-03T07:54:11.078Z</time></trkpt><trkpt lat="44.7667828" lon="9.0529998"><ele>560.8</ele><time>2026-05-03T07:54:13.078Z</time></trkpt><trkpt lat="44.7667126" lon="9.052936"><ele>560.6</ele><time>2026-05-03T07:54:15.078Z</time></trkpt><trkpt lat="44.7666394" lon="9.0528574"><ele>560.4</ele><time>2026-05-03T07:54:17.077Z</time></trkpt><trkpt lat="44.7665449" lon="9.052749"><ele>560.2</ele><time>2026-05-03T07:54:19.078Z</time></trkpt><trkpt lat="44.7664519" lon="9.0526394"><ele>560.0</ele><time>2026-05-03T07:54:21.078Z</time></trkpt><trkpt lat="44.7663948" lon="9.0525843"><ele>560.0</ele><time>2026-05-03T07:54:22.077Z</time></trkpt><trkpt lat="44.7662776" lon="9.0525463"><ele>560.0</ele><time>2026-05-03T07:54:24.077Z</time></trkpt><trkpt lat="44.7661736" lon="9.0525323"><ele>560.0</ele><time>2026-05-03T07:54:26.077Z</time></trkpt><trkpt lat="44.7660632" lon="9.0525914"><ele>560.0</ele><time>2026-05-03T07:54:28.079Z</time></trkpt><trkpt lat="44.7659842" lon="9.0526883"><ele>560.0</ele><time>2026-05-03T07:54:30.079Z</time></trkpt><trkpt lat="44.7658895" lon="9.0528178"><ele>559.1666666666666</ele><time>2026-05-03T07:54:32.077Z</time></trkpt><trkpt lat="44.7657999" lon="9.0529402"><ele>558.3333333333333</ele><time>2026-05-03T07:54:34.077Z</time></trkpt><trkpt lat="44.7657551" lon="9.0530084"><ele>557.5</ele><time>2026-05-03T07:54:35.078Z</time></trkpt><trkpt lat="44.7657175" lon="9.0531108"><ele>556.6666666666666</ele><time>2026-05-03T07:54:36.077Z</time></trkpt><trkpt lat="44.7656768" lon="9.0532083"><ele>555.8333333333334</ele><time>2026-05-03T07:54:37.077Z</time></trkpt><trkpt lat="44.7656613" lon="9.0533171"><ele>555.0</ele><time>2026-05-03T07:54:38.078Z</time></trkpt><trkpt lat="44.7656404" lon="9.0534077"><ele>551.5</ele><time>2026-05-03T07:54:39.078Z</time></trkpt><trkpt lat="44.7656185" lon="9.0535131"><ele>548.0</ele><time>2026-05-03T07:54:40.078Z</time></trkpt><trkpt lat="44.7655892" lon="9.0536176"><ele>544.5</ele><time>2026-05-03T07:54:41.079Z</time></trkpt><trkpt lat="44.7655596" lon="9.0537424"><ele>541.0</ele><time>2026-05-03T07:54:42.079Z</time></trkpt><trkpt lat="44.7655366" lon="9.053846"><ele>537.5</ele><time>2026-05-03T07:54:43.078Z</time></trkpt><trkpt lat="44.7655153" lon="9.0539359"><ele>534.0</ele><time>2026-05-03T07:54:44.079Z</time></trkpt><trkpt lat="44.7654885" lon="9.0540189"><ele>531.8</ele><time>2026-05-03T07:54:45.079Z</time></trkpt><trkpt lat="44.7654457" lon="9.0541719"><ele>529.5999999999999</ele><time>2026-05-03T07:54:47.078Z</time></trkpt><trkpt lat="44.7654144" lon="9.0543042"><ele>527.4</ele><time>2026-05-03T07:54:49.078Z</time></trkpt><trkpt lat="44.7654142" lon="9.0543977"><ele>525.1999999999999</ele><time>2026-05-03T07:54:50.078Z</time></trkpt><trkpt lat="44.7654133" lon="9.0545338"><ele>523.0</ele><time>2026-05-03T07:54:52.078Z</time></trkpt><trkpt lat="44.7653723" lon="9.0546713"><ele>523.0</ele><time>2026-05-03T07:54:54.078Z</time></trkpt><trkpt lat="44.7653213" lon="9.0548374"><ele>523.0</ele><time>2026-05-03T07:54:56.078Z</time></trkpt><trkpt lat="44.7653058" lon="9.0549571"><ele>523.0</ele><time>2026-05-03T07:54:57.078Z</time></trkpt><trkpt lat="44.7652802" lon="9.0550668"><ele>523.0</ele><time>2026-05-03T07:54:58.078Z</time></trkpt><trkpt lat="44.7652497" lon="9.0551645"><ele>523.0</ele><time>2026-05-03T07:54:59.079Z</time></trkpt><trkpt lat="44.7652011" lon="9.0552341"><ele>523.0</ele><time>2026-05-03T07:55:00.078Z</time></trkpt><trkpt lat="44.7651194" lon="9.0553097"><ele>527.0</ele><time>2026-05-03T07:55:02.079Z</time></trkpt><trkpt lat="44.7650454" lon="9.0553257"><ele>531.0</ele><time>2026-05-03T07:55:03.078Z</time></trkpt><trkpt lat="44.7649635" lon="9.0553298"><ele>535.0</ele><time>2026-05-03T07:55:04.078Z</time></trkpt><trkpt lat="44.764876" lon="9.05535"><ele>539.0</ele><time>2026-05-03T07:55:05.079Z</time></trkpt><trkpt lat="44.7647887" lon="9.0553771"><ele>543.0</ele><time>2026-05-03T07:55:06.077Z</time></trkpt><trkpt lat="44.7647157" lon="9.0553999"><ele>547.0</ele><time>2026-05-03T07:55:07.078Z</time></trkpt><trkpt lat="44.7646228" lon="9.0554169"><ele>547.0</ele><time>2026-05-03T07:55:08.078Z</time></trkpt><trkpt lat="44.7645314" lon="9.0554166"><ele>547.0</ele><time>2026-05-03T07:55:09.078Z</time></trkpt><trkpt lat="44.7644429" lon="9.0554357"><ele>547.0</ele><time>2026-05-03T07:55:10.078Z</time></trkpt><trkpt lat="44.7643687" lon="9.0554198"><ele>547.0</ele><time>2026-05-03T07:55:12.078Z</time></trkpt><trkpt lat="44.7642766" lon="9.055445"><ele>547.0</ele><time>2026-05-03T07:55:14.078Z</time></trkpt><trkpt lat="44.7642013" lon="9.0555048"><ele>547.0</ele><time>2026-05-03T07:55:16.079Z</time></trkpt><trkpt lat="44.7641726" lon="9.0556544"><ele>546.8000000000001</ele><time>2026-05-03T07:55:18.077Z</time></trkpt><trkpt lat="44.7641306" lon="9.0557591"><ele>546.6</ele><time>2026-05-03T07:55:19.078Z</time></trkpt><trkpt lat="44.7640887" lon="9.0558677"><ele>546.4000000000001</ele><time>2026-05-03T07:55:20.078Z</time></trkpt><trkpt lat="44.7640466" lon="9.0559665"><ele>546.2</ele><time>2026-05-03T07:55:21.077Z</time></trkpt><trkpt lat="44.7639965" lon="9.0560811"><ele>546.0</ele><time>2026-05-03T07:55:22.078Z</time></trkpt><trkpt lat="44.7639419" lon="9.0562021"><ele>546.0</ele><time>2026-05-03T07:55:23.079Z</time></trkpt><trkpt lat="44.7638878" lon="9.0563119"><ele>546.0</ele><time>2026-05-03T07:55:24.078Z</time></trkpt><trkpt lat="44.7638388" lon="9.056433"><ele>546.0</ele><time>2026-05-03T07:55:25.077Z</time></trkpt><trkpt lat="44.7637891" lon="9.0565593"><ele>546.0</ele><time>2026-05-03T07:55:26.078Z</time></trkpt><trkpt lat="44.7637448" lon="9.0566738"><ele>546.0</ele><time>2026-05-03T07:55:27.078Z</time></trkpt><trkpt lat="44.7636995" lon="9.0567827"><ele>545.0</ele><time>2026-05-03T07:55:28.078Z</time></trkpt><trkpt lat="44.7636675" lon="9.0568668"><ele>544.0</ele><time>2026-05-03T07:55:29.079Z</time></trkpt><trkpt lat="44.7636302" lon="9.0570105"><ele>543.0</ele><time>2026-05-03T07:55:31.078Z</time></trkpt><trkpt lat="44.7636145" lon="9.0571052"><ele>542.0</ele><time>2026-05-03T07:55:35.078Z</time></trkpt><trkpt lat="44.7634909" lon="9.0570887"><ele>541.0</ele><time>2026-05-03T07:55:49.078Z</time></trkpt><trkpt lat="44.7633914" lon="9.05701"><ele>543.4</ele><time>2026-05-03T07:55:51.079Z</time></trkpt><trkpt lat="44.7633429" lon="9.0569338"><ele>545.8</ele><time>2026-05-03T07:55:52.078Z</time></trkpt><trkpt lat="44.7632525" lon="9.0568204"><ele>548.1999999999999</ele><time>2026-05-03T07:55:54.077Z</time></trkpt><trkpt lat="44.7631657" lon="9.0567211"><ele>550.6</ele><time>2026-05-03T07:55:56.078Z</time></trkpt><trkpt lat="44.7630747" lon="9.0565915"><ele>553.0</ele><time>2026-05-03T07:55:58.078Z</time></trkpt><trkpt lat="44.7630336" lon="9.0565102"><ele>554.0</ele><time>2026-05-03T07:55:59.077Z</time></trkpt><trkpt lat="44.7629872" lon="9.0564368"><ele>555.0</ele><time>2026-05-03T07:56:00.079Z</time></trkpt><trkpt lat="44.762944" lon="9.056352"><ele>556.0</ele><time>2026-05-03T07:56:01.078Z</time></trkpt><trkpt lat="44.7628929" lon="9.0562606"><ele>557.0</ele><time>2026-05-03T07:56:02.077Z</time></trkpt><trkpt lat="44.7628461" lon="9.0561651"><ele>558.0</ele><time>2026-05-03T07:56:03.078Z</time></trkpt><trkpt lat="44.7628005" lon="9.0560767"><ele>559.0</ele><time>2026-05-03T07:56:04.079Z</time></trkpt><trkpt lat="44.76275" lon="9.0559902"><ele>559.0</ele><time>2026-05-03T07:56:05.078Z</time></trkpt><trkpt lat="44.7626995" lon="9.0559014"><ele>559.0</ele><time>2026-05-03T07:56:06.079Z</time></trkpt><trkpt lat="44.7626602" lon="9.0558248"><ele>559.0</ele><time>2026-05-03T07:56:07.077Z</time></trkpt><trkpt lat="44.7625863" lon="9.0556999"><ele>559.0</ele><time>2026-05-03T07:56:09.077Z</time></trkpt><trkpt lat="44.7625383" lon="9.0556368"><ele>559.0</ele><time>2026-05-03T07:56:10.078Z</time></trkpt><trkpt lat="44.7624845" lon="9.0555866"><ele>559.0</ele><time>2026-05-03T07:56:11.078Z</time></trkpt><trkpt lat="44.7624265" lon="9.0555426"><ele>561.8</ele><time>2026-05-03T07:56:13.077Z</time></trkpt><trkpt lat="44.7623466" lon="9.0554533"><ele>564.5999999999999</ele><time>2026-05-03T07:56:16.077Z</time></trkpt><trkpt lat="44.762282" lon="9.0553387"><ele>567.4</ele><time>2026-05-03T07:56:18.079Z</time></trkpt><trkpt lat="44.7621994" lon="9.0552327"><ele>570.1999999999999</ele><time>2026-05-03T07:56:20.077Z</time></trkpt><trkpt lat="44.7621101" lon="9.055161"><ele>573.0</ele><time>2026-05-03T07:56:22.077Z</time></trkpt><trkpt lat="44.7619917" lon="9.0551723"><ele>573.0</ele><time>2026-05-03T07:56:24.077Z</time></trkpt><trkpt lat="44.7619166" lon="9.0551898"><ele>573.0</ele><time>2026-05-03T07:56:26.078Z</time></trkpt><trkpt lat="44.7618529" lon="9.0551337"><ele>573.0</ele><time>2026-05-03T07:56:36.078Z</time></trkpt><trkpt lat="44.7618085" lon="9.0550147"><ele>573.0</ele><time>2026-05-03T07:56:38.077Z</time></trkpt><trkpt lat="44.7617519" lon="9.0548418"><ele>573.0</ele><time>2026-05-03T07:56:40.078Z</time></trkpt><trkpt lat="44.761718" lon="9.0547405"><ele>576.6</ele><time>2026-05-03T07:56:41.078Z</time></trkpt><trkpt lat="44.7616825" lon="9.054635"><ele>580.1999999999999</ele><time>2026-05-03T07:56:42.078Z</time></trkpt><trkpt lat="44.7616532" lon="9.054492"><ele>583.8</ele><time>2026-05-03T07:56:44.077Z</time></trkpt><trkpt lat="44.7616751" lon="9.0543345"><ele>587.4</ele><time>2026-05-03T07:56:46.078Z</time></trkpt><trkpt lat="44.76171" lon="9.0542348"><ele>591.0</ele><time>2026-05-03T07:56:47.078Z</time></trkpt><trkpt lat="44.7617363" lon="9.0541427"><ele>592.7142857142857</ele><time>2026-05-03T07:56:48.079Z</time></trkpt><trkpt lat="44.761772" lon="9.0540478"><ele>594.4285714285714</ele><time>2026-05-03T07:56:49.077Z</time></trkpt><trkpt lat="44.7618105" lon="9.0539554"><ele>596.1428571428571</ele><time>2026-05-03T07:56:50.077Z</time></trkpt><trkpt lat="44.7618512" lon="9.0538603"><ele>597.8571428571429</ele><time>2026-05-03T07:56:51.079Z</time></trkpt><trkpt lat="44.7618895" lon="9.0537798"><ele>599.5714285714286</ele><time>2026-05-03T07:56:52.078Z</time></trkpt><trkpt lat="44.7619294" lon="9.0536965"><ele>601.2857142857143</ele><time>2026-05-03T07:56:53.077Z</time></trkpt><trkpt lat="44.7619714" lon="9.0536066"><ele>603.0</ele><time>2026-05-03T07:56:54.077Z</time></trkpt><trkpt lat="44.7620111" lon="9.0535175"><ele>603.0</ele><time>2026-05-03T07:56:55.077Z</time></trkpt><trkpt lat="44.7620567" lon="9.0534242"><ele>603.0</ele><time>2026-05-03T07:56:56.079Z</time></trkpt><trkpt lat="44.7621021" lon="9.0533301"><ele>603.0</ele><time>2026-05-03T07:56:57.079Z</time></trkpt><trkpt lat="44.7621724" lon="9.0531976"><ele>603.0</ele><time>2026-05-03T07:56:59.077Z</time></trkpt><trkpt lat="44.7622412" lon="9.0530777"><ele>603.0</ele><time>2026-05-03T07:57:01.077Z</time></trkpt><trkpt lat="44.7622862" lon="9.0529442"><ele>606.1999999999999</ele><time>2026-05-03T07:57:03.078Z</time></trkpt><trkpt lat="44.762263" lon="9.0527888"><ele>609.4</ele><time>2026-05-03T07:57:05.078Z</time></trkpt><trkpt lat="44.7622117" lon="9.0526626"><ele>612.5999999999999</ele><time>2026-05-03T07:57:07.077Z</time></trkpt><trkpt lat="44.7621736" lon="9.052588"><ele>615.8</ele><time>2026-05-03T07:57:11.079Z</time></trkpt><trkpt lat="44.7620978" lon="9.0525826"><ele>619.0</ele><time>2026-05-03T07:57:16.078Z</time></trkpt><trkpt lat="44.7619699" lon="9.0525792"><ele>619.0</ele><time>2026-05-03T07:57:18.079Z</time></trkpt><trkpt lat="44.7618995" lon="9.0525753"><ele>619.0</ele><time>2026-05-03T07:57:19.078Z</time></trkpt><trkpt lat="44.7618261" lon="9.0525785"><ele>619.0</ele><time>2026-05-03T07:57:20.077Z</time></trkpt><trkpt lat="44.7617474" lon="9.0525752"><ele>619.0</ele><time>2026-05-03T07:57:21.079Z</time></trkpt><trkpt lat="44.7616706" lon="9.0525672"><ele>619.0</ele><time>2026-05-03T07:57:22.077Z</time></trkpt><trkpt lat="44.7615878" lon="9.0525639"><ele>619.0</ele><time>2026-05-03T07:57:23.078Z</time></trkpt><trkpt lat="44.7615028" lon="9.052556"><ele>618.6</ele><time>2026-05-03T07:57:24.077Z</time></trkpt><trkpt lat="44.7614161" lon="9.0525588"><ele>618.2</ele><time>2026-05-03T07:57:25.077Z</time></trkpt><trkpt lat="44.7613138" lon="9.0525587"><ele>617.8000000000001</ele><time>2026-05-03T07:57:26.078Z</time></trkpt><trkpt lat="44.7612025" lon="9.052568"><ele>617.4</ele><time>2026-05-03T07:57:27.078Z</time></trkpt><trkpt lat="44.7611093" lon="9.0525778"><ele>617.0</ele><time>2026-05-03T07:57:28.079Z</time></trkpt><trkpt lat="44.7610189" lon="9.0525924"><ele>615.4285714285714</ele><time>2026-05-03T07:57:29.078Z</time></trkpt><trkpt lat="44.7609419" lon="9.0526051"><ele>613.8571428571428</ele><time>2026-05-03T07:57:30.077Z</time></trkpt><trkpt lat="44.7608666" lon="9.0526137"><ele>612.2857142857142</ele><time>2026-05-03T07:57:31.078Z</time></trkpt><trkpt lat="44.7608011" lon="9.0526254"><ele>610.7142857142858</ele><time>2026-05-03T07:57:32.078Z</time></trkpt><trkpt lat="44.7607328" lon="9.0526337"><ele>609.1428571428571</ele><time>2026-05-03T07:57:33.077Z</time></trkpt><trkpt lat="44.7606593" lon="9.0526349"><ele>607.5714285714286</ele><time>2026-05-03T07:57:34.077Z</time></trkpt><trkpt lat="44.7605775" lon="9.052625"><ele>606.0</ele><time>2026-05-03T07:57:35.078Z</time></trkpt><trkpt lat="44.7604926" lon="9.0526113"><ele>606.0</ele><time>2026-05-03T07:57:36.078Z</time></trkpt><trkpt lat="44.7604087" lon="9.0525996"><ele>606.0</ele><time>2026-05-03T07:57:37.078Z</time></trkpt><trkpt lat="44.7603274" lon="9.0526046"><ele>606.0</ele><time>2026-05-03T07:57:38.078Z</time></trkpt><trkpt lat="44.760255" lon="9.0526132"><ele>606.0</ele><time>2026-05-03T07:57:39.078Z</time></trkpt><trkpt lat="44.7601877" lon="9.0526323"><ele>606.0</ele><time>2026-05-03T07:57:40.079Z</time></trkpt><trkpt lat="44.7601188" lon="9.0526604"><ele>606.0</ele><time>2026-05-03T07:57:41.079Z</time></trkpt><trkpt lat="44.7600515" lon="9.0527107"><ele>603.6</ele><time>2026-05-03T07:57:42.077Z</time></trkpt><trkpt lat="44.7599855" lon="9.0527775"><ele>601.2</ele><time>2026-05-03T07:57:43.078Z</time></trkpt><trkpt lat="44.759909" lon="9.0528686"><ele>598.8</ele><time>2026-05-03T07:57:44.077Z</time></trkpt><trkpt lat="44.7598367" lon="9.0529719"><ele>596.4</ele><time>2026-05-03T07:57:45.077Z</time></trkpt><trkpt lat="44.7597711" lon="9.0530773"><ele>594.0</ele><time>2026-05-03T07:57:46.077Z</time></trkpt><trkpt lat="44.7597064" lon="9.0531787"><ele>594.0</ele><time>2026-05-03T07:57:47.078Z</time></trkpt><trkpt lat="44.7596489" lon="9.0532805"><ele>594.0</ele><time>2026-05-03T07:57:48.077Z</time></trkpt><trkpt lat="44.7595982" lon="9.0533734"><ele>594.0</ele><time>2026-05-03T07:57:49.078Z</time></trkpt><trkpt lat="44.7595526" lon="9.0534555"><ele>594.0</ele><time>2026-05-03T07:57:50.079Z</time></trkpt><trkpt lat="44.7594998" lon="9.0535354"><ele>594.0</ele><time>2026-05-03T07:57:51.078Z</time></trkpt><trkpt lat="44.7594451" lon="9.0536069"><ele>594.0</ele><time>2026-05-03T07:57:52.078Z</time></trkpt><trkpt lat="44.759388" lon="9.0536748"><ele>592.6666666666666</ele><time>2026-05-03T07:57:53.079Z</time></trkpt><trkpt lat="44.7593256" lon="9.053735"><ele>591.3333333333334</ele><time>2026-05-03T07:57:54.078Z</time></trkpt><trkpt lat="44.7592599" lon="9.0537888"><ele>590.0</ele><time>2026-05-03T07:57:55.077Z</time></trkpt><trkpt lat="44.7591831" lon="9.0538439"><ele>588.6666666666667</ele><time>2026-05-03T07:57:56.077Z</time></trkpt><trkpt lat="44.759095" lon="9.0538965"><ele>587.3333333333334</ele><time>2026-05-03T07:57:57.079Z</time></trkpt><trkpt lat="44.7590025" lon="9.0539419"><ele>586.0</ele><time>2026-05-03T07:57:58.077Z</time></trkpt><trkpt lat="44.7589004" lon="9.0539765"><ele>586.0</ele><time>2026-05-03T07:57:59.078Z</time></trkpt><trkpt lat="44.7588052" lon="9.0540087"><ele>586.0</ele><time>2026-05-03T07:58:00.078Z</time></trkpt><trkpt lat="44.7587169" lon="9.0540422"><ele>586.0</ele><time>2026-05-03T07:58:01.079Z</time></trkpt><trkpt lat="44.7586289" lon="9.0540841"><ele>586.0</ele><time>2026-05-03T07:58:02.078Z</time></trkpt><trkpt lat="44.7585385" lon="9.0541269"><ele>586.0</ele><time>2026-05-03T07:58:03.078Z</time></trkpt><trkpt lat="44.7584463" lon="9.0541704"><ele>586.6</ele><time>2026-05-03T07:58:04.079Z</time></trkpt><trkpt lat="44.7583426" lon="9.0542223"><ele>587.2</ele><time>2026-05-03T07:58:05.077Z</time></trkpt><trkpt lat="44.758243" lon="9.0542842"><ele>587.8</ele><time>2026-05-03T07:58:06.077Z</time></trkpt><trkpt lat="44.7581423" lon="9.0543464"><ele>588.4</ele><time>2026-05-03T07:58:07.077Z</time></trkpt><trkpt lat="44.7580578" lon="9.0544173"><ele>589.0</ele><time>2026-05-03T07:58:08.078Z</time></trkpt><trkpt lat="44.7579673" lon="9.054504"><ele>589.0</ele><time>2026-05-03T07:58:09.078Z</time></trkpt><trkpt lat="44.7578829" lon="9.0546027"><ele>589.0</ele><time>2026-05-03T07:58:10.077Z</time></trkpt><trkpt lat="44.7578063" lon="9.0546977"><ele>589.0</ele><time>2026-05-03T07:58:11.078Z</time></trkpt><trkpt lat="44.7577314" lon="9.0547993"><ele>589.0</ele><time>2026-05-03T07:58:12.077Z</time></trkpt><trkpt lat="44.7576593" lon="9.0548754"><ele>589.0</ele><time>2026-05-03T07:58:13.079Z</time></trkpt><trkpt lat="44.7575682" lon="9.0549488"><ele>589.0</ele><time>2026-05-03T07:58:14.077Z</time></trkpt><trkpt lat="44.7574824" lon="9.0550182"><ele>589.0</ele><time>2026-05-03T07:58:15.078Z</time></trkpt><trkpt lat="44.7573983" lon="9.055098"><ele>589.0</ele><time>2026-05-03T07:58:16.077Z</time></trkpt><trkpt lat="44.7573211" lon="9.0551859"><ele>589.0</ele><time>2026-05-03T07:58:17.079Z</time></trkpt><trkpt lat="44.7572536" lon="9.0552766"><ele>589.0</ele><time>2026-05-03T07:58:18.078Z</time></trkpt><trkpt lat="44.7572006" lon="9.055354"><ele>589.0</ele><time>2026-05-03T07:58:19.079Z</time></trkpt><trkpt lat="44.7571183" lon="9.0554911"><ele>589.0</ele><time>2026-05-03T07:58:21.077Z</time></trkpt><trkpt lat="44.7570356" lon="9.0556295"><ele>589.0</ele><time>2026-05-03T07:58:23.078Z</time></trkpt><trkpt lat="44.7569877" lon="9.0557048"><ele>589.0</ele><time>2026-05-03T07:58:24.078Z</time></trkpt><trkpt lat="44.7569368" lon="9.0557889"><ele>589.0</ele><time>2026-05-03T07:58:25.079Z</time></trkpt><trkpt lat="44.7568805" lon="9.0558944"><ele>588.4</ele><time>2026-05-03T07:58:26.078Z</time></trkpt><trkpt lat="44.7568212" lon="9.0560055"><ele>587.8</ele><time>2026-05-03T07:58:27.078Z</time></trkpt><trkpt lat="44.756761" lon="9.0561227"><ele>587.2</ele><time>2026-05-03T07:58:28.078Z</time></trkpt><trkpt lat="44.7567045" lon="9.0562298"><ele>586.6</ele><time>2026-05-03T07:58:29.078Z</time></trkpt><trkpt lat="44.7566507" lon="9.0563256"><ele>586.0</ele><time>2026-05-03T07:58:30.077Z</time></trkpt><trkpt lat="44.756583" lon="9.0564237"><ele>586.0</ele><time>2026-05-03T07:58:31.079Z</time></trkpt><trkpt lat="44.7565059" lon="9.0565042"><ele>586.0</ele><time>2026-05-03T07:58:32.078Z</time></trkpt><trkpt lat="44.7564168" lon="9.0565789"><ele>586.0</ele><time>2026-05-03T07:58:33.08Z</time></trkpt><trkpt lat="44.7562993" lon="9.0566501"><ele>586.0</ele><time>2026-05-03T07:58:34.079Z</time></trkpt><trkpt lat="44.7561715" lon="9.0567217"><ele>586.75</ele><time>2026-05-03T07:58:35.078Z</time></trkpt><trkpt lat="44.7560512" lon="9.0567872"><ele>587.5</ele><time>2026-05-03T07:58:36.078Z</time></trkpt><trkpt lat="44.7559404" lon="9.0568482"><ele>588.25</ele><time>2026-05-03T07:58:37.078Z</time></trkpt><trkpt lat="44.7558403" lon="9.0569193"><ele>589.0</ele><time>2026-05-03T07:58:38.078Z</time></trkpt><trkpt lat="44.7557535" lon="9.0569882"><ele>587.8</ele><time>2026-05-03T07:58:39.08Z</time></trkpt><trkpt lat="44.7556713" lon="9.0570529"><ele>586.5999999999999</ele><time>2026-05-03T07:58:40.078Z</time></trkpt><trkpt lat="44.7555956" lon="9.0571143"><ele>585.4</ele><time>2026-05-03T07:58:41.078Z</time></trkpt><trkpt lat="44.7555203" lon="9.0571769"><ele>584.1999999999999</ele><time>2026-05-03T07:58:42.079Z</time></trkpt><trkpt lat="44.7554454" lon="9.0572694"><ele>583.0</ele><time>2026-05-03T07:58:43.078Z</time></trkpt><trkpt lat="44.7553829" lon="9.0573848"><ele>583.0</ele><time>2026-05-03T07:58:44.078Z</time></trkpt><trkpt lat="44.7553125" lon="9.0575344"><ele>583.0</ele><time>2026-05-03T07:58:45.077Z</time></trkpt><trkpt lat="44.7552357" lon="9.057694"><ele>583.0</ele><time>2026-05-03T07:58:46.078Z</time></trkpt><trkpt lat="44.7551572" lon="9.0578424"><ele>583.0</ele><time>2026-05-03T07:58:47.079Z</time></trkpt><trkpt lat="44.7550779" lon="9.0579749"><ele>582.75</ele><time>2026-05-03T07:58:48.077Z</time></trkpt><trkpt lat="44.7549833" lon="9.0580919"><ele>582.5</ele><time>2026-05-03T07:58:49.077Z</time></trkpt><trkpt lat="44.754895" lon="9.0582103"><ele>582.25</ele><time>2026-05-03T07:58:50.079Z</time></trkpt><trkpt lat="44.7548189" lon="9.0583212"><ele>582.0</ele><time>2026-05-03T07:58:51.079Z</time></trkpt><trkpt lat="44.7547498" lon="9.058426"><ele>582.0</ele><time>2026-05-03T07:58:52.078Z</time></trkpt><trkpt lat="44.7546837" lon="9.058523"><ele>582.0</ele><time>2026-05-03T07:58:53.078Z</time></trkpt><trkpt lat="44.7546251" lon="9.0586198"><ele>582.0</ele><time>2026-05-03T07:58:54.077Z</time></trkpt><trkpt lat="44.7545735" lon="9.0587355"><ele>582.0</ele><time>2026-05-03T07:58:55.077Z</time></trkpt><trkpt lat="44.7545216" lon="9.0588778"><ele>582.0</ele><time>2026-05-03T07:58:56.078Z</time></trkpt><trkpt lat="44.7544753" lon="9.0590345"><ele>582.0</ele><time>2026-05-03T07:58:57.078Z</time></trkpt><trkpt lat="44.754438" lon="9.0591871"><ele>582.0</ele><time>2026-05-03T07:58:58.077Z</time></trkpt><trkpt lat="44.7544015" lon="9.0593232"><ele>582.0</ele><time>2026-05-03T07:58:59.077Z</time></trkpt><trkpt lat="44.7543752" lon="9.0594353"><ele>582.0</ele><time>2026-05-03T07:59:00.077Z</time></trkpt><trkpt lat="44.7543445" lon="9.0595753"><ele>582.0</ele><time>2026-05-03T07:59:02.079Z</time></trkpt><trkpt lat="44.7543538" lon="9.0597165"><ele>582.0</ele><time>2026-05-03T07:59:04.077Z</time></trkpt><trkpt lat="44.7543376" lon="9.059849"><ele>582.0</ele><time>2026-05-03T07:59:06.077Z</time></trkpt><trkpt lat="44.7543096" lon="9.059944"><ele>582.0</ele><time>2026-05-03T07:59:08.079Z</time></trkpt><trkpt lat="44.7543039" lon="9.0600358"><ele>582.0</ele><time>2026-05-03T08:01:12.077Z</time></trkpt><trkpt lat="44.7543582" lon="9.059942"><ele>582.0</ele><time>2026-05-03T08:01:15.078Z</time></trkpt><trkpt lat="44.754354" lon="9.0598024"><ele>582.0</ele><time>2026-05-03T08:01:17.077Z</time></trkpt><trkpt lat="44.7543473" lon="9.0597123"><ele>582.0</ele><time>2026-05-03T08:01:19.078Z</time></trkpt><trkpt lat="44.7542695" lon="9.0597013"><ele>582.0</ele><time>2026-05-03T08:01:22.078Z</time></trkpt><trkpt lat="44.7541512" lon="9.0598052"><ele>582.0</ele><time>2026-05-03T08:01:24.078Z</time></trkpt><trkpt lat="44.7540751" lon="9.0598677"><ele>582.0</ele><time>2026-05-03T08:01:25.078Z</time></trkpt><trkpt lat="44.753977" lon="9.0599323"><ele>582.0</ele><time>2026-05-03T08:01:26.078Z</time></trkpt><trkpt lat="44.7538796" lon="9.059995"><ele>582.0</ele><time>2026-05-03T08:01:27.079Z</time></trkpt><trkpt lat="44.7537955" lon="9.0600569"><ele>582.0</ele><time>2026-05-03T08:01:28.077Z</time></trkpt><trkpt lat="44.7537132" lon="9.0601098"><ele>582.0</ele><time>2026-05-03T08:01:29.079Z</time></trkpt><trkpt lat="44.7536467" lon="9.0601419"><ele>582.0</ele><time>2026-05-03T08:01:30.077Z</time></trkpt><trkpt lat="44.7535796" lon="9.0601968"><ele>582.0</ele><time>2026-05-03T08:01:32.077Z</time></trkpt><trkpt lat="44.7536254" lon="9.0603008"><ele>582.0</ele><time>2026-05-03T08:01:35.077Z</time></trkpt><trkpt lat="44.7536918" lon="9.0603132"><ele>582.0</ele><time>2026-05-03T08:01:36.078Z</time></trkpt><trkpt lat="44.753763" lon="9.060332"><ele>582.0</ele><time>2026-05-03T08:01:37.078Z</time></trkpt><trkpt lat="44.7538568" lon="9.0603693"><ele>582.0</ele><time>2026-05-03T08:01:38.077Z</time></trkpt><trkpt lat="44.753953" lon="9.0604107"><ele>582.0</ele><time>2026-05-03T08:01:39.078Z</time></trkpt><trkpt lat="44.7540408" lon="9.0604613"><ele>582.0</ele><time>2026-05-03T08:01:40.078Z</time></trkpt><trkpt lat="44.7541273" lon="9.0605213"><ele>582.0</ele><time>2026-05-03T08:01:41.077Z</time></trkpt><trkpt lat="44.7542054" lon="9.0605875"><ele>582.0</ele><time>2026-05-03T08:01:42.078Z</time></trkpt><trkpt lat="44.7542796" lon="9.0606471"><ele>582.0</ele><time>2026-05-03T08:01:43.079Z</time></trkpt><trkpt lat="44.7543541" lon="9.0607032"><ele>582.0</ele><time>2026-05-03T08:01:44.079Z</time></trkpt><trkpt lat="44.7544217" lon="9.0607701"><ele>582.0</ele><time>2026-05-03T08:01:45.077Z</time></trkpt><trkpt lat="44.7544796" lon="9.0608475"><ele>582.0</ele><time>2026-05-03T08:01:46.078Z</time></trkpt><trkpt lat="44.7545251" lon="9.0609195"><ele>579.5</ele><time>2026-05-03T08:01:47.078Z</time></trkpt><trkpt lat="44.7545858" lon="9.0609944"><ele>577.0</ele><time>2026-05-03T08:01:48.078Z</time></trkpt><trkpt lat="44.7546589" lon="9.0610712"><ele>574.5</ele><time>2026-05-03T08:01:49.078Z</time></trkpt><trkpt lat="44.754733" lon="9.0611398"><ele>572.0</ele><time>2026-05-03T08:01:50.077Z</time></trkpt><trkpt lat="44.7548142" lon="9.0612035"><ele>569.5</ele><time>2026-05-03T08:01:51.078Z</time></trkpt><trkpt lat="44.7548891" lon="9.0612599"><ele>567.0</ele><time>2026-05-03T08:01:52.078Z</time></trkpt><trkpt lat="44.7549556" lon="9.0613234"><ele>567.0</ele><time>2026-05-03T08:01:53.078Z</time></trkpt><trkpt lat="44.7550285" lon="9.0613865"><ele>567.0</ele><time>2026-05-03T08:01:54.078Z</time></trkpt><trkpt lat="44.7550993" lon="9.0614657"><ele>567.0</ele><time>2026-05-03T08:01:55.077Z</time></trkpt><trkpt lat="44.7551697" lon="9.0615508"><ele>567.0</ele><time>2026-05-03T08:01:56.078Z</time></trkpt><trkpt lat="44.755238" lon="9.0616419"><ele>567.0</ele><time>2026-05-03T08:01:57.078Z</time></trkpt><trkpt lat="44.7553092" lon="9.0617382"><ele>563.0</ele><time>2026-05-03T08:01:58.078Z</time></trkpt><trkpt lat="44.7553837" lon="9.061833"><ele>559.0</ele><time>2026-05-03T08:01:59.077Z</time></trkpt><trkpt lat="44.7554629" lon="9.0619213"><ele>555.0</ele><time>2026-05-03T08:02:00.078Z</time></trkpt><trkpt lat="44.7555407" lon="9.0620196"><ele>551.0</ele><time>2026-05-03T08:02:01.078Z</time></trkpt><trkpt lat="44.7556248" lon="9.0621202"><ele>547.0</ele><time>2026-05-03T08:02:02.077Z</time></trkpt><trkpt lat="44.7557117" lon="9.0622255"><ele>547.0</ele><time>2026-05-03T08:02:03.078Z</time></trkpt><trkpt lat="44.7558003" lon="9.0623286"><ele>547.0</ele><time>2026-05-03T08:02:04.078Z</time></trkpt><trkpt lat="44.7558925" lon="9.0624437"><ele>547.0</ele><time>2026-05-03T08:02:05.078Z</time></trkpt><trkpt lat="44.7559812" lon="9.0625579"><ele>547.0</ele><time>2026-05-03T08:02:06.078Z</time></trkpt><trkpt lat="44.7560613" lon="9.0626762"><ele>544.2</ele><time>2026-05-03T08:02:07.079Z</time></trkpt><trkpt lat="44.7561314" lon="9.0628029"><ele>541.4000000000001</ele><time>2026-05-03T08:02:08.079Z</time></trkpt><trkpt lat="44.7561946" lon="9.062918"><ele>538.5999999999999</ele><time>2026-05-03T08:02:09.079Z</time></trkpt><trkpt lat="44.756267" lon="9.0630151"><ele>535.8</ele><time>2026-05-03T08:02:10.078Z</time></trkpt><trkpt lat="44.7563385" lon="9.0630925"><ele>533.0</ele><time>2026-05-03T08:02:11.077Z</time></trkpt><trkpt lat="44.7564176" lon="9.0631591"><ele>533.0</ele><time>2026-05-03T08:02:12.078Z</time></trkpt><trkpt lat="44.7564934" lon="9.0632211"><ele>533.0</ele><time>2026-05-03T08:02:13.077Z</time></trkpt><trkpt lat="44.7565738" lon="9.0632873"><ele>533.0</ele><time>2026-05-03T08:02:14.078Z</time></trkpt><trkpt lat="44.7566531" lon="9.0633564"><ele>533.0</ele><time>2026-05-03T08:02:15.078Z</time></trkpt><trkpt lat="44.7567341" lon="9.0634416"><ele>533.0</ele><time>2026-05-03T08:02:16.079Z</time></trkpt><trkpt lat="44.7568123" lon="9.0635429"><ele>530.1999999999999</ele><time>2026-05-03T08:02:17.078Z</time></trkpt><trkpt lat="44.7568903" lon="9.0636474"><ele>527.4</ele><time>2026-05-03T08:02:18.077Z</time></trkpt><trkpt lat="44.7569531" lon="9.0637474"><ele>524.5999999999999</ele><time>2026-05-03T08:02:19.078Z</time></trkpt><trkpt lat="44.7570261" lon="9.0638411"><ele>521.8</ele><time>2026-05-03T08:02:20.078Z</time></trkpt><trkpt lat="44.7571067" lon="9.063925"><ele>519.0</ele><time>2026-05-03T08:02:21.077Z</time></trkpt><trkpt lat="44.7571791" lon="9.0639708"><ele>519.0</ele><time>2026-05-03T08:02:22.078Z</time></trkpt><trkpt lat="44.7572476" lon="9.064017"><ele>519.0</ele><time>2026-05-03T08:02:23.079Z</time></trkpt><trkpt lat="44.7573405" lon="9.0640539"><ele>519.0</ele><time>2026-05-03T08:02:24.077Z</time></trkpt><trkpt lat="44.7574421" lon="9.0640936"><ele>519.0</ele><time>2026-05-03T08:02:25.078Z</time></trkpt><trkpt lat="44.7575455" lon="9.0641258"><ele>519.0</ele><time>2026-05-03T08:02:26.078Z</time></trkpt><trkpt lat="44.7576556" lon="9.0641536"><ele>515.4</ele><time>2026-05-03T08:02:27.077Z</time></trkpt><trkpt lat="44.7577597" lon="9.0641812"><ele>511.79999999999995</ele><time>2026-05-03T08:02:28.078Z</time></trkpt><trkpt lat="44.7578557" lon="9.0642126"><ele>508.20000000000005</ele><time>2026-05-03T08:02:29.077Z</time></trkpt><trkpt lat="44.7579393" lon="9.0642508"><ele>504.6</ele><time>2026-05-03T08:02:30.078Z</time></trkpt><trkpt lat="44.758009" lon="9.064296"><ele>501.0</ele><time>2026-05-03T08:02:31.077Z</time></trkpt><trkpt lat="44.7580803" lon="9.0643589"><ele>501.0</ele><time>2026-05-03T08:02:32.078Z</time></trkpt><trkpt lat="44.7581434" lon="9.0644332"><ele>501.0</ele><time>2026-05-03T08:02:33.078Z</time></trkpt><trkpt lat="44.758204" lon="9.0645236"><ele>501.0</ele><time>2026-05-03T08:02:34.078Z</time></trkpt><trkpt lat="44.7582675" lon="9.0646182"><ele>501.0</ele><time>2026-05-03T08:02:35.078Z</time></trkpt><trkpt lat="44.7583335" lon="9.0647119"><ele>501.0</ele><time>2026-05-03T08:02:36.077Z</time></trkpt><trkpt lat="44.7583962" lon="9.0648029"><ele>501.0</ele><time>2026-05-03T08:02:37.077Z</time></trkpt><trkpt lat="44.7584537" lon="9.0648887"><ele>500.5</ele><time>2026-05-03T08:02:38.078Z</time></trkpt><trkpt lat="44.7585102" lon="9.0649691"><ele>500.0</ele><time>2026-05-03T08:02:39.077Z</time></trkpt><trkpt lat="44.7585668" lon="9.0650524"><ele>499.5</ele><time>2026-05-03T08:02:40.078Z</time></trkpt><trkpt lat="44.7586141" lon="9.0651326"><ele>499.0</ele><time>2026-05-03T08:02:41.079Z</time></trkpt><trkpt lat="44.7586596" lon="9.0652176"><ele>498.5</ele><time>2026-05-03T08:02:42.078Z</time></trkpt><trkpt lat="44.7586923" lon="9.0653095"><ele>498.0</ele><time>2026-05-03T08:02:43.078Z</time></trkpt><trkpt lat="44.7587146" lon="9.0654153"><ele>496.1666666666667</ele><time>2026-05-03T08:02:44.077Z</time></trkpt><trkpt lat="44.7587295" lon="9.0655214"><ele>494.33333333333337</ele><time>2026-05-03T08:02:45.078Z</time></trkpt><trkpt lat="44.7587252" lon="9.0656199"><ele>492.5</ele><time>2026-05-03T08:02:46.078Z</time></trkpt><trkpt lat="44.7587266" lon="9.0657189"><ele>490.6666666666667</ele><time>2026-05-03T08:02:47.077Z</time></trkpt><trkpt lat="44.7587216" lon="9.0658168"><ele>488.83333333333337</ele><time>2026-05-03T08:02:48.078Z</time></trkpt><trkpt lat="44.7587282" lon="9.0659828"><ele>487.0</ele><time>2026-05-03T08:02:50.077Z</time></trkpt><trkpt lat="44.7587834" lon="9.0660971"><ele>486.0</ele><time>2026-05-03T08:02:52.078Z</time></trkpt><trkpt lat="44.7588773" lon="9.0662014"><ele>485.00000000000006</ele><time>2026-05-03T08:02:54.078Z</time></trkpt><trkpt lat="44.7589303" lon="9.0662498"><ele>484.00000000000006</ele><time>2026-05-03T08:02:55.077Z</time></trkpt><trkpt lat="44.7590242" lon="9.0663642"><ele>483.0</ele><time>2026-05-03T08:02:57.077Z</time></trkpt><trkpt lat="44.7591115" lon="9.0664792"><ele>482.0</ele><time>2026-05-03T08:02:59.077Z</time></trkpt><trkpt lat="44.7591874" lon="9.0665782"><ele>480.66666666666663</ele><time>2026-05-03T08:03:01.077Z</time></trkpt><trkpt lat="44.7592551" lon="9.0666501"><ele>479.3333333333333</ele><time>2026-05-03T08:03:03.077Z</time></trkpt><trkpt lat="44.7593222" lon="9.0667211"><ele>478.0</ele><time>2026-05-03T08:03:05.079Z</time></trkpt><trkpt lat="44.7593789" lon="9.0667964"><ele>476.66666666666663</ele><time>2026-05-03T08:03:07.078Z</time></trkpt><trkpt lat="44.7594412" lon="9.0668889"><ele>475.3333333333333</ele><time>2026-05-03T08:03:09.079Z</time></trkpt><trkpt lat="44.7594986" lon="9.0670038"><ele>474.0</ele><time>2026-05-03T08:03:11.078Z</time></trkpt><trkpt lat="44.7595636" lon="9.0671078"><ele>472.2</ele><time>2026-05-03T08:03:13.077Z</time></trkpt><trkpt lat="44.7596284" lon="9.0672188"><ele>470.4</ele><time>2026-05-03T08:03:15.078Z</time></trkpt><trkpt lat="44.7596961" lon="9.0673174"><ele>468.6</ele><time>2026-05-03T08:03:17.077Z</time></trkpt><trkpt lat="44.7597477" lon="9.0674229"><ele>466.8</ele><time>2026-05-03T08:03:19.079Z</time></trkpt><trkpt lat="44.7597951" lon="9.0675548"><ele>465.0</ele><time>2026-05-03T08:03:21.077Z</time></trkpt><trkpt lat="44.7598649" lon="9.0676862"><ele>463.6666666666667</ele><time>2026-05-03T08:03:23.077Z</time></trkpt><trkpt lat="44.7599247" lon="9.0677702"><ele>462.33333333333337</ele><time>2026-05-03T08:03:25.078Z</time></trkpt><trkpt lat="44.7599831" lon="9.0678184"><ele>461.0</ele><time>2026-05-03T08:03:27.078Z</time></trkpt><trkpt lat="44.7600361" lon="9.067867"><ele>459.6666666666667</ele><time>2026-05-03T08:03:29.077Z</time></trkpt><trkpt lat="44.7601175" lon="9.0679331"><ele>458.33333333333337</ele><time>2026-05-03T08:03:31.078Z</time></trkpt><trkpt lat="44.7602068" lon="9.0679982"><ele>457.0</ele><time>2026-05-03T08:03:33.078Z</time></trkpt><trkpt lat="44.7602885" lon="9.0680604"><ele>454.6</ele><time>2026-05-03T08:03:35.077Z</time></trkpt><trkpt lat="44.7603675" lon="9.0681377"><ele>452.20000000000005</ele><time>2026-05-03T08:03:37.077Z</time></trkpt><trkpt lat="44.7604079" lon="9.0682104"><ele>449.8</ele><time>2026-05-03T08:03:39.078Z</time></trkpt><trkpt lat="44.7604554" lon="9.0683294"><ele>447.4</ele><time>2026-05-03T08:03:41.078Z</time></trkpt><trkpt lat="44.7604846" lon="9.0684686"><ele>445.0</ele><time>2026-05-03T08:03:43.079Z</time></trkpt><trkpt lat="44.7605187" lon="9.0685884"><ele>443.6666666666667</ele><time>2026-05-03T08:03:45.077Z</time></trkpt><trkpt lat="44.7605636" lon="9.0687021"><ele>442.33333333333337</ele><time>2026-05-03T08:03:47.078Z</time></trkpt><trkpt lat="44.7606098" lon="9.0687722"><ele>441.0</ele><time>2026-05-03T08:03:49.077Z</time></trkpt><trkpt lat="44.7606788" lon="9.0688445"><ele>439.66666666666663</ele><time>2026-05-03T08:03:52.077Z</time></trkpt><trkpt lat="44.7607442" lon="9.0689213"><ele>438.3333333333333</ele><time>2026-05-03T08:03:55.077Z</time></trkpt><trkpt lat="44.7608102" lon="9.0690004"><ele>437.0</ele><time>2026-05-03T08:03:58.078Z</time></trkpt><trkpt lat="44.7608616" lon="9.069065"><ele>435.3333333333333</ele><time>2026-05-03T08:04:00.077Z</time></trkpt><trkpt lat="44.7609249" lon="9.0691351"><ele>433.66666666666663</ele><time>2026-05-03T08:04:02.078Z</time></trkpt><trkpt lat="44.7609907" lon="9.0692038"><ele>432.0</ele><time>2026-05-03T08:04:04.077Z</time></trkpt><trkpt lat="44.761053" lon="9.0692769"><ele>430.33333333333337</ele><time>2026-05-03T08:04:06.078Z</time></trkpt><trkpt lat="44.761096" lon="9.0693597"><ele>428.6666666666667</ele><time>2026-05-03T08:04:08.078Z</time></trkpt><trkpt lat="44.7611571" lon="9.0694466"><ele>427.0</ele><time>2026-05-03T08:04:11.077Z</time></trkpt><trkpt lat="44.7612241" lon="9.0695067"><ele>425.7142857142857</ele><time>2026-05-03T08:04:14.079Z</time></trkpt><trkpt lat="44.7612843" lon="9.0695639"><ele>424.42857142857144</ele><time>2026-05-03T08:04:17.078Z</time></trkpt><trkpt lat="44.7613365" lon="9.069615"><ele>423.1428571428571</ele><time>2026-05-03T08:04:20.079Z</time></trkpt><trkpt lat="44.7613838" lon="9.0697089"><ele>421.8571428571429</ele><time>2026-05-03T08:04:24.078Z</time></trkpt><trkpt lat="44.7614527" lon="9.0697852"><ele>420.57142857142856</ele><time>2026-05-03T08:04:27.078Z</time></trkpt><trkpt lat="44.7615053" lon="9.0698491"><ele>419.2857142857143</ele><time>2026-05-03T08:04:29.079Z</time></trkpt><trkpt lat="44.7615592" lon="9.0699151"><ele>418.0</ele><time>2026-05-03T08:04:31.077Z</time></trkpt><trkpt lat="44.7616098" lon="9.0699844"><ele>417.00000000000006</ele><time>2026-05-03T08:04:33.078Z</time></trkpt><trkpt lat="44.761679" lon="9.0700153"><ele>416.0</ele><time>2026-05-03T08:04:36.078Z</time></trkpt><trkpt lat="44.7617457" lon="9.0700399"><ele>415.0</ele><time>2026-05-03T08:05:07.078Z</time></trkpt><trkpt lat="44.7617904" lon="9.070136"><ele>414.0</ele><time>2026-05-03T08:05:10.077Z</time></trkpt><trkpt lat="44.7618509" lon="9.0702095"><ele>413.00000000000006</ele><time>2026-05-03T08:05:13.078Z</time></trkpt><trkpt lat="44.7619375" lon="9.0702397"><ele>412.0</ele><time>2026-05-03T08:05:33.077Z</time></trkpt><trkpt lat="44.7620202" lon="9.0702833"><ele>411.00000000000006</ele><time>2026-05-03T08:05:36.078Z</time></trkpt><trkpt lat="44.7620884" lon="9.070327"><ele>410.0</ele><time>2026-05-03T08:05:38.078Z</time></trkpt><trkpt lat="44.762158" lon="9.0703695"><ele>409.0</ele><time>2026-05-03T08:05:40.077Z</time></trkpt><trkpt lat="44.762232" lon="9.0704431"><ele>408.0</ele><time>2026-05-03T08:05:42.076Z</time></trkpt><trkpt lat="44.762307" lon="9.0705082"><ele>407.00000000000006</ele><time>2026-05-03T08:05:44.077Z</time></trkpt><trkpt lat="44.7623812" lon="9.070575"><ele>406.0</ele><time>2026-05-03T08:05:46.077Z</time></trkpt><trkpt lat="44.7624419" lon="9.0706844"><ele>406.00000000000006</ele><time>2026-05-03T08:05:48.078Z</time></trkpt><trkpt lat="44.7625039" lon="9.0707728"><ele>406.0</ele><time>2026-05-03T08:05:50.077Z</time></trkpt><trkpt lat="44.7625526" lon="9.0708721"><ele>406.0</ele><time>2026-05-03T08:05:52.078Z</time></trkpt><trkpt lat="44.7625867" lon="9.0709636"><ele>406.0</ele><time>2026-05-03T08:05:54.077Z</time></trkpt><trkpt lat="44.7626193" lon="9.071065"><ele>406.00000000000006</ele><time>2026-05-03T08:05:56.077Z</time></trkpt><trkpt lat="44.7626314" lon="9.0711614"><ele>406.0</ele><time>2026-05-03T08:05:58.078Z</time></trkpt><trkpt lat="44.762629" lon="9.0712643"><ele>404.4</ele><time>2026-05-03T08:06:00.079Z</time></trkpt><trkpt lat="44.7626178" lon="9.071355"><ele>402.8</ele><time>2026-05-03T08:06:01.077Z</time></trkpt><trkpt lat="44.762609" lon="9.0715068"><ele>401.2</ele><time>2026-05-03T08:06:03.077Z</time></trkpt><trkpt lat="44.7626471" lon="9.0716755"><ele>399.59999999999997</ele><time>2026-05-03T08:06:05.078Z</time></trkpt><trkpt lat="44.7627047" lon="9.0717839"><ele>398.0</ele><time>2026-05-03T08:06:07.078Z</time></trkpt><trkpt lat="44.7627517" lon="9.0718751"><ele>397.49999999999994</ele><time>2026-05-03T08:06:09.078Z</time></trkpt><trkpt lat="44.762747" lon="9.0717861"><ele>397.0</ele><time>2026-05-03T08:06:35.077Z</time></trkpt><trkpt lat="44.7626558" lon="9.0717657"><ele>396.5</ele><time>2026-05-03T08:06:37.077Z</time></trkpt><trkpt lat="44.7625348" lon="9.0717072"><ele>396.0</ele><time>2026-05-03T08:06:39.077Z</time></trkpt><trkpt lat="44.7624683" lon="9.0716747"><ele>395.49999999999994</ele><time>2026-05-03T08:06:40.078Z</time></trkpt><trkpt lat="44.7623941" lon="9.0716645"><ele>395.0</ele><time>2026-05-03T08:06:41.077Z</time></trkpt><trkpt lat="44.7623176" lon="9.0716695"><ele>394.99999999999994</ele><time>2026-05-03T08:06:42.077Z</time></trkpt><trkpt lat="44.7622305" lon="9.0716969"><ele>395.0</ele><time>2026-05-03T08:06:43.077Z</time></trkpt><trkpt lat="44.7621537" lon="9.0717264"><ele>395.0</ele><time>2026-05-03T08:06:44.079Z</time></trkpt><trkpt lat="44.762085" lon="9.0717452"><ele>395.0</ele><time>2026-05-03T08:06:45.078Z</time></trkpt><trkpt lat="44.7620158" lon="9.0717603"><ele>394.99999999999994</ele><time>2026-05-03T08:06:46.076Z</time></trkpt><trkpt lat="44.7619009" lon="9.0717268"><ele>395.0</ele><time>2026-05-03T08:06:48.078Z</time></trkpt><trkpt lat="44.7618381" lon="9.0717045"><ele>395.99999999999994</ele><time>2026-05-03T08:06:49.077Z</time></trkpt><trkpt lat="44.7617595" lon="9.0716978"><ele>397.0</ele><time>2026-05-03T08:06:50.077Z</time></trkpt><trkpt lat="44.7616876" lon="9.0716872"><ele>398.0</ele><time>2026-05-03T08:06:51.078Z</time></trkpt><trkpt lat="44.7615727" lon="9.0716789"><ele>399.0</ele><time>2026-05-03T08:06:53.079Z</time></trkpt><trkpt lat="44.7614699" lon="9.0716957"><ele>399.99999999999994</ele><time>2026-05-03T08:06:55.077Z</time></trkpt><trkpt lat="44.7613958" lon="9.0717087"><ele>401.0</ele><time>2026-05-03T08:06:57.078Z</time></trkpt><trkpt lat="44.7613264" lon="9.0717117"><ele>400.99999999999994</ele><time>2026-05-03T08:06:59.078Z</time></trkpt><trkpt lat="44.7612472" lon="9.0717229"><ele>401.0</ele><time>2026-05-03T08:07:02.077Z</time></trkpt><trkpt lat="44.7611769" lon="9.0717265"><ele>401.0</ele><time>2026-05-03T08:07:04.078Z</time></trkpt><trkpt lat="44.7610559" lon="9.071734"><ele>401.0</ele><time>2026-05-03T08:07:06.077Z</time></trkpt><trkpt lat="44.7609766" lon="9.0717297"><ele>400.99999999999994</ele><time>2026-05-03T08:07:07.077Z</time></trkpt><trkpt lat="44.760885" lon="9.071701"><ele>401.0</ele><time>2026-05-03T08:07:09.077Z</time></trkpt><trkpt lat="44.7608101" lon="9.0716384"><ele>401.8</ele><time>2026-05-03T08:07:11.079Z</time></trkpt><trkpt lat="44.7607362" lon="9.0716342"><ele>402.6</ele><time>2026-05-03T08:07:13.078Z</time></trkpt><trkpt lat="44.7606411" lon="9.0716317"><ele>403.4</ele><time>2026-05-03T08:07:15.076Z</time></trkpt><trkpt lat="44.7605356" lon="9.0715968"><ele>404.2</ele><time>2026-05-03T08:07:17.079Z</time></trkpt><trkpt lat="44.7604276" lon="9.0716062"><ele>405.0</ele><time>2026-05-03T08:07:19.078Z</time></trkpt><trkpt lat="44.7603539" lon="9.0716262"><ele>405.0</ele><time>2026-05-03T08:07:20.078Z</time></trkpt><trkpt lat="44.7602907" lon="9.071638"><ele>405.0</ele><time>2026-05-03T08:07:21.078Z</time></trkpt><trkpt lat="44.7602251" lon="9.0716379"><ele>405.0</ele><time>2026-05-03T08:07:22.078Z</time></trkpt><trkpt lat="44.7601481" lon="9.071644"><ele>405.0</ele><time>2026-05-03T08:07:23.078Z</time></trkpt><trkpt lat="44.7600636" lon="9.0716584"><ele>405.0</ele><time>2026-05-03T08:07:24.077Z</time></trkpt><trkpt lat="44.7599847" lon="9.0716669"><ele>405.0</ele><time>2026-05-03T08:07:25.078Z</time></trkpt><trkpt lat="44.7599057" lon="9.0716809"><ele>405.8333333333333</ele><time>2026-05-03T08:07:26.077Z</time></trkpt><trkpt lat="44.7598408" lon="9.071692"><ele>406.66666666666663</ele><time>2026-05-03T08:07:27.076Z</time></trkpt><trkpt lat="44.7597753" lon="9.0717076"><ele>407.5</ele><time>2026-05-03T08:07:28.077Z</time></trkpt><trkpt lat="44.7596769" lon="9.0717509"><ele>408.3333333333333</ele><time>2026-05-03T08:07:30.078Z</time></trkpt><trkpt lat="44.7596044" lon="9.0717979"><ele>409.16666666666663</ele><time>2026-05-03T08:07:32.077Z</time></trkpt><trkpt lat="44.7595533" lon="9.0718978"><ele>410.0</ele><time>2026-05-03T08:07:34.078Z</time></trkpt><trkpt lat="44.7594658" lon="9.0719951"><ele>412.2</ele><time>2026-05-03T08:07:36.077Z</time></trkpt><trkpt lat="44.7593584" lon="9.0720316"><ele>414.4</ele><time>2026-05-03T08:07:38.077Z</time></trkpt><trkpt lat="44.7592668" lon="9.0720079"><ele>416.6</ele><time>2026-05-03T08:07:40.077Z</time></trkpt><trkpt lat="44.7591751" lon="9.0720081"><ele>418.8</ele><time>2026-05-03T08:07:42.079Z</time></trkpt><trkpt lat="44.7590901" lon="9.0720753"><ele>421.0</ele><time>2026-05-03T08:07:44.079Z</time></trkpt><trkpt lat="44.7590176" lon="9.0721616"><ele>421.00000000000006</ele><time>2026-05-03T08:07:46.077Z</time></trkpt><trkpt lat="44.7589643" lon="9.0722123"><ele>421.0</ele><time>2026-05-03T08:07:47.078Z</time></trkpt><trkpt lat="44.7588459" lon="9.0722936"><ele>421.0</ele><time>2026-05-03T08:07:49.077Z</time></trkpt><trkpt lat="44.7587822" lon="9.0723255"><ele>421.0</ele><time>2026-05-03T08:07:50.078Z</time></trkpt><trkpt lat="44.7586982" lon="9.072389"><ele>421.00000000000006</ele><time>2026-05-03T08:07:51.077Z</time></trkpt><trkpt lat="44.7586315" lon="9.0724475"><ele>421.0</ele><time>2026-05-03T08:07:52.078Z</time></trkpt><trkpt lat="44.7585281" lon="9.0724929"><ele>424.8</ele><time>2026-05-03T08:07:54.078Z</time></trkpt><trkpt lat="44.7584124" lon="9.0725461"><ele>428.6</ele><time>2026-05-03T08:07:56.077Z</time></trkpt><trkpt lat="44.7583461" lon="9.0725598"><ele>432.4</ele><time>2026-05-03T08:07:57.078Z</time></trkpt><trkpt lat="44.7582821" lon="9.072571"><ele>436.2</ele><time>2026-05-03T08:07:58.078Z</time></trkpt><trkpt lat="44.7581948" lon="9.0726006"><ele>440.0</ele><time>2026-05-03T08:07:59.076Z</time></trkpt><trkpt lat="44.7580704" lon="9.0726176"><ele>440.0</ele><time>2026-05-03T08:08:01.078Z</time></trkpt><trkpt lat="44.7579684" lon="9.0726069"><ele>440.0</ele><time>2026-05-03T08:08:03.078Z</time></trkpt><trkpt lat="44.7579048" lon="9.0726304"><ele>440.0</ele><time>2026-05-03T08:08:04.077Z</time></trkpt><trkpt lat="44.7578012" lon="9.0727171"><ele>440.0</ele><time>2026-05-03T08:08:06.078Z</time></trkpt><trkpt lat="44.7576978" lon="9.0727775"><ele>440.0</ele><time>2026-05-03T08:08:08.079Z</time></trkpt><trkpt lat="44.7576205" lon="9.0728071"><ele>442.3333333333333</ele><time>2026-05-03T08:08:09.078Z</time></trkpt><trkpt lat="44.7575579" lon="9.0728287"><ele>444.66666666666663</ele><time>2026-05-03T08:08:10.077Z</time></trkpt><trkpt lat="44.757496" lon="9.07285"><ele>447.0</ele><time>2026-05-03T08:08:11.079Z</time></trkpt><trkpt lat="44.757384" lon="9.0729141"><ele>449.33333333333337</ele><time>2026-05-03T08:08:13.077Z</time></trkpt><trkpt lat="44.7573389" lon="9.0729859"><ele>451.6666666666667</ele><time>2026-05-03T08:08:14.078Z</time></trkpt><trkpt lat="44.7572811" lon="9.0730409"><ele>454.0</ele><time>2026-05-03T08:08:15.078Z</time></trkpt><trkpt lat="44.7572234" lon="9.0730788"><ele>454.0</ele><time>2026-05-03T08:08:16.078Z</time></trkpt><trkpt lat="44.7571545" lon="9.0731054"><ele>454.00000000000006</ele><time>2026-05-03T08:08:17.078Z</time></trkpt><trkpt lat="44.7570842" lon="9.0731278"><ele>454.0</ele><time>2026-05-03T08:08:18.078Z</time></trkpt><trkpt lat="44.7570109" lon="9.0731538"><ele>454.0</ele><time>2026-05-03T08:08:19.076Z</time></trkpt><trkpt lat="44.7569284" lon="9.0731866"><ele>454.00000000000006</ele><time>2026-05-03T08:08:20.076Z</time></trkpt><trkpt lat="44.7568589" lon="9.0732266"><ele>454.0</ele><time>2026-05-03T08:08:21.076Z</time></trkpt><trkpt lat="44.7567961" lon="9.0732631"><ele>454.0</ele><time>2026-05-03T08:08:22.077Z</time></trkpt><trkpt lat="44.7567333" lon="9.073279"><ele>456.8571428571429</ele><time>2026-05-03T08:08:23.078Z</time></trkpt><trkpt lat="44.756671" lon="9.0732539"><ele>459.7142857142858</ele><time>2026-05-03T08:08:24.078Z</time></trkpt><trkpt lat="44.7566019" lon="9.0732184"><ele>462.57142857142856</ele><time>2026-05-03T08:08:25.078Z</time></trkpt><trkpt lat="44.756537" lon="9.0731872"><ele>465.42857142857144</ele><time>2026-05-03T08:08:26.078Z</time></trkpt><trkpt lat="44.7564725" lon="9.0731743"><ele>468.2857142857143</ele><time>2026-05-03T08:08:27.077Z</time></trkpt><trkpt lat="44.7564013" lon="9.0731787"><ele>471.1428571428571</ele><time>2026-05-03T08:08:28.078Z</time></trkpt><trkpt lat="44.7563305" lon="9.0731948"><ele>473.99999999999994</ele><time>2026-05-03T08:08:29.077Z</time></trkpt><trkpt lat="44.7562654" lon="9.0732121"><ele>474.0</ele><time>2026-05-03T08:08:30.077Z</time></trkpt><trkpt lat="44.7561586" lon="9.0731923"><ele>474.0</ele><time>2026-05-03T08:08:32.077Z</time></trkpt><trkpt lat="44.7560268" lon="9.0731855"><ele>474.0</ele><time>2026-05-03T08:08:34.077Z</time></trkpt><trkpt lat="44.7559575" lon="9.0732144"><ele>474.0</ele><time>2026-05-03T08:08:35.077Z</time></trkpt><trkpt lat="44.7558963" lon="9.0732562"><ele>474.0</ele><time>2026-05-03T08:08:36.078Z</time></trkpt><trkpt lat="44.7558295" lon="9.0732975"><ele>476.1666666666667</ele><time>2026-05-03T08:08:37.077Z</time></trkpt><trkpt lat="44.7557673" lon="9.0733482"><ele>478.33333333333337</ele><time>2026-05-03T08:08:38.077Z</time></trkpt><trkpt lat="44.7557112" lon="9.0733982"><ele>480.5</ele><time>2026-05-03T08:08:39.078Z</time></trkpt><trkpt lat="44.7556141" lon="9.0734768"><ele>482.6666666666667</ele><time>2026-05-03T08:08:41.078Z</time></trkpt><trkpt lat="44.7555309" lon="9.0735395"><ele>484.83333333333337</ele><time>2026-05-03T08:08:43.077Z</time></trkpt><trkpt lat="44.7554275" lon="9.0735275"><ele>487.0</ele><time>2026-05-03T08:08:46.077Z</time></trkpt><trkpt lat="44.7553495" lon="9.0734467"><ele>487.00000000000006</ele><time>2026-05-03T08:08:48.077Z</time></trkpt><trkpt lat="44.7552716" lon="9.0734303"><ele>487.0</ele><time>2026-05-03T08:08:50.077Z</time></trkpt><trkpt lat="44.7551998" lon="9.0735206"><ele>487.0</ele><time>2026-05-03T08:08:52.077Z</time></trkpt><trkpt lat="44.7551241" lon="9.0735676"><ele>487.0</ele><time>2026-05-03T08:08:54.077Z</time></trkpt><trkpt lat="44.755031" lon="9.0735358"><ele>487.00000000000006</ele><time>2026-05-03T08:08:56.077Z</time></trkpt><trkpt lat="44.7549641" lon="9.0735164"><ele>487.0</ele><time>2026-05-03T08:08:57.078Z</time></trkpt><trkpt lat="44.7548807" lon="9.0734815"><ele>488.50000000000006</ele><time>2026-05-03T08:08:59.077Z</time></trkpt><trkpt lat="44.7548166" lon="9.0734138"><ele>490.0</ele><time>2026-05-03T08:09:02.077Z</time></trkpt><trkpt lat="44.7547536" lon="9.0732972"><ele>491.5</ele><time>2026-05-03T08:09:04.077Z</time></trkpt><trkpt lat="44.754674" lon="9.073178"><ele>493.0</ele><time>2026-05-03T08:09:06.077Z</time></trkpt><trkpt lat="44.7545948" lon="9.0731626"><ele>494.50000000000006</ele><time>2026-05-03T08:09:08.078Z</time></trkpt><trkpt lat="44.7545458" lon="9.0732188"><ele>496.0</ele><time>2026-05-03T08:09:11.076Z</time></trkpt><trkpt lat="44.7544676" lon="9.0732722"><ele>497.0</ele><time>2026-05-03T08:11:00.069Z</time></trkpt><trkpt lat="44.7544193" lon="9.073361"><ele>498.0</ele><time>2026-05-03T08:11:01.078Z</time></trkpt><trkpt lat="44.7543708" lon="9.0734456"><ele>499.0</ele><time>2026-05-03T08:11:02.077Z</time></trkpt><trkpt lat="44.7543127" lon="9.0735007"><ele>500.0</ele><time>2026-05-03T08:11:03.077Z</time></trkpt><trkpt lat="44.7542043" lon="9.0735748"><ele>501.0</ele><time>2026-05-03T08:11:05.077Z</time></trkpt><trkpt lat="44.7541095" lon="9.0736772"><ele>502.75</ele><time>2026-05-03T08:11:07.078Z</time></trkpt><trkpt lat="44.7540384" lon="9.0738128"><ele>504.5</ele><time>2026-05-03T08:11:09.078Z</time></trkpt><trkpt lat="44.7540318" lon="9.0739589"><ele>506.25</ele><time>2026-05-03T08:11:11.078Z</time></trkpt><trkpt lat="44.7540345" lon="9.0741348"><ele>508.0</ele><time>2026-05-03T08:11:13.078Z</time></trkpt><trkpt lat="44.7540069" lon="9.0742988"><ele>510.2</ele><time>2026-05-03T08:11:15.078Z</time></trkpt><trkpt lat="44.7539324" lon="9.0743607"><ele>512.4</ele><time>2026-05-03T08:11:17.078Z</time></trkpt><trkpt lat="44.7538383" lon="9.0743802"><ele>514.5999999999999</ele><time>2026-05-03T08:11:19.077Z</time></trkpt><trkpt lat="44.7537359" lon="9.0744675"><ele>516.8</ele><time>2026-05-03T08:11:21.078Z</time></trkpt><trkpt lat="44.7536706" lon="9.0745425"><ele>519.0</ele><time>2026-05-03T08:11:22.077Z</time></trkpt><trkpt lat="44.7536051" lon="9.0746149"><ele>519.0</ele><time>2026-05-03T08:11:23.077Z</time></trkpt><trkpt lat="44.7535529" lon="9.0746857"><ele>519.0</ele><time>2026-05-03T08:11:24.077Z</time></trkpt><trkpt lat="44.7534774" lon="9.0748447"><ele>519.0</ele><time>2026-05-03T08:11:26.077Z</time></trkpt><trkpt lat="44.7534421" lon="9.0749459"><ele>519.0</ele><time>2026-05-03T08:11:27.076Z</time></trkpt><trkpt lat="44.7534047" lon="9.0750409"><ele>519.0</ele><time>2026-05-03T08:11:28.078Z</time></trkpt><trkpt lat="44.7533579" lon="9.0751231"><ele>519.0</ele><time>2026-05-03T08:11:29.076Z</time></trkpt><trkpt lat="44.7533063" lon="9.0751913"><ele>521.6666666666666</ele><time>2026-05-03T08:11:30.076Z</time></trkpt><trkpt lat="44.7532566" lon="9.0752652"><ele>524.3333333333334</ele><time>2026-05-03T08:11:31.077Z</time></trkpt><trkpt lat="44.7532075" lon="9.0753526"><ele>527.0</ele><time>2026-05-03T08:11:32.078Z</time></trkpt><trkpt lat="44.7531662" lon="9.0754348"><ele>529.6666666666667</ele><time>2026-05-03T08:11:33.076Z</time></trkpt><trkpt lat="44.7530869" lon="9.0755391"><ele>532.3333333333334</ele><time>2026-05-03T08:11:35.077Z</time></trkpt><trkpt lat="44.7530007" lon="9.0755842"><ele>535.0</ele><time>2026-05-03T08:11:37.079Z</time></trkpt><trkpt lat="44.7529153" lon="9.0756209"><ele>535.0</ele><time>2026-05-03T08:11:39.077Z</time></trkpt><trkpt lat="44.7528137" lon="9.0756564"><ele>535.0</ele><time>2026-05-03T08:11:41.078Z</time></trkpt><trkpt lat="44.7527451" lon="9.0756382"><ele>535.0</ele><time>2026-05-03T08:11:43.078Z</time></trkpt><trkpt lat="44.7526796" lon="9.0755484"><ele>535.0</ele><time>2026-05-03T08:12:05.078Z</time></trkpt><trkpt lat="44.7526437" lon="9.075446"><ele>535.0</ele><time>2026-05-03T08:12:07.077Z</time></trkpt><trkpt lat="44.7525953" lon="9.075301"><ele>536.6666666666667</ele><time>2026-05-03T08:12:09.077Z</time></trkpt><trkpt lat="44.7525402" lon="9.075197"><ele>538.3333333333334</ele><time>2026-05-03T08:12:11.077Z</time></trkpt><trkpt lat="44.7524472" lon="9.0751206"><ele>540.0</ele><time>2026-05-03T08:12:13.078Z</time></trkpt><trkpt lat="44.7523838" lon="9.07508"><ele>541.6666666666666</ele><time>2026-05-03T08:12:14.076Z</time></trkpt><trkpt lat="44.7523219" lon="9.0750367"><ele>543.3333333333333</ele><time>2026-05-03T08:12:15.077Z</time></trkpt><trkpt lat="44.7522524" lon="9.0750172"><ele>545.0</ele><time>2026-05-03T08:12:16.078Z</time></trkpt><trkpt lat="44.7521829" lon="9.0750007"><ele>545.0</ele><time>2026-05-03T08:12:17.078Z</time></trkpt><trkpt lat="44.7521177" lon="9.074985"><ele>545.0</ele><time>2026-05-03T08:12:18.078Z</time></trkpt><trkpt lat="44.7520032" lon="9.0749367"><ele>545.0</ele><time>2026-05-03T08:12:20.076Z</time></trkpt><trkpt lat="44.7518856" lon="9.0748762"><ele>545.0</ele><time>2026-05-03T08:12:22.077Z</time></trkpt><trkpt lat="44.7518228" lon="9.0748518"><ele>545.0</ele><time>2026-05-03T08:12:23.078Z</time></trkpt><trkpt lat="44.7517188" lon="9.0748231"><ele>546.3333333333333</ele><time>2026-05-03T08:12:25.078Z</time></trkpt><trkpt lat="44.7516481" lon="9.0748107"><ele>547.6666666666666</ele><time>2026-05-03T08:12:27.077Z</time></trkpt><trkpt lat="44.7515839" lon="9.0747795"><ele>549.0</ele><time>2026-05-03T08:12:29.077Z</time></trkpt><trkpt lat="44.7515304" lon="9.0746771"><ele>550.3333333333334</ele><time>2026-05-03T08:12:32.078Z</time></trkpt><trkpt lat="44.7515157" lon="9.0745362"><ele>551.6666666666667</ele><time>2026-05-03T08:12:34.077Z</time></trkpt><trkpt lat="44.7515051" lon="9.0743912"><ele>553.0</ele><time>2026-05-03T08:12:36.077Z</time></trkpt><trkpt lat="44.7514741" lon="9.0742692"><ele>553.0</ele><time>2026-05-03T08:12:38.077Z</time></trkpt><trkpt lat="44.7515162" lon="9.0741443"><ele>553.0</ele><time>2026-05-03T08:12:40.077Z</time></trkpt><trkpt lat="44.7515417" lon="9.0739981"><ele>553.0</ele><time>2026-05-03T08:12:42.077Z</time></trkpt><trkpt lat="44.7515317" lon="9.073821"><ele>553.0</ele><time>2026-05-03T08:12:44.076Z</time></trkpt><trkpt lat="44.7515375" lon="9.0736749"><ele>553.0</ele><time>2026-05-03T08:12:46.077Z</time></trkpt><trkpt lat="44.7515185" lon="9.0735228"><ele>553.8</ele><time>2026-05-03T08:12:48.077Z</time></trkpt><trkpt lat="44.7514388" lon="9.0734037"><ele>554.5999999999999</ele><time>2026-05-03T08:12:50.077Z</time></trkpt><trkpt lat="44.7513648" lon="9.0732874"><ele>555.4000000000001</ele><time>2026-05-03T08:12:52.078Z</time></trkpt><trkpt lat="44.7513162" lon="9.0731599"><ele>556.2</ele><time>2026-05-03T08:12:54.076Z</time></trkpt><trkpt lat="44.7512707" lon="9.0730153"><ele>557.0</ele><time>2026-05-03T08:12:56.078Z</time></trkpt><trkpt lat="44.7512294" lon="9.0728584"><ele>557.0</ele><time>2026-05-03T08:12:58.076Z</time></trkpt><trkpt lat="44.7511882" lon="9.072728"><ele>557.0</ele><time>2026-05-03T08:13:00.077Z</time></trkpt><trkpt lat="44.7511221" lon="9.0726001"><ele>557.0</ele><time>2026-05-03T08:13:02.078Z</time></trkpt><trkpt lat="44.7510802" lon="9.0725212"><ele>557.0</ele><time>2026-05-03T08:13:03.077Z</time></trkpt><trkpt lat="44.7510428" lon="9.0724495"><ele>557.0</ele><time>2026-05-03T08:13:04.078Z</time></trkpt><trkpt lat="44.7509922" lon="9.0723471"><ele>557.0</ele><time>2026-05-03T08:13:06.077Z</time></trkpt><trkpt lat="44.7509221" lon="9.0723049"><ele>559.4</ele><time>2026-05-03T08:13:13.077Z</time></trkpt><trkpt lat="44.7508585" lon="9.0723701"><ele>561.8000000000001</ele><time>2026-05-03T08:13:15.076Z</time></trkpt><trkpt lat="44.7508005" lon="9.0724526"><ele>564.2</ele><time>2026-05-03T08:13:17.077Z</time></trkpt><trkpt lat="44.7507711" lon="9.0726025"><ele>566.6</ele><time>2026-05-03T08:13:19.077Z</time></trkpt><trkpt lat="44.7507382" lon="9.0727201"><ele>569.0</ele><time>2026-05-03T08:13:21.077Z</time></trkpt><trkpt lat="44.7506738" lon="9.0728502"><ele>570.5</ele><time>2026-05-03T08:13:23.077Z</time></trkpt><trkpt lat="44.7506329" lon="9.0729295"><ele>572.0</ele><time>2026-05-03T08:13:24.077Z</time></trkpt><trkpt lat="44.750583" lon="9.0730724"><ele>573.5</ele><time>2026-05-03T08:13:26.078Z</time></trkpt><trkpt lat="44.7504944" lon="9.0731793"><ele>575.0</ele><time>2026-05-03T08:13:28.077Z</time></trkpt><trkpt lat="44.7504354" lon="9.0732278"><ele>576.5</ele><time>2026-05-03T08:13:29.078Z</time></trkpt><trkpt lat="44.750371" lon="9.0732911"><ele>578.0</ele><time>2026-05-03T08:13:30.078Z</time></trkpt><trkpt lat="44.750311" lon="9.0733573"><ele>578.6666666666666</ele><time>2026-05-03T08:13:31.077Z</time></trkpt><trkpt lat="44.7502494" lon="9.0734056"><ele>579.3333333333333</ele><time>2026-05-03T08:13:32.077Z</time></trkpt><trkpt lat="44.7501847" lon="9.0734211"><ele>580.0</ele><time>2026-05-03T08:13:33.076Z</time></trkpt><trkpt lat="44.7500917" lon="9.0733981"><ele>580.6666666666666</ele><time>2026-05-03T08:13:35.077Z</time></trkpt><trkpt lat="44.7499816" lon="9.0733649"><ele>581.3333333333334</ele><time>2026-05-03T08:13:37.079Z</time></trkpt><trkpt lat="44.7499125" lon="9.0733794"><ele>582.0</ele><time>2026-05-03T08:13:38.077Z</time></trkpt><trkpt lat="44.7497885" lon="9.0734426"><ele>584.5</ele><time>2026-05-03T08:13:40.077Z</time></trkpt><trkpt lat="44.749731" lon="9.0734838"><ele>587.0</ele><time>2026-05-03T08:13:41.077Z</time></trkpt><trkpt lat="44.7496744" lon="9.0735274"><ele>589.5</ele><time>2026-05-03T08:13:42.078Z</time></trkpt><trkpt lat="44.7496086" lon="9.0735471"><ele>592.0</ele><time>2026-05-03T08:13:43.077Z</time></trkpt><trkpt lat="44.749542" lon="9.0735835"><ele>594.5</ele><time>2026-05-03T08:13:44.076Z</time></trkpt><trkpt lat="44.7494411" lon="9.0736666"><ele>597.0</ele><time>2026-05-03T08:13:46.077Z</time></trkpt><trkpt lat="44.7493398" lon="9.0737502"><ele>598.5</ele><time>2026-05-03T08:13:48.077Z</time></trkpt><trkpt lat="44.7492467" lon="9.0737658"><ele>600.0</ele><time>2026-05-03T08:13:50.079Z</time></trkpt><trkpt lat="44.7491806" lon="9.0737646"><ele>601.5</ele><time>2026-05-03T08:13:51.079Z</time></trkpt><trkpt lat="44.7490933" lon="9.0737579"><ele>603.0</ele><time>2026-05-03T08:13:52.077Z</time></trkpt><trkpt lat="44.7490258" lon="9.0737487"><ele>604.5</ele><time>2026-05-03T08:13:53.078Z</time></trkpt><trkpt lat="44.7489113" lon="9.0736949"><ele>606.0</ele><time>2026-05-03T08:13:55.078Z</time></trkpt><trkpt lat="44.748849" lon="9.073677"><ele>606.0</ele><time>2026-05-03T08:13:56.077Z</time></trkpt><trkpt lat="44.7487812" lon="9.0736574"><ele>606.0</ele><time>2026-05-03T08:13:57.079Z</time></trkpt><trkpt lat="44.7487172" lon="9.0736404"><ele>606.0</ele><time>2026-05-03T08:13:58.078Z</time></trkpt><trkpt lat="44.7485933" lon="9.073664"><ele>606.0</ele><time>2026-05-03T08:14:00.078Z</time></trkpt><trkpt lat="44.7485304" lon="9.0736972"><ele>606.0</ele><time>2026-05-03T08:14:01.078Z</time></trkpt><trkpt lat="44.7484707" lon="9.0737426"><ele>606.0</ele><time>2026-05-03T08:14:02.078Z</time></trkpt><trkpt lat="44.748413" lon="9.0737858"><ele>608.0</ele><time>2026-05-03T08:14:03.077Z</time></trkpt><trkpt lat="44.7483523" lon="9.0738422"><ele>610.0</ele><time>2026-05-03T08:14:04.076Z</time></trkpt><trkpt lat="44.7482962" lon="9.0738949"><ele>612.0</ele><time>2026-05-03T08:14:05.076Z</time></trkpt><trkpt lat="44.7482116" lon="9.074021"><ele>614.0</ele><time>2026-05-03T08:14:07.076Z</time></trkpt><trkpt lat="44.7481441" lon="9.0741438"><ele>616.0</ele><time>2026-05-03T08:14:09.078Z</time></trkpt><trkpt lat="44.7480671" lon="9.0742865"><ele>616.1428571428571</ele><time>2026-05-03T08:14:11.078Z</time></trkpt><trkpt lat="44.7480236" lon="9.074363"><ele>616.2857142857142</ele><time>2026-05-03T08:14:12.078Z</time></trkpt><trkpt lat="44.7479793" lon="9.0744547"><ele>616.4285714285714</ele><time>2026-05-03T08:14:13.076Z</time></trkpt><trkpt lat="44.7479487" lon="9.0745668"><ele>616.5714285714286</ele><time>2026-05-03T08:14:14.076Z</time></trkpt><trkpt lat="44.7479235" lon="9.0746638"><ele>616.7142857142857</ele><time>2026-05-03T08:14:15.076Z</time></trkpt><trkpt lat="44.7478981" lon="9.0747543"><ele>616.8571428571429</ele><time>2026-05-03T08:14:16.076Z</time></trkpt><trkpt lat="44.7478776" lon="9.0748473"><ele>617.0</ele><time>2026-05-03T08:14:17.078Z</time></trkpt><trkpt lat="44.7478227" lon="9.0750287"><ele>617.0</ele><time>2026-05-03T08:14:19.077Z</time></trkpt><trkpt lat="44.7477773" lon="9.0752014"><ele>617.0</ele><time>2026-05-03T08:14:21.078Z</time></trkpt><trkpt lat="44.747748" lon="9.0753202"><ele>617.0</ele><time>2026-05-03T08:14:23.077Z</time></trkpt><trkpt lat="44.7477215" lon="9.0754169"><ele>617.0</ele><time>2026-05-03T08:14:25.078Z</time></trkpt><trkpt lat="44.7477004" lon="9.075502"><ele>617.0</ele><time>2026-05-03T08:14:28.077Z</time></trkpt><trkpt lat="44.7476874" lon="9.0756079"><ele>617.0</ele><time>2026-05-03T08:14:32.078Z</time></trkpt><trkpt lat="44.7476682" lon="9.0757337"><ele>618.6666666666666</ele><time>2026-05-03T08:14:35.076Z</time></trkpt><trkpt lat="44.7476335" lon="9.0758389"><ele>620.3333333333333</ele><time>2026-05-03T08:14:38.078Z</time></trkpt><trkpt lat="44.7475988" lon="9.0759159"><ele>622.0</ele><time>2026-05-03T08:14:40.076Z</time></trkpt><trkpt lat="44.7475544" lon="9.0760493"><ele>623.6666666666666</ele><time>2026-05-03T08:14:42.076Z</time></trkpt><trkpt lat="44.7475372" lon="9.0761429"><ele>625.3333333333334</ele><time>2026-05-03T08:14:43.077Z</time></trkpt><trkpt lat="44.7475238" lon="9.0763213"><ele>627.0</ele><time>2026-05-03T08:14:45.077Z</time></trkpt><trkpt lat="44.7475249" lon="9.076411"><ele>627.0</ele><time>2026-05-03T08:14:46.077Z</time></trkpt><trkpt lat="44.7475161" lon="9.0765323"><ele>627.0</ele><time>2026-05-03T08:14:47.076Z</time></trkpt><trkpt lat="44.7475002" lon="9.0766458"><ele>627.0</ele><time>2026-05-03T08:14:48.077Z</time></trkpt><trkpt lat="44.747497" lon="9.0767741"><ele>627.0</ele><time>2026-05-03T08:14:49.078Z</time></trkpt><trkpt lat="44.7474919" lon="9.0768746"><ele>627.0</ele><time>2026-05-03T08:14:50.078Z</time></trkpt><trkpt lat="44.7474945" lon="9.0769665"><ele>627.0</ele><time>2026-05-03T08:14:51.077Z</time></trkpt><trkpt lat="44.7475184" lon="9.0771383"><ele>627.2</ele><time>2026-05-03T08:14:53.077Z</time></trkpt><trkpt lat="44.7475801" lon="9.0772643"><ele>627.4000000000001</ele><time>2026-05-03T08:14:55.077Z</time></trkpt><trkpt lat="44.7476403" lon="9.0773802"><ele>627.5999999999999</ele><time>2026-05-03T08:14:57.077Z</time></trkpt><trkpt lat="44.7476769" lon="9.077459"><ele>627.8</ele><time>2026-05-03T08:14:59.078Z</time></trkpt><trkpt lat="44.7477194" lon="9.0775538"><ele>628.0</ele><time>2026-05-03T08:15:01.077Z</time></trkpt><trkpt lat="44.7477777" lon="9.0776725"><ele>628.6666666666667</ele><time>2026-05-03T08:15:03.075Z</time></trkpt><trkpt lat="44.747834" lon="9.0778197"><ele>629.3333333333334</ele><time>2026-05-03T08:15:05.078Z</time></trkpt><trkpt lat="44.7478642" lon="9.077904"><ele>630.0</ele><time>2026-05-03T08:15:06.078Z</time></trkpt><trkpt lat="44.7479011" lon="9.0779984"><ele>630.6666666666666</ele><time>2026-05-03T08:15:07.076Z</time></trkpt><trkpt lat="44.7479361" lon="9.0780869"><ele>631.3333333333333</ele><time>2026-05-03T08:15:08.077Z</time></trkpt><trkpt lat="44.7479827" lon="9.0781677"><ele>632.0</ele><time>2026-05-03T08:15:09.078Z</time></trkpt><trkpt lat="44.7480409" lon="9.0782475"><ele>633.6666666666666</ele><time>2026-05-03T08:15:10.077Z</time></trkpt><trkpt lat="44.7480927" lon="9.0783279"><ele>635.3333333333333</ele><time>2026-05-03T08:15:11.078Z</time></trkpt><trkpt lat="44.7481293" lon="9.0784044"><ele>637.0</ele><time>2026-05-03T08:15:12.077Z</time></trkpt><trkpt lat="44.7481709" lon="9.0785616"><ele>638.6666666666666</ele><time>2026-05-03T08:15:14.076Z</time></trkpt><trkpt lat="44.7481818" lon="9.0786602"><ele>640.3333333333334</ele><time>2026-05-03T08:15:15.077Z</time></trkpt><trkpt lat="44.7481902" lon="9.0787607"><ele>642.0</ele><time>2026-05-03T08:15:16.077Z</time></trkpt><trkpt lat="44.7482107" lon="9.0788536"><ele>642.0</ele><time>2026-05-03T08:15:17.077Z</time></trkpt><trkpt lat="44.7482327" lon="9.0789486"><ele>642.0</ele><time>2026-05-03T08:15:18.076Z</time></trkpt><trkpt lat="44.7483113" lon="9.0790939"><ele>642.0</ele><time>2026-05-03T08:15:20.076Z</time></trkpt><trkpt lat="44.7483648" lon="9.0791407"><ele>642.0</ele><time>2026-05-03T08:15:21.077Z</time></trkpt><trkpt lat="44.7484238" lon="9.0791989"><ele>642.0</ele><time>2026-05-03T08:15:22.077Z</time></trkpt><trkpt lat="44.7484759" lon="9.0792552"><ele>642.0</ele><time>2026-05-03T08:15:23.077Z</time></trkpt><trkpt lat="44.7485288" lon="9.0793261"><ele>643.0</ele><time>2026-05-03T08:15:24.078Z</time></trkpt><trkpt lat="44.7485675" lon="9.0794077"><ele>644.0</ele><time>2026-05-03T08:15:25.076Z</time></trkpt><trkpt lat="44.7486184" lon="9.0795488"><ele>645.0</ele><time>2026-05-03T08:15:27.077Z</time></trkpt><trkpt lat="44.7486637" lon="9.0797165"><ele>646.0</ele><time>2026-05-03T08:15:29.076Z</time></trkpt><trkpt lat="44.7486989" lon="9.0798627"><ele>647.0</ele><time>2026-05-03T08:15:31.077Z</time></trkpt><trkpt lat="44.7486899" lon="9.0800348"><ele>649.5714285714286</ele><time>2026-05-03T08:15:33.077Z</time></trkpt><trkpt lat="44.7486888" lon="9.0801273"><ele>652.1428571428571</ele><time>2026-05-03T08:15:34.077Z</time></trkpt><trkpt lat="44.7487103" lon="9.0802118"><ele>654.7142857142858</ele><time>2026-05-03T08:15:35.078Z</time></trkpt><trkpt lat="44.7487372" lon="9.0802976"><ele>657.2857142857142</ele><time>2026-05-03T08:15:36.078Z</time></trkpt><trkpt lat="44.748765" lon="9.080391"><ele>659.8571428571429</ele><time>2026-05-03T08:15:37.077Z</time></trkpt><trkpt lat="44.7487916" lon="9.0804758"><ele>662.4285714285714</ele><time>2026-05-03T08:15:38.077Z</time></trkpt><trkpt lat="44.7488224" lon="9.0805598"><ele>665.0</ele><time>2026-05-03T08:15:39.078Z</time></trkpt><trkpt lat="44.7488524" lon="9.0806593"><ele>665.0</ele><time>2026-05-03T08:15:40.078Z</time></trkpt><trkpt lat="44.7488787" lon="9.0807536"><ele>665.0</ele><time>2026-05-03T08:15:41.077Z</time></trkpt><trkpt lat="44.7488908" lon="9.0809105"><ele>665.0</ele><time>2026-05-03T08:15:43.076Z</time></trkpt><trkpt lat="44.7488524" lon="9.0810644"><ele>665.0</ele><time>2026-05-03T08:15:45.077Z</time></trkpt><trkpt lat="44.7488223" lon="9.0812349"><ele>665.0</ele><time>2026-05-03T08:15:47.078Z</time></trkpt><trkpt lat="44.7488053" lon="9.081342"><ele>667.0</ele><time>2026-05-03T08:15:48.076Z</time></trkpt><trkpt lat="44.7487951" lon="9.0814733"><ele>669.0</ele><time>2026-05-03T08:15:49.076Z</time></trkpt><trkpt lat="44.7488126" lon="9.0816358"><ele>671.0</ele><time>2026-05-03T08:15:51.078Z</time></trkpt><trkpt lat="44.7488478" lon="9.081813"><ele>673.0</ele><time>2026-05-03T08:15:53.077Z</time></trkpt><trkpt lat="44.7488552" lon="9.081932"><ele>675.0</ele><time>2026-05-03T08:15:54.076Z</time></trkpt><trkpt lat="44.7488678" lon="9.0820547"><ele>675.1666666666666</ele><time>2026-05-03T08:15:55.077Z</time></trkpt><trkpt lat="44.7488782" lon="9.082154"><ele>675.3333333333334</ele><time>2026-05-03T08:15:56.078Z</time></trkpt><trkpt lat="44.7489059" lon="9.0822451"><ele>675.5</ele><time>2026-05-03T08:15:57.077Z</time></trkpt><trkpt lat="44.748933" lon="9.0823384"><ele>675.6666666666667</ele><time>2026-05-03T08:15:58.077Z</time></trkpt><trkpt lat="44.7489825" lon="9.0824386"><ele>675.8333333333334</ele><time>2026-05-03T08:15:59.078Z</time></trkpt><trkpt lat="44.7490333" lon="9.0825506"><ele>676.0</ele><time>2026-05-03T08:16:00.077Z</time></trkpt><trkpt lat="44.7490788" lon="9.0826544"><ele>676.0</ele><time>2026-05-03T08:16:01.076Z</time></trkpt><trkpt lat="44.7491167" lon="9.0827495"><ele>676.0</ele><time>2026-05-03T08:16:02.077Z</time></trkpt><trkpt lat="44.7491437" lon="9.0829223"><ele>676.0</ele><time>2026-05-03T08:16:04.077Z</time></trkpt><trkpt lat="44.7491353" lon="9.0830269"><ele>676.0</ele><time>2026-05-03T08:16:05.078Z</time></trkpt><trkpt lat="44.7491297" lon="9.0831242"><ele>676.0</ele><time>2026-05-03T08:16:06.077Z</time></trkpt><trkpt lat="44.7491493" lon="9.0832153"><ele>676.0</ele><time>2026-05-03T08:16:07.077Z</time></trkpt><trkpt lat="44.7491935" lon="9.0833175"><ele>676.5</ele><time>2026-05-03T08:16:08.077Z</time></trkpt><trkpt lat="44.7492241" lon="9.0833989"><ele>677.0</ele><time>2026-05-03T08:16:09.076Z</time></trkpt><trkpt lat="44.7492419" lon="9.0835117"><ele>677.5</ele><time>2026-05-03T08:16:10.077Z</time></trkpt><trkpt lat="44.7492413" lon="9.0836328"><ele>678.0</ele><time>2026-05-03T08:16:11.076Z</time></trkpt><trkpt lat="44.7492351" lon="9.0837376"><ele>678.5</ele><time>2026-05-03T08:16:12.076Z</time></trkpt><trkpt lat="44.749236" lon="9.0838506"><ele>679.0</ele><time>2026-05-03T08:16:13.076Z</time></trkpt><trkpt lat="44.7492387" lon="9.0839616"><ele>679.0</ele><time>2026-05-03T08:16:14.077Z</time></trkpt><trkpt lat="44.7492509" lon="9.0840638"><ele>679.0</ele><time>2026-05-03T08:16:15.078Z</time></trkpt><trkpt lat="44.74927" lon="9.0841691"><ele>679.0</ele><time>2026-05-03T08:16:16.077Z</time></trkpt><trkpt lat="44.7492944" lon="9.084271"><ele>679.0</ele><time>2026-05-03T08:16:17.076Z</time></trkpt><trkpt lat="44.7493028" lon="9.0843655"><ele>679.0</ele><time>2026-05-03T08:16:18.077Z</time></trkpt><trkpt lat="44.7492959" lon="9.0844654"><ele>679.0</ele><time>2026-05-03T08:16:19.077Z</time></trkpt><trkpt lat="44.7492801" lon="9.0845654"><ele>679.0</ele><time>2026-05-03T08:16:20.077Z</time></trkpt><trkpt lat="44.7492494" lon="9.0846566"><ele>680.4000000000001</ele><time>2026-05-03T08:16:21.077Z</time></trkpt><trkpt lat="44.7492206" lon="9.0847619"><ele>681.8</ele><time>2026-05-03T08:16:22.077Z</time></trkpt><trkpt lat="44.7491979" lon="9.0848603"><ele>683.2</ele><time>2026-05-03T08:16:23.077Z</time></trkpt><trkpt lat="44.749204" lon="9.0850346"><ele>684.5999999999999</ele><time>2026-05-03T08:16:25.077Z</time></trkpt><trkpt lat="44.7492054" lon="9.08513"><ele>686.0</ele><time>2026-05-03T08:16:26.076Z</time></trkpt><trkpt lat="44.7492046" lon="9.0852815"><ele>687.4</ele><time>2026-05-03T08:16:28.077Z</time></trkpt><trkpt lat="44.7492044" lon="9.0854468"><ele>688.8</ele><time>2026-05-03T08:16:30.077Z</time></trkpt><trkpt lat="44.7491788" lon="9.0856205"><ele>690.1999999999999</ele><time>2026-05-03T08:16:32.077Z</time></trkpt><trkpt lat="44.7491571" lon="9.0857275"><ele>691.5999999999999</ele><time>2026-05-03T08:16:33.078Z</time></trkpt><trkpt lat="44.7491431" lon="9.0858277"><ele>693.0</ele><time>2026-05-03T08:16:34.077Z</time></trkpt><trkpt lat="44.7491249" lon="9.085927"><ele>693.5714285714286</ele><time>2026-05-03T08:16:35.076Z</time></trkpt><trkpt lat="44.7491131" lon="9.0860212"><ele>694.1428571428571</ele><time>2026-05-03T08:16:36.076Z</time></trkpt><trkpt lat="44.7490993" lon="9.0861133"><ele>694.7142857142858</ele><time>2026-05-03T08:16:37.078Z</time></trkpt><trkpt lat="44.749108" lon="9.0862085"><ele>695.2857142857142</ele><time>2026-05-03T08:16:38.078Z</time></trkpt><trkpt lat="44.749104" lon="9.0863116"><ele>695.8571428571429</ele><time>2026-05-03T08:16:39.077Z</time></trkpt><trkpt lat="44.7491109" lon="9.0864232"><ele>696.4285714285714</ele><time>2026-05-03T08:16:40.076Z</time></trkpt><trkpt lat="44.7491172" lon="9.086532"><ele>697.0</ele><time>2026-05-03T08:16:41.076Z</time></trkpt><trkpt lat="44.7491212" lon="9.0866568"><ele>697.6666666666667</ele><time>2026-05-03T08:16:42.078Z</time></trkpt><trkpt lat="44.7491329" lon="9.0867834"><ele>698.3333333333334</ele><time>2026-05-03T08:16:43.076Z</time></trkpt><trkpt lat="44.7491521" lon="9.0869141"><ele>699.0</ele><time>2026-05-03T08:16:44.077Z</time></trkpt><trkpt lat="44.7491666" lon="9.0870275"><ele>699.6666666666666</ele><time>2026-05-03T08:16:45.078Z</time></trkpt><trkpt lat="44.7491754" lon="9.0871311"><ele>700.3333333333333</ele><time>2026-05-03T08:16:46.077Z</time></trkpt><trkpt lat="44.7491622" lon="9.0872337"><ele>701.0</ele><time>2026-05-03T08:16:47.076Z</time></trkpt><trkpt lat="44.7491302" lon="9.0873387"><ele>701.5999999999999</ele><time>2026-05-03T08:16:48.077Z</time></trkpt><trkpt lat="44.7491036" lon="9.0874568"><ele>702.2</ele><time>2026-05-03T08:16:49.076Z</time></trkpt><trkpt lat="44.7490831" lon="9.0875852"><ele>702.8</ele><time>2026-05-03T08:16:50.076Z</time></trkpt><trkpt lat="44.7490661" lon="9.0877265"><ele>703.4000000000001</ele><time>2026-05-03T08:16:51.077Z</time></trkpt><trkpt lat="44.7490483" lon="9.0878846"><ele>704.0</ele><time>2026-05-03T08:16:52.078Z</time></trkpt><trkpt lat="44.7490436" lon="9.0880168"><ele>704.0</ele><time>2026-05-03T08:16:53.078Z</time></trkpt><trkpt lat="44.7490373" lon="9.0881424"><ele>704.0</ele><time>2026-05-03T08:16:54.076Z</time></trkpt><trkpt lat="44.7490232" lon="9.088274"><ele>704.0</ele><time>2026-05-03T08:16:55.078Z</time></trkpt><trkpt lat="44.7490043" lon="9.0883998"><ele>704.0</ele><time>2026-05-03T08:16:56.076Z</time></trkpt><trkpt lat="44.7489939" lon="9.0884956"><ele>704.0</ele><time>2026-05-03T08:16:57.077Z</time></trkpt><trkpt lat="44.7489787" lon="9.0885951"><ele>704.0</ele><time>2026-05-03T08:16:58.077Z</time></trkpt><trkpt lat="44.7489617" lon="9.0886908"><ele>704.0</ele><time>2026-05-03T08:16:59.076Z</time></trkpt><trkpt lat="44.7489425" lon="9.0887917"><ele>704.0</ele><time>2026-05-03T08:17:00.077Z</time></trkpt><trkpt lat="44.7489266" lon="9.0888811"><ele>704.0</ele><time>2026-05-03T08:17:01.077Z</time></trkpt><trkpt lat="44.7488975" lon="9.088976"><ele>704.0</ele><time>2026-05-03T08:17:02.077Z</time></trkpt><trkpt lat="44.748862" lon="9.0890704"><ele>704.0</ele><time>2026-05-03T08:17:03.077Z</time></trkpt><trkpt lat="44.7488231" lon="9.089167"><ele>704.0</ele><time>2026-05-03T08:17:04.078Z</time></trkpt><trkpt lat="44.7487809" lon="9.0892548"><ele>704.0</ele><time>2026-05-03T08:17:05.077Z</time></trkpt><trkpt lat="44.748728" lon="9.0893242"><ele>704.0</ele><time>2026-05-03T08:17:06.078Z</time></trkpt><trkpt lat="44.748673" lon="9.0894001"><ele>704.0</ele><time>2026-05-03T08:17:07.077Z</time></trkpt><trkpt lat="44.7486116" lon="9.0894744"><ele>704.0</ele><time>2026-05-03T08:17:08.076Z</time></trkpt><trkpt lat="44.7485453" lon="9.0895557"><ele>704.0</ele><time>2026-05-03T08:17:09.078Z</time></trkpt><trkpt lat="44.7484597" lon="9.089647"><ele>704.0</ele><time>2026-05-03T08:17:10.077Z</time></trkpt><trkpt lat="44.7483953" lon="9.089724"><ele>704.0</ele><time>2026-05-03T08:17:11.076Z</time></trkpt><trkpt lat="44.7483275" lon="9.0897786"><ele>704.4000000000001</ele><time>2026-05-03T08:17:12.078Z</time></trkpt><trkpt lat="44.7482559" lon="9.0898476"><ele>704.8</ele><time>2026-05-03T08:17:13.076Z</time></trkpt><trkpt lat="44.7481775" lon="9.0899154"><ele>705.2</ele><time>2026-05-03T08:17:14.077Z</time></trkpt><trkpt lat="44.7481159" lon="9.0899834"><ele>705.5999999999999</ele><time>2026-05-03T08:17:15.077Z</time></trkpt><trkpt lat="44.7480171" lon="9.0900938"><ele>706.0</ele><time>2026-05-03T08:17:17.077Z</time></trkpt><trkpt lat="44.7479382" lon="9.0902173"><ele>705.4</ele><time>2026-05-03T08:17:19.078Z</time></trkpt><trkpt lat="44.747862" lon="9.0903534"><ele>704.8</ele><time>2026-05-03T08:17:21.077Z</time></trkpt><trkpt lat="44.7478255" lon="9.0904289"><ele>704.1999999999999</ele><time>2026-05-03T08:17:22.078Z</time></trkpt><trkpt lat="44.7477466" lon="9.090584"><ele>703.5999999999999</ele><time>2026-05-03T08:17:24.078Z</time></trkpt><trkpt lat="44.747696" lon="9.0906434"><ele>703.0</ele><time>2026-05-03T08:17:25.078Z</time></trkpt><trkpt lat="44.7476045" lon="9.0907341"><ele>705.2</ele><time>2026-05-03T08:17:27.076Z</time></trkpt><trkpt lat="44.7475365" lon="9.0908469"><ele>707.4</ele><time>2026-05-03T08:17:29.078Z</time></trkpt><trkpt lat="44.747478" lon="9.0909729"><ele>709.6</ele><time>2026-05-03T08:17:31.076Z</time></trkpt><trkpt lat="44.7473825" lon="9.0910829"><ele>711.8000000000001</ele><time>2026-05-03T08:17:33.077Z</time></trkpt><trkpt lat="44.7473299" lon="9.0911334"><ele>714.0</ele><time>2026-05-03T08:17:34.076Z</time></trkpt><trkpt lat="44.7472404" lon="9.0912376"><ele>714.0</ele><time>2026-05-03T08:17:36.077Z</time></trkpt><trkpt lat="44.7471605" lon="9.0913268"><ele>714.0</ele><time>2026-05-03T08:17:38.077Z</time></trkpt><trkpt lat="44.7470924" lon="9.0913628"><ele>714.0</ele><time>2026-05-03T08:17:39.077Z</time></trkpt><trkpt lat="44.7470254" lon="9.0913764"><ele>714.0</ele><time>2026-05-03T08:17:40.076Z</time></trkpt><trkpt lat="44.7469415" lon="9.0914066"><ele>714.0</ele><time>2026-05-03T08:17:41.077Z</time></trkpt><trkpt lat="44.7468662" lon="9.0914512"><ele>714.0</ele><time>2026-05-03T08:17:42.077Z</time></trkpt><trkpt lat="44.7467877" lon="9.0915108"><ele>712.3333333333334</ele><time>2026-05-03T08:17:43.077Z</time></trkpt><trkpt lat="44.7467119" lon="9.0915442"><ele>710.6666666666666</ele><time>2026-05-03T08:17:44.076Z</time></trkpt><trkpt lat="44.7466347" lon="9.0915742"><ele>709.0</ele><time>2026-05-03T08:17:45.077Z</time></trkpt><trkpt lat="44.7465517" lon="9.0916204"><ele>707.3333333333333</ele><time>2026-05-03T08:17:46.076Z</time></trkpt><trkpt lat="44.74647" lon="9.0916591"><ele>705.6666666666666</ele><time>2026-05-03T08:17:47.077Z</time></trkpt><trkpt lat="44.7463967" lon="9.0916777"><ele>704.0</ele><time>2026-05-03T08:17:48.076Z</time></trkpt><trkpt lat="44.7463254" lon="9.0916883"><ele>708.2</ele><time>2026-05-03T08:17:49.077Z</time></trkpt><trkpt lat="44.7462626" lon="9.0917"><ele>712.4000000000001</ele><time>2026-05-03T08:17:50.077Z</time></trkpt><trkpt lat="44.7461861" lon="9.0917495"><ele>716.6</ele><time>2026-05-03T08:17:52.076Z</time></trkpt><trkpt lat="44.7461326" lon="9.0918903"><ele>720.8</ele><time>2026-05-03T08:17:54.077Z</time></trkpt><trkpt lat="44.7460808" lon="9.0920791"><ele>725.0</ele><time>2026-05-03T08:17:56.077Z</time></trkpt><trkpt lat="44.7460511" lon="9.0922121"><ele>724.3333333333333</ele><time>2026-05-03T08:17:57.078Z</time></trkpt><trkpt lat="44.7460279" lon="9.0923476"><ele>723.6666666666666</ele><time>2026-05-03T08:17:58.078Z</time></trkpt><trkpt lat="44.7460018" lon="9.0924581"><ele>723.0</ele><time>2026-05-03T08:17:59.078Z</time></trkpt><trkpt lat="44.7459724" lon="9.0925663"><ele>722.3333333333334</ele><time>2026-05-03T08:18:00.077Z</time></trkpt><trkpt lat="44.7459335" lon="9.0926612"><ele>721.6666666666667</ele><time>2026-05-03T08:18:01.078Z</time></trkpt><trkpt lat="44.7458945" lon="9.0927576"><ele>721.0</ele><time>2026-05-03T08:18:02.078Z</time></trkpt><trkpt lat="44.7458524" lon="9.0928413"><ele>722.1428571428571</ele><time>2026-05-03T08:18:03.077Z</time></trkpt><trkpt lat="44.7458033" lon="9.0929213"><ele>723.2857142857142</ele><time>2026-05-03T08:18:04.077Z</time></trkpt><trkpt lat="44.745754" lon="9.0930027"><ele>724.4285714285714</ele><time>2026-05-03T08:18:05.078Z</time></trkpt><trkpt lat="44.7457073" lon="9.0930743"><ele>725.5714285714286</ele><time>2026-05-03T08:18:06.076Z</time></trkpt><trkpt lat="44.7456616" lon="9.0931407"><ele>726.7142857142857</ele><time>2026-05-03T08:18:07.077Z</time></trkpt><trkpt lat="44.7456109" lon="9.0932109"><ele>727.8571428571429</ele><time>2026-05-03T08:18:08.077Z</time></trkpt><trkpt lat="44.7455448" lon="9.0932825"><ele>729.0</ele><time>2026-05-03T08:18:09.076Z</time></trkpt><trkpt lat="44.7454703" lon="9.0933439"><ele>729.8000000000001</ele><time>2026-05-03T08:18:10.076Z</time></trkpt><trkpt lat="44.7453668" lon="9.0933945"><ele>730.6</ele><time>2026-05-03T08:18:11.077Z</time></trkpt><trkpt lat="44.745251" lon="9.0934498"><ele>731.4</ele><time>2026-05-03T08:18:12.077Z</time></trkpt><trkpt lat="44.7451436" lon="9.0935047"><ele>732.2</ele><time>2026-05-03T08:18:13.076Z</time></trkpt><trkpt lat="44.7450497" lon="9.0935386"><ele>733.0</ele><time>2026-05-03T08:18:14.076Z</time></trkpt><trkpt lat="44.7449656" lon="9.0935588"><ele>733.0</ele><time>2026-05-03T08:18:15.077Z</time></trkpt><trkpt lat="44.7448823" lon="9.0935707"><ele>733.0</ele><time>2026-05-03T08:18:16.077Z</time></trkpt><trkpt lat="44.7448067" lon="9.0935631"><ele>733.0</ele><time>2026-05-03T08:18:17.076Z</time></trkpt><trkpt lat="44.7447158" lon="9.0936081"><ele>733.0</ele><time>2026-05-03T08:18:20.077Z</time></trkpt><trkpt lat="44.7446096" lon="9.0936284"><ele>733.0</ele><time>2026-05-03T08:18:22.078Z</time></trkpt><trkpt lat="44.7445358" lon="9.0936174"><ele>733.0</ele><time>2026-05-03T08:18:23.079Z</time></trkpt><trkpt lat="44.7444504" lon="9.0935958"><ele>732.1666666666667</ele><time>2026-05-03T08:18:24.076Z</time></trkpt><trkpt lat="44.7443596" lon="9.0935681"><ele>731.3333333333334</ele><time>2026-05-03T08:18:25.077Z</time></trkpt><trkpt lat="44.7442639" lon="9.0935337"><ele>730.5</ele><time>2026-05-03T08:18:26.078Z</time></trkpt><trkpt lat="44.7441759" lon="9.0935085"><ele>729.6666666666666</ele><time>2026-05-03T08:18:27.077Z</time></trkpt><trkpt lat="44.7440981" lon="9.0934907"><ele>728.8333333333333</ele><time>2026-05-03T08:18:28.077Z</time></trkpt><trkpt lat="44.7440261" lon="9.0934893"><ele>728.0</ele><time>2026-05-03T08:18:29.077Z</time></trkpt><trkpt lat="44.7439557" lon="9.0935241"><ele>728.0</ele><time>2026-05-03T08:18:30.078Z</time></trkpt><trkpt lat="44.7438801" lon="9.093577"><ele>728.0</ele><time>2026-05-03T08:18:31.076Z</time></trkpt><trkpt lat="44.7438113" lon="9.0936467"><ele>728.0</ele><time>2026-05-03T08:18:32.076Z</time></trkpt><trkpt lat="44.7437228" lon="9.0937306"><ele>728.0</ele><time>2026-05-03T08:18:33.077Z</time></trkpt><trkpt lat="44.7436277" lon="9.0938113"><ele>728.0</ele><time>2026-05-03T08:18:34.077Z</time></trkpt><trkpt lat="44.7435329" lon="9.0938745"><ele>725.2</ele><time>2026-05-03T08:18:35.078Z</time></trkpt><trkpt lat="44.7434393" lon="9.0939256"><ele>722.4</ele><time>2026-05-03T08:18:36.077Z</time></trkpt><trkpt lat="44.7433478" lon="9.0939692"><ele>719.6</ele><time>2026-05-03T08:18:37.077Z</time></trkpt><trkpt lat="44.7432567" lon="9.0940014"><ele>716.8000000000001</ele><time>2026-05-03T08:18:38.077Z</time></trkpt><trkpt lat="44.7431689" lon="9.0940358"><ele>714.0</ele><time>2026-05-03T08:18:39.076Z</time></trkpt><trkpt lat="44.7430715" lon="9.094064"><ele>715.2</ele><time>2026-05-03T08:18:40.077Z</time></trkpt><trkpt lat="44.7429698" lon="9.0941031"><ele>716.4000000000001</ele><time>2026-05-03T08:18:41.076Z</time></trkpt><trkpt lat="44.7428739" lon="9.0941408"><ele>717.6</ele><time>2026-05-03T08:18:42.078Z</time></trkpt><trkpt lat="44.7427797" lon="9.0941789"><ele>718.8</ele><time>2026-05-03T08:18:43.076Z</time></trkpt><trkpt lat="44.7426903" lon="9.0942034"><ele>720.0</ele><time>2026-05-03T08:18:44.078Z</time></trkpt><trkpt lat="44.7426058" lon="9.0942154"><ele>720.0</ele><time>2026-05-03T08:18:45.078Z</time></trkpt><trkpt lat="44.7425261" lon="9.0942102"><ele>720.0</ele><time>2026-05-03T08:18:46.077Z</time></trkpt><trkpt lat="44.7424533" lon="9.094223"><ele>720.0</ele><time>2026-05-03T08:18:47.077Z</time></trkpt><trkpt lat="44.7423802" lon="9.0942423"><ele>720.0</ele><time>2026-05-03T08:18:48.078Z</time></trkpt><trkpt lat="44.7423121" lon="9.0942764"><ele>720.0</ele><time>2026-05-03T08:18:49.077Z</time></trkpt><trkpt lat="44.7422429" lon="9.0943016"><ele>720.0</ele><time>2026-05-03T08:18:50.077Z</time></trkpt><trkpt lat="44.742127" lon="9.0943187"><ele>720.0</ele><time>2026-05-03T08:18:52.076Z</time></trkpt><trkpt lat="44.7420621" lon="9.0942952"><ele>720.0</ele><time>2026-05-03T08:18:53.078Z</time></trkpt><trkpt lat="44.7419717" lon="9.0942493"><ele>720.0</ele><time>2026-05-03T08:18:54.078Z</time></trkpt><trkpt lat="44.7418795" lon="9.0942092"><ele>720.0</ele><time>2026-05-03T08:18:55.077Z</time></trkpt><trkpt lat="44.7417759" lon="9.0941723"><ele>720.0</ele><time>2026-05-03T08:18:56.077Z</time></trkpt><trkpt lat="44.7416858" lon="9.0941262"><ele>718.6666666666666</ele><time>2026-05-03T08:18:57.076Z</time></trkpt><trkpt lat="44.7415993" lon="9.0940839"><ele>717.3333333333334</ele><time>2026-05-03T08:18:58.077Z</time></trkpt><trkpt lat="44.7415319" lon="9.0940312"><ele>716.0</ele><time>2026-05-03T08:18:59.078Z</time></trkpt><trkpt lat="44.7414752" lon="9.0939865"><ele>714.6666666666667</ele><time>2026-05-03T08:19:00.076Z</time></trkpt><trkpt lat="44.7413577" lon="9.0939619"><ele>713.3333333333334</ele><time>2026-05-03T08:19:02.078Z</time></trkpt><trkpt lat="44.7412892" lon="9.0939932"><ele>712.0</ele><time>2026-05-03T08:19:03.077Z</time></trkpt><trkpt lat="44.7412091" lon="9.094043"><ele>712.0</ele><time>2026-05-03T08:19:04.077Z</time></trkpt><trkpt lat="44.7411282" lon="9.0940699"><ele>712.0</ele><time>2026-05-03T08:19:05.077Z</time></trkpt><trkpt lat="44.741049" lon="9.0941043"><ele>712.0</ele><time>2026-05-03T08:19:06.077Z</time></trkpt><trkpt lat="44.7409761" lon="9.0941344"><ele>712.0</ele><time>2026-05-03T08:19:07.077Z</time></trkpt><trkpt lat="44.7409054" lon="9.0941631"><ele>712.0</ele><time>2026-05-03T08:19:08.077Z</time></trkpt><trkpt lat="44.7408374" lon="9.0941859"><ele>712.0</ele><time>2026-05-03T08:19:09.077Z</time></trkpt><trkpt lat="44.7407261" lon="9.0942"><ele>714.2</ele><time>2026-05-03T08:19:11.078Z</time></trkpt><trkpt lat="44.7406067" lon="9.0941916"><ele>716.4000000000001</ele><time>2026-05-03T08:19:13.077Z</time></trkpt><trkpt lat="44.7405068" lon="9.0941891"><ele>718.5999999999999</ele><time>2026-05-03T08:19:15.078Z</time></trkpt><trkpt lat="44.7404189" lon="9.0941943"><ele>720.8</ele><time>2026-05-03T08:19:17.076Z</time></trkpt><trkpt lat="44.7403505" lon="9.0942721"><ele>723.0</ele><time>2026-05-03T08:19:20.076Z</time></trkpt><trkpt lat="44.7402834" lon="9.094263"><ele>722.5</ele><time>2026-05-03T08:20:15.077Z</time></trkpt><trkpt lat="44.7401959" lon="9.0942174"><ele>722.0</ele><time>2026-05-03T08:33:27.077Z</time></trkpt><trkpt lat="44.7401167" lon="9.0941939"><ele>721.5</ele><time>2026-05-03T08:33:30.077Z</time></trkpt><trkpt lat="44.7400385" lon="9.0942348"><ele>721.0</ele><time>2026-05-03T08:33:32.077Z</time></trkpt><trkpt lat="44.7399698" lon="9.0942752"><ele>720.5</ele><time>2026-05-03T08:33:34.076Z</time></trkpt><trkpt lat="44.7398908" lon="9.0943453"><ele>720.0</ele><time>2026-05-03T08:33:36.076Z</time></trkpt><trkpt lat="44.7398176" lon="9.0944178"><ele>720.0</ele><time>2026-05-03T08:33:38.076Z</time></trkpt><trkpt lat="44.739742" lon="9.0945181"><ele>720.0</ele><time>2026-05-03T08:33:40.077Z</time></trkpt><trkpt lat="44.739661" lon="9.0946118"><ele>720.0</ele><time>2026-05-03T08:33:42.077Z</time></trkpt><trkpt lat="44.7395832" lon="9.0946965"><ele>720.0</ele><time>2026-05-03T08:33:44.077Z</time></trkpt><trkpt lat="44.7394896" lon="9.0947417"><ele>720.0</ele><time>2026-05-03T08:33:46.077Z</time></trkpt><trkpt lat="44.7394104" lon="9.0947627"><ele>719.3333333333334</ele><time>2026-05-03T08:33:48.076Z</time></trkpt><trkpt lat="44.739312" lon="9.0948075"><ele>718.6666666666666</ele><time>2026-05-03T08:33:51.076Z</time></trkpt><trkpt lat="44.739254" lon="9.0948802"><ele>718.0</ele><time>2026-05-03T08:33:53.076Z</time></trkpt><trkpt lat="44.7392198" lon="9.0950125"><ele>717.3333333333333</ele><time>2026-05-03T08:33:55.078Z</time></trkpt><trkpt lat="44.7392106" lon="9.0951063"><ele>716.6666666666666</ele><time>2026-05-03T08:33:57.076Z</time></trkpt><trkpt lat="44.7392275" lon="9.0952207"><ele>716.0</ele><time>2026-05-03T08:34:00.076Z</time></trkpt><trkpt lat="44.7392961" lon="9.0952916"><ele>716.0</ele><time>2026-05-03T08:34:02.076Z</time></trkpt><trkpt lat="44.7393746" lon="9.0953327"><ele>716.0</ele><time>2026-05-03T08:34:04.078Z</time></trkpt><trkpt lat="44.739463" lon="9.0953573"><ele>716.0</ele><time>2026-05-03T08:34:06.077Z</time></trkpt><trkpt lat="44.7395387" lon="9.0954141"><ele>716.0</ele><time>2026-05-03T08:34:08.077Z</time></trkpt><trkpt lat="44.7395992" lon="9.0955043"><ele>716.0</ele><time>2026-05-03T08:34:10.076Z</time></trkpt><trkpt lat="44.7396567" lon="9.0955859"><ele>716.0</ele><time>2026-05-03T08:34:12.076Z</time></trkpt><trkpt lat="44.7397126" lon="9.0956726"><ele>722.1666666666666</ele><time>2026-05-03T08:34:14.076Z</time></trkpt><trkpt lat="44.7397499" lon="9.0957791"><ele>728.3333333333333</ele><time>2026-05-03T08:34:16.077Z</time></trkpt><trkpt lat="44.7397972" lon="9.0958522"><ele>734.5</ele><time>2026-05-03T08:34:18.076Z</time></trkpt><trkpt lat="44.7398648" lon="9.0959125"><ele>740.6666666666666</ele><time>2026-05-03T08:34:20.071Z</time></trkpt><trkpt lat="44.7398764" lon="9.0960257"><ele>746.8333333333334</ele><time>2026-05-03T08:34:22.075Z</time></trkpt><trkpt lat="44.7398228" lon="9.0960965"><ele>753.0</ele><time>2026-05-03T08:34:23.076Z</time></trkpt><trkpt lat="44.7397694" lon="9.0961656"><ele>753.0</ele><time>2026-05-03T08:34:24.075Z</time></trkpt><trkpt lat="44.7396906" lon="9.096287"><ele>753.0</ele><time>2026-05-03T08:34:26.077Z</time></trkpt><trkpt lat="44.7396483" lon="9.0964105"><ele>753.0</ele><time>2026-05-03T08:34:28.076Z</time></trkpt><trkpt lat="44.7396202" lon="9.0965079"><ele>753.0</ele><time>2026-05-03T08:34:30.077Z</time></trkpt><trkpt lat="44.7395581" lon="9.0966039"><ele>753.0</ele><time>2026-05-03T08:34:32.077Z</time></trkpt><trkpt lat="44.7395145" lon="9.0967062"><ele>752.2</ele><time>2026-05-03T08:34:34.076Z</time></trkpt><trkpt lat="44.7394705" lon="9.0968244"><ele>751.4</ele><time>2026-05-03T08:34:36.076Z</time></trkpt><trkpt lat="44.7394325" lon="9.0969811"><ele>750.6</ele><time>2026-05-03T08:34:38.076Z</time></trkpt><trkpt lat="44.7394117" lon="9.0970698"><ele>749.8000000000001</ele><time>2026-05-03T08:34:39.077Z</time></trkpt><trkpt lat="44.739366" lon="9.097184"><ele>749.0</ele><time>2026-05-03T08:34:41.076Z</time></trkpt><trkpt lat="44.7392989" lon="9.097269"><ele>749.0</ele><time>2026-05-03T08:34:43.077Z</time></trkpt><trkpt lat="44.7392299" lon="9.0973998"><ele>749.0</ele><time>2026-05-03T08:34:45.077Z</time></trkpt><trkpt lat="44.7391613" lon="9.0975371"><ele>749.0</ele><time>2026-05-03T08:34:47.076Z</time></trkpt><trkpt lat="44.7391151" lon="9.0976221"><ele>749.0</ele><time>2026-05-03T08:34:48.077Z</time></trkpt><trkpt lat="44.7390704" lon="9.0976979"><ele>749.0</ele><time>2026-05-03T08:34:49.078Z</time></trkpt><trkpt lat="44.7390358" lon="9.0977805"><ele>749.0</ele><time>2026-05-03T08:34:50.075Z</time></trkpt><trkpt lat="44.7389917" lon="9.0978492"><ele>753.2</ele><time>2026-05-03T08:34:51.077Z</time></trkpt><trkpt lat="44.7389219" lon="9.0979615"><ele>757.4000000000001</ele><time>2026-05-03T08:34:53.078Z</time></trkpt><trkpt lat="44.73887" lon="9.0981222"><ele>761.6</ele><time>2026-05-03T08:34:55.076Z</time></trkpt><trkpt lat="44.7388327" lon="9.0982264"><ele>765.8</ele><time>2026-05-03T08:34:56.077Z</time></trkpt><trkpt lat="44.7387901" lon="9.0983384"><ele>770.0</ele><time>2026-05-03T08:34:57.077Z</time></trkpt><trkpt lat="44.7387533" lon="9.0984427"><ele>773.5000000000001</ele><time>2026-05-03T08:34:58.077Z</time></trkpt><trkpt lat="44.7387279" lon="9.0985371"><ele>777.0</ele><time>2026-05-03T08:34:59.077Z</time></trkpt><trkpt lat="44.7387086" lon="9.0986437"><ele>780.5</ele><time>2026-05-03T08:35:00.075Z</time></trkpt><trkpt lat="44.7386889" lon="9.0987638"><ele>784.0</ele><time>2026-05-03T08:35:01.076Z</time></trkpt><trkpt lat="44.7386694" lon="9.0988693"><ele>787.5000000000001</ele><time>2026-05-03T08:35:02.076Z</time></trkpt><trkpt lat="44.7386555" lon="9.0989706"><ele>791.0</ele><time>2026-05-03T08:35:03.077Z</time></trkpt><trkpt lat="44.7386397" lon="9.0990713"><ele>793.8333333333334</ele><time>2026-05-03T08:35:04.075Z</time></trkpt><trkpt lat="44.73863" lon="9.0991721"><ele>796.6666666666667</ele><time>2026-05-03T08:35:05.076Z</time></trkpt><trkpt lat="44.7386234" lon="9.099281"><ele>799.5</ele><time>2026-05-03T08:35:06.076Z</time></trkpt><trkpt lat="44.7386134" lon="9.0993976"><ele>802.3333333333333</ele><time>2026-05-03T08:35:07.076Z</time></trkpt><trkpt lat="44.7386061" lon="9.0995097"><ele>805.1666666666666</ele><time>2026-05-03T08:35:08.078Z</time></trkpt><trkpt lat="44.7386036" lon="9.0995999"><ele>808.0</ele><time>2026-05-03T08:35:09.076Z</time></trkpt><trkpt lat="44.7385718" lon="9.0997185"><ele>805.2</ele><time>2026-05-03T08:35:11.077Z</time></trkpt><trkpt lat="44.7384757" lon="9.099808"><ele>802.4</ele><time>2026-05-03T08:35:13.077Z</time></trkpt><trkpt lat="44.7384061" lon="9.0998273"><ele>799.6</ele><time>2026-05-03T08:35:14.077Z</time></trkpt><trkpt lat="44.7383292" lon="9.0998481"><ele>796.8000000000001</ele><time>2026-05-03T08:35:15.076Z</time></trkpt><trkpt lat="44.738228" lon="9.0999507"><ele>794.0</ele><time>2026-05-03T08:35:17.076Z</time></trkpt><trkpt lat="44.7381804" lon="9.1000144"><ele>794.0000000000001</ele><time>2026-05-03T08:35:18.075Z</time></trkpt><trkpt lat="44.7380837" lon="9.1001437"><ele>794.0</ele><time>2026-05-03T08:35:20.076Z</time></trkpt><trkpt lat="44.7380181" lon="9.1002152"><ele>794.0</ele><time>2026-05-03T08:35:21.076Z</time></trkpt><trkpt lat="44.737963" lon="9.1002807"><ele>794.0</ele><time>2026-05-03T08:35:22.076Z</time></trkpt><trkpt lat="44.7379178" lon="9.1003456"><ele>794.0000000000001</ele><time>2026-05-03T08:35:23.076Z</time></trkpt><trkpt lat="44.737897" lon="9.1004621"><ele>794.0</ele><time>2026-05-03T08:35:25.077Z</time></trkpt><trkpt lat="44.7378972" lon="9.1005535"><ele>794.0000000000001</ele><time>2026-05-03T08:35:26.076Z</time></trkpt><trkpt lat="44.7379037" lon="9.1006521"><ele>794.0</ele><time>2026-05-03T08:35:27.076Z</time></trkpt><trkpt lat="44.7379148" lon="9.1007655"><ele>794.0</ele><time>2026-05-03T08:35:28.075Z</time></trkpt><trkpt lat="44.7379239" lon="9.1008839"><ele>794.0</ele><time>2026-05-03T08:35:29.078Z</time></trkpt><trkpt lat="44.737932" lon="9.1009876"><ele>794.0000000000001</ele><time>2026-05-03T08:35:30.076Z</time></trkpt><trkpt lat="44.7379346" lon="9.1010825"><ele>794.0</ele><time>2026-05-03T08:35:31.077Z</time></trkpt><trkpt lat="44.7379218" lon="9.1012417"><ele>797.4000000000001</ele><time>2026-05-03T08:35:33.076Z</time></trkpt><trkpt lat="44.7378778" lon="9.1014174"><ele>800.8</ele><time>2026-05-03T08:35:35.077Z</time></trkpt><trkpt lat="44.737844" lon="9.1015109"><ele>804.2</ele><time>2026-05-03T08:35:36.076Z</time></trkpt><trkpt lat="44.7378034" lon="9.1016261"><ele>807.5999999999999</ele><time>2026-05-03T08:35:37.077Z</time></trkpt><trkpt lat="44.7377618" lon="9.1017344"><ele>811.0</ele><time>2026-05-03T08:35:38.077Z</time></trkpt><trkpt lat="44.7377293" lon="9.1018201"><ele>811.5999999999999</ele><time>2026-05-03T08:35:39.077Z</time></trkpt><trkpt lat="44.7376816" lon="9.1019596"><ele>812.2</ele><time>2026-05-03T08:35:41.077Z</time></trkpt><trkpt lat="44.7376556" lon="9.1021352"><ele>812.8</ele><time>2026-05-03T08:35:43.076Z</time></trkpt><trkpt lat="44.7376433" lon="9.1022393"><ele>813.4000000000001</ele><time>2026-05-03T08:35:44.076Z</time></trkpt><trkpt lat="44.7376319" lon="9.1023268"><ele>814.0</ele><time>2026-05-03T08:35:45.075Z</time></trkpt><trkpt lat="44.7376117" lon="9.1024466"><ele>813.9999999999999</ele><time>2026-05-03T08:35:47.077Z</time></trkpt><trkpt lat="44.7375605" lon="9.1024988"><ele>814.0</ele><time>2026-05-03T08:35:49.075Z</time></trkpt><trkpt lat="44.73745" lon="9.1025568"><ele>814.0</ele><time>2026-05-03T08:35:51.078Z</time></trkpt><trkpt lat="44.7373891" lon="9.1026045"><ele>814.0</ele><time>2026-05-03T08:35:52.075Z</time></trkpt><trkpt lat="44.7373433" lon="9.1026702"><ele>813.9999999999999</ele><time>2026-05-03T08:35:53.077Z</time></trkpt><trkpt lat="44.7373065" lon="9.102743"><ele>814.0</ele><time>2026-05-03T08:35:54.076Z</time></trkpt><trkpt lat="44.737277" lon="9.1028342"><ele>813.9999999999999</ele><time>2026-05-03T08:35:55.076Z</time></trkpt><trkpt lat="44.7372457" lon="9.102933"><ele>814.0</ele><time>2026-05-03T08:35:56.077Z</time></trkpt><trkpt lat="44.7372089" lon="9.1030327"><ele>814.0</ele><time>2026-05-03T08:35:57.077Z</time></trkpt><trkpt lat="44.7371763" lon="9.1031167"><ele>814.0</ele><time>2026-05-03T08:35:58.076Z</time></trkpt><trkpt lat="44.7371127" lon="9.1032455"><ele>813.9999999999999</ele><time>2026-05-03T08:36:00.077Z</time></trkpt><trkpt lat="44.7370543" lon="9.103361"><ele>814.0</ele><time>2026-05-03T08:36:02.077Z</time></trkpt><trkpt lat="44.7370366" lon="9.1034723"><ele>816.8333333333333</ele><time>2026-05-03T08:36:04.077Z</time></trkpt><trkpt lat="44.7370144" lon="9.1036014"><ele>819.6666666666666</ele><time>2026-05-03T08:36:06.075Z</time></trkpt><trkpt lat="44.737012" lon="9.1036905"><ele>822.5</ele><time>2026-05-03T08:36:08.076Z</time></trkpt><trkpt lat="44.736952" lon="9.1037597"><ele>825.3333333333333</ele><time>2026-05-03T08:36:11.076Z</time></trkpt><trkpt lat="44.7368827" lon="9.1037283"><ele>828.1666666666666</ele><time>2026-05-03T08:36:13.077Z</time></trkpt><trkpt lat="44.7368323" lon="9.1036367"><ele>831.0</ele><time>2026-05-03T08:36:14.077Z</time></trkpt><trkpt lat="44.7367785" lon="9.1035657"><ele>831.0</ele><time>2026-05-03T08:36:15.077Z</time></trkpt><trkpt lat="44.7367387" lon="9.1034863"><ele>831.0</ele><time>2026-05-03T08:36:16.077Z</time></trkpt><trkpt lat="44.7367097" lon="9.103404"><ele>831.0</ele><time>2026-05-03T08:36:17.076Z</time></trkpt><trkpt lat="44.7366276" lon="9.1032332"><ele>831.0</ele><time>2026-05-03T08:36:19.076Z</time></trkpt><trkpt lat="44.7365919" lon="9.1031601"><ele>831.0</ele><time>2026-05-03T08:36:20.077Z</time></trkpt><trkpt lat="44.7365406" lon="9.1030992"><ele>831.0</ele><time>2026-05-03T08:36:21.076Z</time></trkpt><trkpt lat="44.7364423" lon="9.1030385"><ele>829.8333333333334</ele><time>2026-05-03T08:36:23.077Z</time></trkpt><trkpt lat="44.7363553" lon="9.103031"><ele>828.6666666666667</ele><time>2026-05-03T08:36:24.076Z</time></trkpt><trkpt lat="44.7362843" lon="9.1030217"><ele>827.5</ele><time>2026-05-03T08:36:25.076Z</time></trkpt><trkpt lat="44.736209" lon="9.102985"><ele>826.3333333333334</ele><time>2026-05-03T08:36:26.077Z</time></trkpt><trkpt lat="44.7361311" lon="9.1029588"><ele>825.1666666666667</ele><time>2026-05-03T08:36:27.075Z</time></trkpt><trkpt lat="44.7360182" lon="9.1029536"><ele>824.0</ele><time>2026-05-03T08:36:29.076Z</time></trkpt><trkpt lat="44.7359359" lon="9.1029781"><ele>828.0</ele><time>2026-05-03T08:36:31.076Z</time></trkpt><trkpt lat="44.7358396" lon="9.1030003"><ele>832.0</ele><time>2026-05-03T08:36:33.075Z</time></trkpt><trkpt lat="44.7357515" lon="9.1030465"><ele>836.0</ele><time>2026-05-03T08:36:35.077Z</time></trkpt><trkpt lat="44.7356861" lon="9.1031185"><ele>840.0</ele><time>2026-05-03T08:37:09.033Z</time></trkpt><trkpt lat="44.7356307" lon="9.103174"><ele>844.0</ele><time>2026-05-03T08:37:11.076Z</time></trkpt><trkpt lat="44.7355807" lon="9.1033611"><ele>845.9999999999999</ele><time>2026-05-03T08:37:13.076Z</time></trkpt><trkpt lat="44.7355516" lon="9.1034516"><ele>848.0</ele><time>2026-05-03T08:37:15.078Z</time></trkpt><trkpt lat="44.7355002" lon="9.1035116"><ele>850.0</ele><time>2026-05-03T08:37:57.077Z</time></trkpt><trkpt lat="44.7354424" lon="9.1035698"><ele>852.0</ele><time>2026-05-03T08:38:01.077Z</time></trkpt><trkpt lat="44.735392" lon="9.1036515"><ele>853.9999999999999</ele><time>2026-05-03T08:38:05.028Z</time></trkpt><trkpt lat="44.7353182" lon="9.1037442"><ele>856.0</ele><time>2026-05-03T08:38:08.076Z</time></trkpt><trkpt lat="44.7352446" lon="9.1037906"><ele>859.0</ele><time>2026-05-03T08:38:10.076Z</time></trkpt><trkpt lat="44.735171" lon="9.1038216"><ele>861.9999999999999</ele><time>2026-05-03T08:38:12.074Z</time></trkpt><trkpt lat="44.7350979" lon="9.1038731"><ele>864.9999999999999</ele><time>2026-05-03T08:38:14.077Z</time></trkpt><trkpt lat="44.7350372" lon="9.1039365"><ele>868.0</ele><time>2026-05-03T08:38:16.034Z</time></trkpt><trkpt lat="44.7349745" lon="9.1040392"><ele>871.0</ele><time>2026-05-03T08:38:18.075Z</time></trkpt><trkpt lat="44.7349087" lon="9.1041818"><ele>873.0</ele><time>2026-05-03T08:38:20.076Z</time></trkpt><trkpt lat="44.7348315" lon="9.1042901"><ele>875.0</ele><time>2026-05-03T08:38:22.077Z</time></trkpt><trkpt lat="44.7347211" lon="9.1043769"><ele>877.0</ele><time>2026-05-03T08:38:24.076Z</time></trkpt><trkpt lat="44.7346104" lon="9.1044138"><ele>879.0</ele><time>2026-05-03T08:38:26.075Z</time></trkpt><trkpt lat="44.7344988" lon="9.1044643"><ele>879.0</ele><time>2026-05-03T08:38:28.077Z</time></trkpt><trkpt lat="44.7344421" lon="9.1045089"><ele>879.0</ele><time>2026-05-03T08:38:29.077Z</time></trkpt><trkpt lat="44.7343794" lon="9.1045543"><ele>879.0</ele><time>2026-05-03T08:38:30.077Z</time></trkpt><trkpt lat="44.7343199" lon="9.1045893"><ele>879.0</ele><time>2026-05-03T08:38:31.075Z</time></trkpt><trkpt lat="44.7342493" lon="9.1046139"><ele>879.0</ele><time>2026-05-03T08:38:32.075Z</time></trkpt><trkpt lat="44.7341828" lon="9.1046412"><ele>879.0</ele><time>2026-05-03T08:38:33.076Z</time></trkpt><trkpt lat="44.7340783" lon="9.1046632"><ele>879.0</ele><time>2026-05-03T08:38:35.078Z</time></trkpt><trkpt lat="44.7339746" lon="9.1046601"><ele>880.6666666666666</ele><time>2026-05-03T08:38:37.077Z</time></trkpt><trkpt lat="44.7338859" lon="9.1046821"><ele>882.3333333333333</ele><time>2026-05-03T08:38:39.077Z</time></trkpt><trkpt lat="44.7337667" lon="9.1047056"><ele>884.0</ele><time>2026-05-03T08:38:41.077Z</time></trkpt><trkpt lat="44.7336913" lon="9.1046887"><ele>885.6666666666666</ele><time>2026-05-03T08:38:42.077Z</time></trkpt><trkpt lat="44.7336286" lon="9.1046548"><ele>887.3333333333333</ele><time>2026-05-03T08:38:43.076Z</time></trkpt><trkpt lat="44.7335648" lon="9.1046447"><ele>889.0</ele><time>2026-05-03T08:38:48.076Z</time></trkpt><trkpt lat="44.7335173" lon="9.1047428"><ele>888.9999999999999</ele><time>2026-05-03T08:41:33.076Z</time></trkpt><trkpt lat="44.7334704" lon="9.1048121"><ele>889.0</ele><time>2026-05-03T08:41:35.077Z</time></trkpt><trkpt lat="44.733426" lon="9.1048832"><ele>889.0</ele><time>2026-05-03T08:41:37.075Z</time></trkpt><trkpt lat="44.7333629" lon="9.1049901"><ele>889.0</ele><time>2026-05-03T08:41:39.076Z</time></trkpt><trkpt lat="44.7333185" lon="9.1050966"><ele>888.9999999999999</ele><time>2026-05-03T08:41:41.076Z</time></trkpt><trkpt lat="44.7332926" lon="9.105212"><ele>889.0</ele><time>2026-05-03T08:41:43.076Z</time></trkpt><trkpt lat="44.733267" lon="9.105303"><ele>893.6666666666666</ele><time>2026-05-03T08:41:45.077Z</time></trkpt><trkpt lat="44.7332237" lon="9.1053812"><ele>898.3333333333333</ele><time>2026-05-03T08:41:47.077Z</time></trkpt><trkpt lat="44.7331805" lon="9.1054651"><ele>903.0</ele><time>2026-05-03T08:41:49.077Z</time></trkpt><trkpt lat="44.7331041" lon="9.105562"><ele>907.6666666666667</ele><time>2026-05-03T08:41:51.076Z</time></trkpt><trkpt lat="44.7330327" lon="9.1056494"><ele>912.3333333333334</ele><time>2026-05-03T08:41:53.076Z</time></trkpt><trkpt lat="44.7329793" lon="9.1057576"><ele>917.0</ele><time>2026-05-03T08:41:55.076Z</time></trkpt><trkpt lat="44.7329381" lon="9.1058836"><ele>919.8571428571429</ele><time>2026-05-03T08:41:57.077Z</time></trkpt><trkpt lat="44.7329385" lon="9.1060174"><ele>922.7142857142858</ele><time>2026-05-03T08:41:59.075Z</time></trkpt><trkpt lat="44.7329415" lon="9.1061189"><ele>925.5714285714286</ele><time>2026-05-03T08:42:02.076Z</time></trkpt><trkpt lat="44.7329779" lon="9.1061988"><ele>928.4285714285714</ele><time>2026-05-03T08:42:05.076Z</time></trkpt><trkpt lat="44.7329124" lon="9.1062255"><ele>931.2857142857143</ele><time>2026-05-03T08:42:35.075Z</time></trkpt><trkpt lat="44.7328778" lon="9.1063077"><ele>934.1428571428571</ele><time>2026-05-03T08:42:40.076Z</time></trkpt><trkpt lat="44.7328268" lon="9.106361"><ele>937.0</ele><time>2026-05-03T08:42:51.076Z</time></trkpt><trkpt lat="44.7327491" lon="9.1063882"><ele>937.4000000000001</ele><time>2026-05-03T08:42:54.076Z</time></trkpt><trkpt lat="44.7326604" lon="9.1064155"><ele>937.8000000000001</ele><time>2026-05-03T08:42:56.077Z</time></trkpt><trkpt lat="44.7325837" lon="9.1064388"><ele>938.2</ele><time>2026-05-03T08:42:58.076Z</time></trkpt><trkpt lat="44.7326619" lon="9.1066238"><ele>938.6</ele><time>2026-05-03T08:43:00.075Z</time></trkpt><trkpt lat="44.7325988" lon="9.1065394"><ele>939.0</ele><time>2026-05-03T08:43:02.076Z</time></trkpt><trkpt lat="44.7325312" lon="9.1065473"><ele>943.0</ele><time>2026-05-03T08:44:11.076Z</time></trkpt><trkpt lat="44.7325188" lon="9.1066547"><ele>947.0</ele><time>2026-05-03T08:44:15.076Z</time></trkpt><trkpt lat="44.7325478" lon="9.10674"><ele>951.0</ele><time>2026-05-03T08:44:18.017Z</time></trkpt><trkpt lat="44.7326082" lon="9.1068106"><ele>955.0</ele><time>2026-05-03T08:44:21.097Z</time></trkpt><trkpt lat="44.7326611" lon="9.1068615"><ele>959.0</ele><time>2026-05-03T08:47:31.076Z</time></trkpt><trkpt lat="44.7326259" lon="9.1069497"><ele>963.0</ele><time>2026-05-03T08:47:35.077Z</time></trkpt><trkpt lat="44.7325839" lon="9.1070183"><ele>967.0</ele><time>2026-05-03T08:47:39.076Z</time></trkpt><trkpt lat="44.7325379" lon="9.1071013"><ele>967.0</ele><time>2026-05-03T08:48:26.076Z</time></trkpt><trkpt lat="44.7325141" lon="9.1071841"><ele>967.0</ele><time>2026-05-03T08:48:30.076Z</time></trkpt><trkpt lat="44.732528" lon="9.107278"><ele>967.0</ele><time>2026-05-03T08:49:13.076Z</time></trkpt><trkpt lat="44.7325371" lon="9.1073844"><ele>967.0</ele><time>2026-05-03T08:49:16.077Z</time></trkpt><trkpt lat="44.7325376" lon="9.1074761"><ele>967.0</ele><time>2026-05-03T08:49:18.075Z</time></trkpt><trkpt lat="44.7324974" lon="9.1075689"><ele>967.0</ele><time>2026-05-03T08:49:20.076Z</time></trkpt><trkpt lat="44.7324657" lon="9.1076907"><ele>967.0</ele><time>2026-05-03T08:49:22.075Z</time></trkpt><trkpt lat="44.7324563" lon="9.1077903"><ele>971.4999999999999</ele><time>2026-05-03T08:52:29.076Z</time></trkpt><trkpt lat="44.7324964" lon="9.1078853"><ele>976.0</ele><time>2026-05-03T08:52:31.076Z</time></trkpt><trkpt lat="44.7325503" lon="9.107935"><ele>980.5</ele><time>2026-05-03T08:52:51.077Z</time></trkpt><trkpt lat="44.7325747" lon="9.1080182"><ele>985.0</ele><time>2026-05-03T08:52:53.075Z</time></trkpt><trkpt lat="44.7326308" lon="9.1081354"><ele>989.4999999999999</ele><time>2026-05-03T08:52:55.077Z</time></trkpt><trkpt lat="44.732703" lon="9.1082515"><ele>994.0</ele><time>2026-05-03T08:52:57.076Z</time></trkpt><trkpt lat="44.7327736" lon="9.1083627"><ele>996.0</ele><time>2026-05-03T08:52:59.076Z</time></trkpt><trkpt lat="44.7328346" lon="9.1084825"><ele>998.0000000000001</ele><time>2026-05-03T08:53:01.075Z</time></trkpt><trkpt lat="44.7329068" lon="9.1085869"><ele>1000.0000000000001</ele><time>2026-05-03T08:53:03.076Z</time></trkpt><trkpt lat="44.7329755" lon="9.108669"><ele>1002.0</ele><time>2026-05-03T08:53:05.075Z</time></trkpt><trkpt lat="44.7330124" lon="9.1087746"><ele>1004.0</ele><time>2026-05-03T08:53:07.075Z</time></trkpt><trkpt lat="44.7329939" lon="9.1088955"><ele>1004.0</ele><time>2026-05-03T08:53:09.075Z</time></trkpt><trkpt lat="44.7330056" lon="9.1090098"><ele>1004.0000000000001</ele><time>2026-05-03T08:53:11.076Z</time></trkpt><trkpt lat="44.733099" lon="9.10913"><ele>1004.0000000000001</ele><time>2026-05-03T08:53:13.075Z</time></trkpt><trkpt lat="44.7331567" lon="9.1092456"><ele>1004.0</ele><time>2026-05-03T08:53:15.076Z</time></trkpt><trkpt lat="44.7331773" lon="9.1094185"><ele>1004.0</ele><time>2026-05-03T08:53:17.075Z</time></trkpt><trkpt lat="44.733189" lon="9.1095185"><ele>1006.3333333333334</ele><time>2026-05-03T08:53:18.075Z</time></trkpt><trkpt lat="44.7332093" lon="9.1096104"><ele>1008.6666666666667</ele><time>2026-05-03T08:53:19.077Z</time></trkpt><trkpt lat="44.7332357" lon="9.1097067"><ele>1011.0</ele><time>2026-05-03T08:53:20.077Z</time></trkpt><trkpt lat="44.7332517" lon="9.1098007"><ele>1013.3333333333333</ele><time>2026-05-03T08:53:21.075Z</time></trkpt><trkpt lat="44.7332553" lon="9.1099434"><ele>1015.6666666666666</ele><time>2026-05-03T08:53:23.075Z</time></trkpt><trkpt lat="44.7332566" lon="9.1100604"><ele>1018.0</ele><time>2026-05-03T08:53:25.076Z</time></trkpt><trkpt lat="44.7332355" lon="9.1101967"><ele>1019.9999999999999</ele><time>2026-05-03T08:53:27.075Z</time></trkpt><trkpt lat="44.7332174" lon="9.1103255"><ele>1022.0</ele><time>2026-05-03T08:53:29.075Z</time></trkpt><trkpt lat="44.7331842" lon="9.1104276"><ele>1024.0</ele><time>2026-05-03T08:53:31.075Z</time></trkpt><trkpt lat="44.7331607" lon="9.1105253"><ele>1026.0</ele><time>2026-05-03T08:53:36.059Z</time></trkpt><trkpt lat="44.7331467" lon="9.1106302"><ele>1028.0</ele><time>2026-05-03T08:53:39.858Z</time></trkpt><trkpt lat="44.7331388" lon="9.1107451"><ele>1030.0</ele><time>2026-05-03T08:53:43.076Z</time></trkpt><trkpt lat="44.733189" lon="9.1108377"><ele>1031.857142857143</ele><time>2026-05-03T08:53:45.996Z</time></trkpt><trkpt lat="44.7331946" lon="9.1109345"><ele>1033.7142857142858</ele><time>2026-05-03T08:53:50.002Z</time></trkpt><trkpt lat="44.7332085" lon="9.1110371"><ele>1035.5714285714284</ele><time>2026-05-03T08:53:59.036Z</time></trkpt><trkpt lat="44.7332045" lon="9.1111446"><ele>1037.4285714285716</ele><time>2026-05-03T08:54:02.077Z</time></trkpt><trkpt lat="44.7331466" lon="9.1112198"><ele>1039.2857142857142</ele><time>2026-05-03T08:54:19.076Z</time></trkpt><trkpt lat="44.7331243" lon="9.111313"><ele>1041.142857142857</ele><time>2026-05-03T08:54:22.076Z</time></trkpt><trkpt lat="44.7331437" lon="9.1114209"><ele>1043.0</ele><time>2026-05-03T08:54:42.076Z</time></trkpt><trkpt lat="44.7331471" lon="9.1115169"><ele>1046.0</ele><time>2026-05-03T08:54:45.075Z</time></trkpt><trkpt lat="44.73318" lon="9.1116145"><ele>1049.0</ele><time>2026-05-03T08:54:48.076Z</time></trkpt><trkpt lat="44.7332082" lon="9.1117082"><ele>1052.0</ele><time>2026-05-03T08:54:51.075Z</time></trkpt><trkpt lat="44.7332059" lon="9.111803"><ele>1055.0</ele><time>2026-05-03T08:54:53.076Z</time></trkpt><trkpt lat="44.7332019" lon="9.1118923"><ele>1058.0</ele><time>2026-05-03T08:54:55.075Z</time></trkpt><trkpt lat="44.7331829" lon="9.1120075"><ele>1061.0</ele><time>2026-05-03T08:54:57.076Z</time></trkpt><trkpt lat="44.7331699" lon="9.1121621"><ele>1061.0</ele><time>2026-05-03T08:54:59.076Z</time></trkpt><trkpt lat="44.733158" lon="9.1122509"><ele>1061.0</ele><time>2026-05-03T08:55:01.075Z</time></trkpt><trkpt lat="44.7331188" lon="9.1123636"><ele>1061.0</ele><time>2026-05-03T08:55:25.076Z</time></trkpt><trkpt lat="44.7330533" lon="9.1124526"><ele>1061.0</ele><time>2026-05-03T08:55:27.075Z</time></trkpt><trkpt lat="44.7330307" lon="9.1125561"><ele>1061.0</ele><time>2026-05-03T08:55:29.076Z</time></trkpt><trkpt lat="44.7330807" lon="9.1126855"><ele>1061.0</ele><time>2026-05-03T08:55:31.076Z</time></trkpt><trkpt lat="44.7331174" lon="9.1127951"><ele>1064.1666666666667</ele><time>2026-05-03T08:55:33.077Z</time></trkpt><trkpt lat="44.7331322" lon="9.1128833"><ele>1067.3333333333335</ele><time>2026-05-03T08:55:35.075Z</time></trkpt><trkpt lat="44.7330827" lon="9.1129567"><ele>1070.5</ele><time>2026-05-03T08:55:37.076Z</time></trkpt><trkpt lat="44.7330232" lon="9.1129858"><ele>1073.6666666666667</ele><time>2026-05-03T08:55:38.077Z</time></trkpt><trkpt lat="44.7329259" lon="9.1129974"><ele>1076.8333333333333</ele><time>2026-05-03T08:55:40.078Z</time></trkpt><trkpt lat="44.7328248" lon="9.1129711"><ele>1080.0</ele><time>2026-05-03T08:55:42.076Z</time></trkpt><trkpt lat="44.7327144" lon="9.112891"><ele>1084.0</ele><time>2026-05-03T08:55:44.075Z</time></trkpt><trkpt lat="44.7326697" lon="9.1128281"><ele>1088.0</ele><time>2026-05-03T08:55:45.076Z</time></trkpt><trkpt lat="44.732625" lon="9.1127382"><ele>1092.0</ele><time>2026-05-03T08:55:46.076Z</time></trkpt><trkpt lat="44.7326072" lon="9.1126466"><ele>1096.0</ele><time>2026-05-03T08:55:47.076Z</time></trkpt><trkpt lat="44.7325645" lon="9.1125126"><ele>1100.0</ele><time>2026-05-03T08:55:49.076Z</time></trkpt><trkpt lat="44.732518" lon="9.1124481"><ele>1104.0</ele><time>2026-05-03T08:55:51.075Z</time></trkpt><trkpt lat="44.7324527" lon="9.1124607"><ele>1108.0</ele><time>2026-05-03T08:55:53.076Z</time></trkpt><trkpt lat="44.732394" lon="9.1125536"><ele>1108.0</ele><time>2026-05-03T08:56:11.076Z</time></trkpt><trkpt lat="44.7323429" lon="9.1126256"><ele>1108.0</ele><time>2026-05-03T08:56:13.076Z</time></trkpt><trkpt lat="44.7322587" lon="9.1125916"><ele>1108.0</ele><time>2026-05-03T08:56:15.075Z</time></trkpt><trkpt lat="44.7321707" lon="9.1125704"><ele>1108.0</ele><time>2026-05-03T08:56:17.076Z</time></trkpt><trkpt lat="44.7321005" lon="9.1125827"><ele>1108.0</ele><time>2026-05-03T08:56:19.075Z</time></trkpt><trkpt lat="44.7320379" lon="9.1126329"><ele>1108.0</ele><time>2026-05-03T08:56:21.076Z</time></trkpt><trkpt lat="44.7319959" lon="9.1127243"><ele>1108.0</ele><time>2026-05-03T08:56:23.076Z</time></trkpt><trkpt lat="44.7320098" lon="9.1128396"><ele>1108.0</ele><time>2026-05-03T08:56:25.076Z</time></trkpt><trkpt lat="44.7320625" lon="9.1129058"><ele>1108.0</ele><time>2026-05-03T09:02:03.075Z</time></trkpt><trkpt lat="44.7321066" lon="9.1129976"><ele>1108.0</ele><time>2026-05-03T09:02:45.075Z</time></trkpt><trkpt lat="44.7321442" lon="9.1130701"><ele>1108.0</ele><time>2026-05-03T09:02:48.075Z</time></trkpt><trkpt lat="44.7321435" lon="9.1131708"><ele>1108.0</ele><time>2026-05-03T09:02:54.076Z</time></trkpt><trkpt lat="44.7321094" lon="9.1132776"><ele>1110.3333333333333</ele><time>2026-05-03T09:02:56.075Z</time></trkpt><trkpt lat="44.7320453" lon="9.1133535"><ele>1112.6666666666665</ele><time>2026-05-03T09:02:58.075Z</time></trkpt><trkpt lat="44.7319759" lon="9.1134379"><ele>1115.0</ele><time>2026-05-03T09:03:00.075Z</time></trkpt><trkpt lat="44.7319232" lon="9.1135489"><ele>1117.3333333333333</ele><time>2026-05-03T09:03:02.075Z</time></trkpt><trkpt lat="44.7318959" lon="9.1136769"><ele>1119.6666666666667</ele><time>2026-05-03T09:03:05.075Z</time></trkpt><trkpt lat="44.7318851" lon="9.1137703"><ele>1122.0</ele><time>2026-05-03T09:03:07.076Z</time></trkpt><trkpt lat="44.7318713" lon="9.1138784"><ele>1124.0</ele><time>2026-05-03T09:03:09.076Z</time></trkpt><trkpt lat="44.731879" lon="9.1139945"><ele>1126.0</ele><time>2026-05-03T09:03:11.076Z</time></trkpt><trkpt lat="44.7318618" lon="9.1141169"><ele>1128.0</ele><time>2026-05-03T09:03:13.076Z</time></trkpt><trkpt lat="44.7318391" lon="9.1142095"><ele>1130.0</ele><time>2026-05-03T09:03:15.076Z</time></trkpt><trkpt lat="44.7318005" lon="9.1142884"><ele>1132.0</ele><time>2026-05-03T09:03:17.076Z</time></trkpt><trkpt lat="44.7317479" lon="9.1143738"><ele>1134.0</ele><time>2026-05-03T09:03:20.075Z</time></trkpt><trkpt lat="44.7317056" lon="9.1144636"><ele>1137.0</ele><time>2026-05-03T09:03:23.076Z</time></trkpt><trkpt lat="44.7316892" lon="9.1145636"><ele>1140.0</ele><time>2026-05-03T09:03:25.986Z</time></trkpt><trkpt lat="44.7316521" lon="9.1146851"><ele>1143.0</ele><time>2026-05-03T09:03:29.076Z</time></trkpt><trkpt lat="44.7316086" lon="9.1147833"><ele>1146.0</ele><time>2026-05-03T09:03:31.977Z</time></trkpt><trkpt lat="44.7315585" lon="9.1148986"><ele>1149.0</ele><time>2026-05-03T09:03:34.977Z</time></trkpt><trkpt lat="44.7315212" lon="9.1150245"><ele>1152.0</ele><time>2026-05-03T09:03:37.075Z</time></trkpt><trkpt lat="44.7314626" lon="9.1151361"><ele>1155.2</ele><time>2026-05-03T09:03:39.075Z</time></trkpt><trkpt lat="44.7313993" lon="9.1152457"><ele>1158.4</ele><time>2026-05-03T09:03:41.075Z</time></trkpt><trkpt lat="44.7313374" lon="9.1153549"><ele>1161.6</ele><time>2026-05-03T09:03:43.076Z</time></trkpt><trkpt lat="44.7312697" lon="9.1154807"><ele>1164.8</ele><time>2026-05-03T09:03:45.076Z</time></trkpt><trkpt lat="44.731202" lon="9.1155896"><ele>1168.0</ele><time>2026-05-03T09:03:47.076Z</time></trkpt><trkpt lat="44.7311393" lon="9.1157184"><ele>1169.4</ele><time>2026-05-03T09:03:49.076Z</time></trkpt><trkpt lat="44.7310856" lon="9.1158435"><ele>1170.8</ele><time>2026-05-03T09:03:51.075Z</time></trkpt><trkpt lat="44.7310464" lon="9.1159483"><ele>1172.2</ele><time>2026-05-03T09:03:53.076Z</time></trkpt><trkpt lat="44.7309815" lon="9.1160623"><ele>1173.6</ele><time>2026-05-03T09:03:56.076Z</time></trkpt><trkpt lat="44.7309062" lon="9.11609"><ele>1175.0</ele><time>2026-05-03T09:03:58.076Z</time></trkpt><trkpt lat="44.7308283" lon="9.1160224"><ele>1152.0</ele><time>2026-05-03T09:04:00.076Z</time></trkpt><trkpt lat="44.7316086" lon="9.1147833"><ele>1152.0</ele><time>2026-05-03T09:03:31.977Z</time></trkpt><trkpt lat="44.7315585" lon="9.1148986"><ele>1152.0</ele><time>2026-05-03T09:03:34.977Z</time></trkpt><trkpt lat="44.7315212" lon="9.1150245"><ele>1152.0</ele><time>2026-05-03T09:03:37.075Z</time></trkpt><trkpt lat="44.7314626" lon="9.1151361"><ele>1152.0</ele><time>2026-05-03T09:03:39.075Z</time></trkpt><trkpt lat="44.7313993" lon="9.1152457"><ele>1152.0</ele><time>2026-05-03T09:03:41.075Z</time></trkpt><trkpt lat="44.7313374" lon="9.1153549"><ele>1155.2</ele><time>2026-05-03T09:03:43.076Z</time></trkpt><trkpt lat="44.7312697" lon="9.1154807"><ele>1158.4</ele><time>2026-05-03T09:03:45.076Z</time></trkpt><trkpt lat="44.731202" lon="9.1155896"><ele>1161.6</ele><time>2026-05-03T09:03:47.076Z</time></trkpt><trkpt lat="44.7311393" lon="9.1157184"><ele>1164.8</ele><time>2026-05-03T09:03:49.076Z</time></trkpt><trkpt lat="44.7310856" lon="9.1158435"><ele>1168.0</ele><time>2026-05-03T09:03:51.075Z</time></trkpt><trkpt lat="44.7310464" lon="9.1159483"><ele>1172.4</ele><time>2026-05-03T09:03:53.076Z</time></trkpt><trkpt lat="44.7309815" lon="9.1160623"><ele>1176.8</ele><time>2026-05-03T09:03:56.076Z</time></trkpt><trkpt lat="44.7309062" lon="9.11609"><ele>1181.2</ele><time>2026-05-03T09:03:58.076Z</time></trkpt><trkpt lat="44.7308283" lon="9.1160224"><ele>1185.6</ele><time>2026-05-03T09:04:00.076Z</time></trkpt><trkpt lat="44.7308135" lon="9.1159109"><ele>1190.0</ele><time>2026-05-03T09:04:02.076Z</time></trkpt><trkpt lat="44.7307473" lon="9.1158094"><ele>1187.6</ele><time>2026-05-03T09:04:04.076Z</time></trkpt><trkpt lat="44.7306619" lon="9.1157121"><ele>1185.2</ele><time>2026-05-03T09:04:06.075Z</time></trkpt><trkpt lat="44.7306021" lon="9.1156262"><ele>1182.8</ele><time>2026-05-03T09:04:08.076Z</time></trkpt><trkpt lat="44.7305785" lon="9.1155272"><ele>1180.4</ele><time>2026-05-03T09:04:10.076Z</time></trkpt><trkpt lat="44.7305766" lon="9.1153836"><ele>1178.0</ele><time>2026-05-03T09:04:12.076Z</time></trkpt><trkpt lat="44.7305742" lon="9.115239"><ele>1178.0</ele><time>2026-05-03T09:04:14.075Z</time></trkpt><trkpt lat="44.7305916" lon="9.1151176"><ele>1178.0</ele><time>2026-05-03T09:04:16.076Z</time></trkpt><trkpt lat="44.7306172" lon="9.1149886"><ele>1178.0</ele><time>2026-05-03T09:04:19.075Z</time></trkpt><trkpt lat="44.7306444" lon="9.1149077"><ele>1178.0</ele><time>2026-05-03T09:04:28.075Z</time></trkpt><trkpt lat="44.7306925" lon="9.1148503"><ele>1178.0</ele><time>2026-05-03T09:04:33.076Z</time></trkpt><trkpt lat="44.7307461" lon="9.1148028"><ele>1178.0</ele><time>2026-05-03T09:04:37.075Z</time></trkpt><trkpt lat="44.7308012" lon="9.1147222"><ele>1175.5</ele><time>2026-05-03T09:04:41.075Z</time></trkpt><trkpt lat="44.7308151" lon="9.1146121"><ele>1173.0</ele><time>2026-05-03T09:04:47.075Z</time></trkpt><trkpt lat="44.7308028" lon="9.1145136"><ele>1170.5</ele><time>2026-05-03T09:04:49.075Z</time></trkpt><trkpt lat="44.7307897" lon="9.1144135"><ele>1168.0</ele><time>2026-05-03T09:04:51.075Z</time></trkpt><trkpt lat="44.7307723" lon="9.114324"><ele>1165.5</ele><time>2026-05-03T09:04:53.075Z</time></trkpt><trkpt lat="44.7307559" lon="9.1141825"><ele>1163.0</ele><time>2026-05-03T09:04:56.076Z</time></trkpt><trkpt lat="44.730731" lon="9.1140577"><ele>1160.1666666666667</ele><time>2026-05-03T09:04:58.076Z</time></trkpt><trkpt lat="44.7307102" lon="9.1139503"><ele>1157.3333333333335</ele><time>2026-05-03T09:05:00.075Z</time></trkpt><trkpt lat="44.7306911" lon="9.1138308"><ele>1154.5</ele><time>2026-05-03T09:05:02.074Z</time></trkpt><trkpt lat="44.7306862" lon="9.1137423"><ele>1151.6666666666667</ele><time>2026-05-03T09:05:03.076Z</time></trkpt><trkpt lat="44.7306839" lon="9.113639"><ele>1148.8333333333333</ele><time>2026-05-03T09:05:04.074Z</time></trkpt><trkpt lat="44.7306523" lon="9.1134704"><ele>1146.0</ele><time>2026-05-03T09:05:06.074Z</time></trkpt><trkpt lat="44.730614" lon="9.1133805"><ele>1146.0</ele><time>2026-05-03T09:05:07.075Z</time></trkpt><trkpt lat="44.7305794" lon="9.1132462"><ele>1146.0</ele><time>2026-05-03T09:05:09.076Z</time></trkpt><trkpt lat="44.7305431" lon="9.1131497"><ele>1146.0</ele><time>2026-05-03T09:05:10.074Z</time></trkpt><trkpt lat="44.7304958" lon="9.1130779"><ele>1146.0</ele><time>2026-05-03T09:05:11.076Z</time></trkpt><trkpt lat="44.730411" lon="9.1129857"><ele>1146.0</ele><time>2026-05-03T09:05:13.074Z</time></trkpt><trkpt lat="44.7303498" lon="9.1129074"><ele>1146.0</ele><time>2026-05-03T09:05:14.076Z</time></trkpt><trkpt lat="44.7302654" lon="9.1127921"><ele>1146.1666666666667</ele><time>2026-05-03T09:05:16.075Z</time></trkpt><trkpt lat="44.7302067" lon="9.1127428"><ele>1146.3333333333333</ele><time>2026-05-03T09:05:17.075Z</time></trkpt><trkpt lat="44.7301541" lon="9.1126881"><ele>1146.5</ele><time>2026-05-03T09:05:18.076Z</time></trkpt><trkpt lat="44.7300603" lon="9.1125388"><ele>1146.6666666666665</ele><time>2026-05-03T09:05:20.075Z</time></trkpt><trkpt lat="44.7300009" lon="9.1124438"><ele>1146.8333333333333</ele><time>2026-05-03T09:05:21.075Z</time></trkpt><trkpt lat="44.7299562" lon="9.1123737"><ele>1147.0</ele><time>2026-05-03T09:05:22.076Z</time></trkpt><trkpt lat="44.7299065" lon="9.1122983"><ele>1143.6666666666665</ele><time>2026-05-03T09:05:23.075Z</time></trkpt><trkpt lat="44.7297937" lon="9.1122726"><ele>1140.3333333333333</ele><time>2026-05-03T09:05:25.076Z</time></trkpt><trkpt lat="44.729678" lon="9.1122799"><ele>1137.0</ele><time>2026-05-03T09:05:27.076Z</time></trkpt><trkpt lat="44.7296017" lon="9.1123092"><ele>1133.6666666666667</ele><time>2026-05-03T09:05:28.074Z</time></trkpt><trkpt lat="44.7295368" lon="9.112314"><ele>1130.3333333333335</ele><time>2026-05-03T09:05:29.076Z</time></trkpt><trkpt lat="44.7294714" lon="9.1123092"><ele>1127.0</ele><time>2026-05-03T09:05:30.076Z</time></trkpt><trkpt lat="44.7293908" lon="9.1122968"><ele>1127.0</ele><time>2026-05-03T09:05:31.074Z</time></trkpt><trkpt lat="44.7293178" lon="9.1122819"><ele>1127.0</ele><time>2026-05-03T09:05:32.075Z</time></trkpt><trkpt lat="44.72921" lon="9.1122723"><ele>1127.0</ele><time>2026-05-03T09:05:34.075Z</time></trkpt><trkpt lat="44.7291214" lon="9.1122543"><ele>1127.0</ele><time>2026-05-03T09:05:36.076Z</time></trkpt><trkpt lat="44.7290309" lon="9.1122268"><ele>1127.0</ele><time>2026-05-03T09:05:38.075Z</time></trkpt><trkpt lat="44.7289682" lon="9.1121938"><ele>1127.0</ele><time>2026-05-03T09:05:40.076Z</time></trkpt><trkpt lat="44.7288867" lon="9.1121607"><ele>1127.0</ele><time>2026-05-03T09:05:43.075Z</time></trkpt><trkpt lat="44.7289519" lon="9.1121931"><ele>1127.0</ele><time>2026-05-03T09:06:08.075Z</time></trkpt><trkpt lat="44.7290324" lon="9.1122363"><ele>1127.0</ele><time>2026-05-03T09:06:10.076Z</time></trkpt><trkpt lat="44.7291422" lon="9.1122937"><ele>1127.0</ele><time>2026-05-03T09:06:12.075Z</time></trkpt><trkpt lat="44.7292322" lon="9.1123499"><ele>1127.0</ele><time>2026-05-03T09:06:14.076Z</time></trkpt><trkpt lat="44.7293062" lon="9.1124399"><ele>1130.3333333333335</ele><time>2026-05-03T09:06:16.075Z</time></trkpt><trkpt lat="44.7293606" lon="9.1125325"><ele>1133.6666666666667</ele><time>2026-05-03T09:06:18.077Z</time></trkpt><trkpt lat="44.729421" lon="9.1126577"><ele>1137.0</ele><time>2026-05-03T09:06:20.076Z</time></trkpt><trkpt lat="44.7294549" lon="9.1127333"><ele>1140.3333333333333</ele><time>2026-05-03T09:06:21.076Z</time></trkpt><trkpt lat="44.7294827" lon="9.1128586"><ele>1143.6666666666665</ele><time>2026-05-03T09:06:23.075Z</time></trkpt><trkpt lat="44.7295025" lon="9.1129434"><ele>1147.0</ele><time>2026-05-03T09:06:24.076Z</time></trkpt><trkpt lat="44.7294321" lon="9.1130482"><ele>1148.0</ele><time>2026-05-03T09:06:27.076Z</time></trkpt><trkpt lat="44.7293224" lon="9.1130898"><ele>1149.0</ele><time>2026-05-03T09:06:29.076Z</time></trkpt><trkpt lat="44.7292102" lon="9.1130908"><ele>1150.0</ele><time>2026-05-03T09:06:31.075Z</time></trkpt><trkpt lat="44.7291592" lon="9.1131513"><ele>1151.0</ele><time>2026-05-03T09:06:33.076Z</time></trkpt><trkpt lat="44.7291821" lon="9.1132795"><ele>1152.0</ele><time>2026-05-03T09:06:35.075Z</time></trkpt><trkpt lat="44.7292275" lon="9.1134"><ele>1156.2</ele><time>2026-05-03T09:06:37.076Z</time></trkpt><trkpt lat="44.729271" lon="9.1135354"><ele>1160.4</ele><time>2026-05-03T09:06:39.076Z</time></trkpt><trkpt lat="44.7292746" lon="9.1136696"><ele>1164.6</ele><time>2026-05-03T09:06:41.075Z</time></trkpt><trkpt lat="44.7292834" lon="9.1138202"><ele>1168.8</ele><time>2026-05-03T09:06:43.076Z</time></trkpt><trkpt lat="44.7293157" lon="9.1139317"><ele>1173.0</ele><time>2026-05-03T09:06:45.075Z</time></trkpt><trkpt lat="44.7293529" lon="9.1140092"><ele>1176.0</ele><time>2026-05-03T09:06:47.076Z</time></trkpt><trkpt lat="44.7293288" lon="9.1141022"><ele>1179.0</ele><time>2026-05-03T09:06:53.075Z</time></trkpt><trkpt lat="44.7292375" lon="9.1141351"><ele>1182.0</ele><time>2026-05-03T09:06:55.075Z</time></trkpt><trkpt lat="44.7291211" lon="9.1141405"><ele>1185.0</ele><time>2026-05-03T09:06:57.075Z</time></trkpt><trkpt lat="44.7290445" lon="9.1141252"><ele>1188.0</ele><time>2026-05-03T09:06:58.076Z</time></trkpt><trkpt lat="44.7289713" lon="9.1141215"><ele>1191.0</ele><time>2026-05-03T09:06:59.076Z</time></trkpt><trkpt lat="44.7288592" lon="9.1141275"><ele>1191.0</ele><time>2026-05-03T09:07:01.075Z</time></trkpt><trkpt lat="44.7287501" lon="9.1141614"><ele>1191.0</ele><time>2026-05-03T09:07:03.075Z</time></trkpt><trkpt lat="44.7286761" lon="9.1142195"><ele>1191.0</ele><time>2026-05-03T09:07:05.075Z</time></trkpt><trkpt lat="44.7286176" lon="9.1142909"><ele>1191.0</ele><time>2026-05-03T09:07:07.076Z</time></trkpt><trkpt lat="44.7285447" lon="9.1143748"><ele>1191.0</ele><time>2026-05-03T09:07:09.075Z</time></trkpt><trkpt lat="44.7284668" lon="9.1144744"><ele>1191.5</ele><time>2026-05-03T09:07:11.075Z</time></trkpt><trkpt lat="44.7284149" lon="9.1146019"><ele>1192.0</ele><time>2026-05-03T09:07:13.075Z</time></trkpt><trkpt lat="44.7283832" lon="9.1147609"><ele>1192.5</ele><time>2026-05-03T09:07:15.076Z</time></trkpt><trkpt lat="44.7283681" lon="9.1148489"><ele>1193.0</ele><time>2026-05-03T09:07:16.075Z</time></trkpt><trkpt lat="44.7283484" lon="9.114944"><ele>1193.5</ele><time>2026-05-03T09:07:17.076Z</time></trkpt><trkpt lat="44.728323" lon="9.1150449"><ele>1194.0</ele><time>2026-05-03T09:07:18.076Z</time></trkpt><trkpt lat="44.7282939" lon="9.1151429"><ele>1197.4</ele><time>2026-05-03T09:07:19.075Z</time></trkpt><trkpt lat="44.7282672" lon="9.1152328"><ele>1200.8000000000002</ele><time>2026-05-03T09:07:20.076Z</time></trkpt><trkpt lat="44.7282459" lon="9.1153718"><ele>1204.1999999999998</ele><time>2026-05-03T09:07:22.076Z</time></trkpt><trkpt lat="44.7282476" lon="9.1155152"><ele>1207.6</ele><time>2026-05-03T09:07:24.077Z</time></trkpt><trkpt lat="44.72827" lon="9.1156787"><ele>1211.0</ele><time>2026-05-03T09:07:26.076Z</time></trkpt><trkpt lat="44.7282679" lon="9.115823"><ele>1214.8</ele><time>2026-05-03T09:07:28.076Z</time></trkpt><trkpt lat="44.7282514" lon="9.1159863"><ele>1218.6</ele><time>2026-05-03T09:07:30.076Z</time></trkpt><trkpt lat="44.7282306" lon="9.1160782"><ele>1222.4</ele><time>2026-05-03T09:07:31.076Z</time></trkpt><trkpt lat="44.7282126" lon="9.1162292"><ele>1226.2</ele><time>2026-05-03T09:07:33.076Z</time></trkpt><trkpt lat="44.7281702" lon="9.116372"><ele>1230.0</ele><time>2026-05-03T09:07:35.075Z</time></trkpt><trkpt lat="44.7281095" lon="9.1164842"><ele>1233.5</ele><time>2026-05-03T09:07:37.075Z</time></trkpt><trkpt lat="44.7280626" lon="9.1165725"><ele>1237.0</ele><time>2026-05-03T09:07:39.075Z</time></trkpt><trkpt lat="44.7280322" lon="9.1166538"><ele>1240.5</ele><time>2026-05-03T09:07:41.077Z</time></trkpt><trkpt lat="44.7279948" lon="9.1167658"><ele>1244.0</ele><time>2026-05-03T09:09:37.076Z</time></trkpt><trkpt lat="44.7279608" lon="9.1168544"><ele>1247.5</ele><time>2026-05-03T09:09:39.076Z</time></trkpt><trkpt lat="44.727889" lon="9.1169519"><ele>1251.0</ele><time>2026-05-03T09:09:42.075Z</time></trkpt><trkpt lat="44.7278518" lon="9.1170395"><ele>1251.0</ele><time>2026-05-03T09:09:44.076Z</time></trkpt><trkpt lat="44.7278275" lon="9.1171474"><ele>1251.0</ele><time>2026-05-03T09:09:46.075Z</time></trkpt><trkpt lat="44.7278105" lon="9.1172865"><ele>1251.0</ele><time>2026-05-03T09:09:48.075Z</time></trkpt><trkpt lat="44.7277869" lon="9.1174307"><ele>1251.0</ele><time>2026-05-03T09:09:50.075Z</time></trkpt><trkpt lat="44.7277669" lon="9.1175901"><ele>1251.0</ele><time>2026-05-03T09:09:52.075Z</time></trkpt><trkpt lat="44.7277741" lon="9.1177667"><ele>1254.3333333333333</ele><time>2026-05-03T09:09:54.076Z</time></trkpt><trkpt lat="44.7277351" lon="9.1179515"><ele>1257.6666666666667</ele><time>2026-05-03T09:09:56.076Z</time></trkpt><trkpt lat="44.7277337" lon="9.1180488"><ele>1261.0</ele><time>2026-05-03T09:09:57.076Z</time></trkpt><trkpt lat="44.7277776" lon="9.1181187"><ele>1264.3333333333335</ele><time>2026-05-03T09:09:58.075Z</time></trkpt><trkpt lat="44.7278236" lon="9.1181841"><ele>1267.6666666666667</ele><time>2026-05-03T09:09:59.076Z</time></trkpt><trkpt lat="44.7278909" lon="9.1182918"><ele>1271.0</ele><time>2026-05-03T09:10:01.076Z</time></trkpt><trkpt lat="44.7279008" lon="9.1184146"><ele>1274.8</ele><time>2026-05-03T09:10:04.075Z</time></trkpt><trkpt lat="44.7279577" lon="9.1185411"><ele>1278.6</ele><time>2026-05-03T09:10:06.076Z</time></trkpt><trkpt lat="44.7279947" lon="9.1186296"><ele>1282.4</ele><time>2026-05-03T09:10:07.075Z</time></trkpt><trkpt lat="44.7280463" lon="9.1187877"><ele>1286.2</ele><time>2026-05-03T09:10:09.075Z</time></trkpt><trkpt lat="44.72808" lon="9.1188729"><ele>1290.0</ele><time>2026-05-03T09:10:10.075Z</time></trkpt><trkpt lat="44.7281043" lon="9.1190019"><ele>1293.0</ele><time>2026-05-03T09:10:12.076Z</time></trkpt><trkpt lat="44.7280747" lon="9.1191211"><ele>1296.0</ele><time>2026-05-03T09:10:14.076Z</time></trkpt><trkpt lat="44.7280242" lon="9.119239"><ele>1299.0</ele><time>2026-05-03T09:10:16.076Z</time></trkpt><trkpt lat="44.7279931" lon="9.1193346"><ele>1302.0</ele><time>2026-05-03T09:10:18.076Z</time></trkpt><trkpt lat="44.7279551" lon="9.1194777"><ele>1305.0</ele><time>2026-05-03T09:10:20.076Z</time></trkpt><trkpt lat="44.7279123" lon="9.1195566"><ele>1308.0</ele><time>2026-05-03T09:10:22.075Z</time></trkpt><trkpt lat="44.7278788" lon="9.1196763"><ele>1308.0</ele><time>2026-05-03T09:10:24.075Z</time></trkpt><trkpt lat="44.7278705" lon="9.1197829"><ele>1308.0</ele><time>2026-05-03T09:10:25.076Z</time></trkpt><trkpt lat="44.7278492" lon="9.1199467"><ele>1308.0</ele><time>2026-05-03T09:10:27.075Z</time></trkpt><trkpt lat="44.727835" lon="9.1200666"><ele>1308.0</ele><time>2026-05-03T09:10:29.076Z</time></trkpt><trkpt lat="44.7278282" lon="9.1202245"><ele>1308.0</ele><time>2026-05-03T09:11:11.076Z</time></trkpt><trkpt lat="44.7278424" lon="9.1203735"><ele>1309.8333333333333</ele><time>2026-05-03T09:11:13.075Z</time></trkpt><trkpt lat="44.7278447" lon="9.1204784"><ele>1311.6666666666667</ele><time>2026-05-03T09:11:16.076Z</time></trkpt><trkpt lat="44.727786" lon="9.1205169"><ele>1313.5</ele><time>2026-05-03T09:11:20.076Z</time></trkpt><trkpt lat="44.7276892" lon="9.1205299"><ele>1315.3333333333335</ele><time>2026-05-03T09:11:23.075Z</time></trkpt><trkpt lat="44.7276177" lon="9.1204976"><ele>1317.1666666666667</ele><time>2026-05-03T09:11:25.076Z</time></trkpt><trkpt lat="44.7275397" lon="9.1204925"><ele>1319.0</ele><time>2026-05-03T09:11:27.076Z</time></trkpt><trkpt lat="44.7274672" lon="9.1205323"><ele>1319.0</ele><time>2026-05-03T09:11:29.075Z</time></trkpt><trkpt lat="44.727417" lon="9.1205873"><ele>1319.0</ele><time>2026-05-03T09:11:31.077Z</time></trkpt><trkpt lat="44.7273542" lon="9.1206708"><ele>1319.0</ele><time>2026-05-03T09:11:34.077Z</time></trkpt><trkpt lat="44.7272893" lon="9.1207033"><ele>1319.0</ele><time>2026-05-03T09:11:37.075Z</time></trkpt><trkpt lat="44.7272273" lon="9.1206739"><ele>1319.0</ele><time>2026-05-03T09:11:40.075Z</time></trkpt><trkpt lat="44.7271725" lon="9.1206104"><ele>1319.0</ele><time>2026-05-03T09:11:43.075Z</time></trkpt><trkpt lat="44.7271117" lon="9.1204915"><ele>1319.0</ele><time>2026-05-03T09:11:45.075Z</time></trkpt><trkpt lat="44.7270676" lon="9.1203655"><ele>1319.0</ele><time>2026-05-03T09:11:47.075Z</time></trkpt><trkpt lat="44.7270349" lon="9.1202728"><ele>1319.0</ele><time>2026-05-03T09:11:49.074Z</time></trkpt><trkpt lat="44.7269859" lon="9.1201875"><ele>1319.0</ele><time>2026-05-03T09:11:51.076Z</time></trkpt><trkpt lat="44.7269252" lon="9.1201163"><ele>1319.0</ele><time>2026-05-03T09:11:53.076Z</time></trkpt><trkpt lat="44.7268729" lon="9.1200616"><ele>1319.0</ele><time>2026-05-03T09:11:55.075Z</time></trkpt><trkpt lat="44.7268313" lon="9.1199889"><ele>1319.8333333333335</ele><time>2026-05-03T09:12:59.076Z</time></trkpt><trkpt lat="44.7267766" lon="9.1199374"><ele>1320.6666666666667</ele><time>2026-05-03T09:13:10.076Z</time></trkpt><trkpt lat="44.7267227" lon="9.1198842"><ele>1321.5</ele><time>2026-05-03T09:13:12.076Z</time></trkpt><trkpt lat="44.7266787" lon="9.1198093"><ele>1322.3333333333333</ele><time>2026-05-03T09:13:15.076Z</time></trkpt><trkpt lat="44.7265958" lon="9.119763"><ele>1323.1666666666665</ele><time>2026-05-03T09:13:39.076Z</time></trkpt><trkpt lat="44.7265107" lon="9.1197314"><ele>1324.0</ele><time>2026-05-03T09:13:41.075Z</time></trkpt><trkpt lat="44.7264115" lon="9.1196731"><ele>1322.3333333333333</ele><time>2026-05-03T09:13:43.075Z</time></trkpt><trkpt lat="44.7263285" lon="9.1196381"><ele>1320.6666666666665</ele><time>2026-05-03T09:13:45.074Z</time></trkpt><trkpt lat="44.7262572" lon="9.1196554"><ele>1319.0</ele><time>2026-05-03T09:13:48.075Z</time></trkpt><trkpt lat="44.7261892" lon="9.1196366"><ele>1317.3333333333333</ele><time>2026-05-03T09:13:50.075Z</time></trkpt><trkpt lat="44.7261231" lon="9.1195954"><ele>1315.6666666666667</ele><time>2026-05-03T09:13:52.076Z</time></trkpt><trkpt lat="44.7260157" lon="9.1195166"><ele>1314.0</ele><time>2026-05-03T09:13:54.076Z</time></trkpt><trkpt lat="44.7259548" lon="9.1194816"><ele>1314.0</ele><time>2026-05-03T09:13:56.075Z</time></trkpt><trkpt lat="44.725863" lon="9.1194402"><ele>1314.0</ele><time>2026-05-03T09:13:58.077Z</time></trkpt><trkpt lat="44.7257756" lon="9.1193834"><ele>1314.0</ele><time>2026-05-03T09:14:00.075Z</time></trkpt><trkpt lat="44.7256926" lon="9.1193556"><ele>1314.0</ele><time>2026-05-03T09:14:02.075Z</time></trkpt><trkpt lat="44.7256059" lon="9.1193167"><ele>1314.0</ele><time>2026-05-03T09:14:04.076Z</time></trkpt><trkpt lat="44.7255104" lon="9.1193077"><ele>1314.0</ele><time>2026-05-03T09:14:06.076Z</time></trkpt><trkpt lat="44.7254482" lon="9.1192859"><ele>1314.0</ele><time>2026-05-03T09:14:07.075Z</time></trkpt><trkpt lat="44.7253688" lon="9.1192357"><ele>1314.0</ele><time>2026-05-03T09:14:09.075Z</time></trkpt><trkpt lat="44.7253012" lon="9.1191677"><ele>1314.0</ele><time>2026-05-03T09:14:11.075Z</time></trkpt><trkpt lat="44.7252313" lon="9.1191161"><ele>1314.0</ele><time>2026-05-03T09:14:15.076Z</time></trkpt><trkpt lat="44.7251766" lon="9.1190638"><ele>1314.0</ele><time>2026-05-03T09:14:17.076Z</time></trkpt><trkpt lat="44.7251207" lon="9.1189964"><ele>1312.4285714285713</ele><time>2026-05-03T09:14:19.077Z</time></trkpt><trkpt lat="44.7250701" lon="9.1189248"><ele>1310.857142857143</ele><time>2026-05-03T09:14:21.076Z</time></trkpt><trkpt lat="44.7250307" lon="9.1188508"><ele>1309.2857142857142</ele><time>2026-05-03T09:14:23.075Z</time></trkpt><trkpt lat="44.7249791" lon="9.1187645"><ele>1307.7142857142858</ele><time>2026-05-03T09:14:26.075Z</time></trkpt><trkpt lat="44.7249316" lon="9.118701"><ele>1306.142857142857</ele><time>2026-05-03T09:14:28.076Z</time></trkpt><trkpt lat="44.7248859" lon="9.1186236"><ele>1304.5714285714287</ele><time>2026-05-03T09:14:30.075Z</time></trkpt><trkpt lat="44.7248221" lon="9.1185506"><ele>1303.0</ele><time>2026-05-03T09:14:32.076Z</time></trkpt><trkpt lat="44.7247489" lon="9.1184687"><ele>1303.0</ele><time>2026-05-03T09:14:34.076Z</time></trkpt><trkpt lat="44.724689" lon="9.1184272"><ele>1303.0</ele><time>2026-05-03T09:14:35.075Z</time></trkpt><trkpt lat="44.7245976" lon="9.118322"><ele>1303.0</ele><time>2026-05-03T09:14:37.076Z</time></trkpt><trkpt lat="44.724545" lon="9.118259"><ele>1303.0</ele><time>2026-05-03T09:14:38.075Z</time></trkpt><trkpt lat="44.7244888" lon="9.1181951"><ele>1303.0</ele><time>2026-05-03T09:14:39.075Z</time></trkpt><trkpt lat="44.7243975" lon="9.1181363"><ele>1303.0</ele><time>2026-05-03T09:14:41.076Z</time></trkpt><trkpt lat="44.7243278" lon="9.1180719"><ele>1300.2</ele><time>2026-05-03T09:14:43.076Z</time></trkpt><trkpt lat="44.7242436" lon="9.1180121"><ele>1297.4</ele><time>2026-05-03T09:14:45.075Z</time></trkpt><trkpt lat="44.7241531" lon="9.1179214"><ele>1294.6000000000001</ele><time>2026-05-03T09:14:47.077Z</time></trkpt><trkpt lat="44.7240891" lon="9.1178181"><ele>1291.8000000000002</ele><time>2026-05-03T09:14:49.077Z</time></trkpt><trkpt lat="44.724038" lon="9.1177396"><ele>1289.0</ele><time>2026-05-03T09:14:51.076Z</time></trkpt><trkpt lat="44.7239827" lon="9.1176519"><ele>1289.0</ele><time>2026-05-03T09:14:53.076Z</time></trkpt><trkpt lat="44.7239201" lon="9.1175698"><ele>1289.0</ele><time>2026-05-03T09:14:55.076Z</time></trkpt><trkpt lat="44.7238635" lon="9.1175"><ele>1289.0</ele><time>2026-05-03T09:14:57.076Z</time></trkpt><trkpt lat="44.7238138" lon="9.1174406"><ele>1289.0</ele><time>2026-05-03T09:14:59.076Z</time></trkpt><trkpt lat="44.7237467" lon="9.1173752"><ele>1289.0</ele><time>2026-05-03T09:15:02.076Z</time></trkpt><trkpt lat="44.7237011" lon="9.1172971"><ele>1289.0</ele><time>2026-05-03T09:15:04.075Z</time></trkpt><trkpt lat="44.7236485" lon="9.1172007"><ele>1289.0</ele><time>2026-05-03T09:15:06.076Z</time></trkpt><trkpt lat="44.7235854" lon="9.117103"><ele>1289.0</ele><time>2026-05-03T09:15:08.076Z</time></trkpt><trkpt lat="44.7235154" lon="9.1170822"><ele>1289.0</ele><time>2026-05-03T09:15:10.075Z</time></trkpt><trkpt lat="44.7234841" lon="9.1172038"><ele>1289.0</ele><time>2026-05-03T09:15:22.075Z</time></trkpt><trkpt lat="44.7235246" lon="9.1173164"><ele>1289.0</ele><time>2026-05-03T09:15:24.076Z</time></trkpt><trkpt lat="44.7235656" lon="9.1174135"><ele>1289.0</ele><time>2026-05-03T09:15:26.075Z</time></trkpt><trkpt lat="44.7236071" lon="9.1175185"><ele>1289.0</ele><time>2026-05-03T09:15:28.075Z</time></trkpt><trkpt lat="44.7236536" lon="9.1176085"><ele>1289.0</ele><time>2026-05-03T09:15:30.076Z</time></trkpt><trkpt lat="44.7236993" lon="9.1177142"><ele>1289.0</ele><time>2026-05-03T09:15:32.076Z</time></trkpt><trkpt lat="44.7237354" lon="9.1177913"><ele>1289.0</ele><time>2026-05-03T09:15:33.075Z</time></trkpt><trkpt lat="44.7237701" lon="9.1178732"><ele>1289.0</ele><time>2026-05-03T09:15:34.076Z</time></trkpt><trkpt lat="44.7238084" lon="9.1179917"><ele>1289.0</ele><time>2026-05-03T09:15:36.076Z</time></trkpt><trkpt lat="44.723845" lon="9.1181272"><ele>1291.8333333333335</ele><time>2026-05-03T09:15:38.076Z</time></trkpt><trkpt lat="44.7238959" lon="9.1182409"><ele>1294.6666666666667</ele><time>2026-05-03T09:15:40.076Z</time></trkpt><trkpt lat="44.7239596" lon="9.1183366"><ele>1297.5</ele><time>2026-05-03T09:15:42.076Z</time></trkpt><trkpt lat="44.7240042" lon="9.1184616"><ele>1300.3333333333333</ele><time>2026-05-03T09:15:44.076Z</time></trkpt><trkpt lat="44.7240227" lon="9.1185471"><ele>1303.1666666666665</ele><time>2026-05-03T09:15:45.076Z</time></trkpt><trkpt lat="44.7240612" lon="9.1186665"><ele>1306.0</ele><time>2026-05-03T09:15:47.077Z</time></trkpt><trkpt lat="44.7241334" lon="9.1187714"><ele>1306.0</ele><time>2026-05-03T09:15:49.077Z</time></trkpt><trkpt lat="44.7242221" lon="9.1188869"><ele>1306.0</ele><time>2026-05-03T09:15:51.075Z</time></trkpt><trkpt lat="44.7242696" lon="9.1190039"><ele>1306.0</ele><time>2026-05-03T09:15:53.076Z</time></trkpt><trkpt lat="44.7242939" lon="9.1191308"><ele>1306.0</ele><time>2026-05-03T09:15:55.075Z</time></trkpt><trkpt lat="44.7243457" lon="9.1192586"><ele>1306.0</ele><time>2026-05-03T09:15:57.076Z</time></trkpt><trkpt lat="44.7244139" lon="9.1193987"><ele>1309.6</ele><time>2026-05-03T09:15:59.075Z</time></trkpt><trkpt lat="44.7244503" lon="9.1194711"><ele>1313.1999999999998</ele><time>2026-05-03T09:16:00.075Z</time></trkpt><trkpt lat="44.7244838" lon="9.1196128"><ele>1316.8000000000002</ele><time>2026-05-03T09:16:02.075Z</time></trkpt><trkpt lat="44.7245107" lon="9.119739"><ele>1320.4</ele><time>2026-05-03T09:16:05.075Z</time></trkpt><trkpt lat="44.7245868" lon="9.1198666"><ele>1324.0</ele><time>2026-05-03T09:16:07.076Z</time></trkpt><trkpt lat="44.724624" lon="9.1199507"><ele>1327.0</ele><time>2026-05-03T09:16:08.077Z</time></trkpt><trkpt lat="44.7246486" lon="9.1200382"><ele>1330.0</ele><time>2026-05-03T09:16:09.076Z</time></trkpt><trkpt lat="44.7246707" lon="9.1201379"><ele>1333.0</ele><time>2026-05-03T09:16:10.075Z</time></trkpt><trkpt lat="44.7247261" lon="9.1202861"><ele>1336.0</ele><time>2026-05-03T09:16:12.075Z</time></trkpt><trkpt lat="44.7247517" lon="9.120369"><ele>1339.0</ele><time>2026-05-03T09:16:13.076Z</time></trkpt><trkpt lat="44.7247793" lon="9.1204675"><ele>1342.0</ele><time>2026-05-03T09:16:14.075Z</time></trkpt><trkpt lat="44.7248055" lon="9.1205547"><ele>1342.0</ele><time>2026-05-03T09:16:15.075Z</time></trkpt><trkpt lat="44.7248632" lon="9.1207025"><ele>1342.0</ele><time>2026-05-03T09:16:17.076Z</time></trkpt><trkpt lat="44.7249015" lon="9.1208295"><ele>1342.0</ele><time>2026-05-03T09:16:19.076Z</time></trkpt><trkpt lat="44.7249412" lon="9.1210112"><ele>1342.0</ele><time>2026-05-03T09:16:21.075Z</time></trkpt><trkpt lat="44.7249429" lon="9.1211071"><ele>1342.0</ele><time>2026-05-03T09:16:22.076Z</time></trkpt><trkpt lat="44.7249562" lon="9.1212888"><ele>1345.3999999999999</ele><time>2026-05-03T09:16:24.077Z</time></trkpt><trkpt lat="44.7249744" lon="9.1214514"><ele>1348.8</ele><time>2026-05-03T09:16:26.076Z</time></trkpt><trkpt lat="44.7250068" lon="9.1215866"><ele>1352.2</ele><time>2026-05-03T09:16:28.076Z</time></trkpt><trkpt lat="44.7250463" lon="9.1217235"><ele>1355.6</ele><time>2026-05-03T09:16:30.075Z</time></trkpt><trkpt lat="44.7250813" lon="9.1218609"><ele>1359.0</ele><time>2026-05-03T09:16:32.077Z</time></trkpt><trkpt lat="44.7250952" lon="9.1219996"><ele>1361.1666666666667</ele><time>2026-05-03T09:16:34.076Z</time></trkpt><trkpt lat="44.725109" lon="9.1221231"><ele>1363.3333333333333</ele><time>2026-05-03T09:16:36.078Z</time></trkpt><trkpt lat="44.7251205" lon="9.1222449"><ele>1365.5</ele><time>2026-05-03T09:16:38.078Z</time></trkpt><trkpt lat="44.7251339" lon="9.1223713"><ele>1367.6666666666665</ele><time>2026-05-03T09:16:40.076Z</time></trkpt><trkpt lat="44.7251569" lon="9.1224541"><ele>1369.8333333333333</ele><time>2026-05-03T09:16:42.048Z</time></trkpt><trkpt lat="44.7252143" lon="9.1225588"><ele>1372.0</ele><time>2026-05-03T09:16:44.076Z</time></trkpt><trkpt lat="44.7252983" lon="9.1226769"><ele>1372.6</ele><time>2026-05-03T09:16:46.075Z</time></trkpt><trkpt lat="44.7253458" lon="9.1228275"><ele>1373.1999999999998</ele><time>2026-05-03T09:16:48.075Z</time></trkpt><trkpt lat="44.725372" lon="9.1229343"><ele>1373.8</ele><time>2026-05-03T09:16:50.077Z</time></trkpt><trkpt lat="44.7254238" lon="9.1230347"><ele>1374.4</ele><time>2026-05-03T09:16:52.076Z</time></trkpt><trkpt lat="44.725464" lon="9.1231557"><ele>1375.0</ele><time>2026-05-03T09:16:54.076Z</time></trkpt><trkpt lat="44.7254729" lon="9.1233036"><ele>1378.4</ele><time>2026-05-03T09:16:56.076Z</time></trkpt><trkpt lat="44.7254859" lon="9.1234592"><ele>1381.8</ele><time>2026-05-03T09:16:58.076Z</time></trkpt><trkpt lat="44.7255121" lon="9.1236072"><ele>1385.1999999999998</ele><time>2026-05-03T09:17:00.076Z</time></trkpt><trkpt lat="44.7255442" lon="9.1237429"><ele>1388.6</ele><time>2026-05-03T09:17:02.076Z</time></trkpt><trkpt lat="44.7255599" lon="9.123862"><ele>1392.0</ele><time>2026-05-03T09:17:04.076Z</time></trkpt><trkpt lat="44.7255891" lon="9.1239979"><ele>1394.8</ele><time>2026-05-03T09:17:06.077Z</time></trkpt><trkpt lat="44.7256142" lon="9.1241466"><ele>1397.6</ele><time>2026-05-03T09:17:08.076Z</time></trkpt><trkpt lat="44.725626" lon="9.1242947"><ele>1400.3999999999999</ele><time>2026-05-03T09:17:10.075Z</time></trkpt><trkpt lat="44.7256314" lon="9.1244215"><ele>1403.1999999999998</ele><time>2026-05-03T09:17:12.076Z</time></trkpt><trkpt lat="44.7256576" lon="9.1245258"><ele>1406.0</ele><time>2026-05-03T09:17:14.075Z</time></trkpt><trkpt lat="44.7256885" lon="9.1246371"><ele>1406.0</ele><time>2026-05-03T09:17:16.076Z</time></trkpt><trkpt lat="44.7257271" lon="9.1247228"><ele>1406.0</ele><time>2026-05-03T09:17:18.075Z</time></trkpt><trkpt lat="44.7257739" lon="9.124809"><ele>1406.0</ele><time>2026-05-03T09:17:21.077Z</time></trkpt><trkpt lat="44.7258166" lon="9.1248842"><ele>1406.0</ele><time>2026-05-03T09:17:26.075Z</time></trkpt><trkpt lat="44.7258821" lon="9.1249481"><ele>1406.0</ele><time>2026-05-03T09:17:44.077Z</time></trkpt><trkpt lat="44.7259317" lon="9.1250333"><ele>1406.0</ele><time>2026-05-03T09:17:47.076Z</time></trkpt><trkpt lat="44.7260065" lon="9.1250723"><ele>1409.2857142857142</ele><time>2026-05-03T09:17:50.076Z</time></trkpt><trkpt lat="44.7260748" lon="9.1250159"><ele>1412.5714285714287</ele><time>2026-05-03T09:17:53.094Z</time></trkpt><trkpt lat="44.7261514" lon="9.1249982"><ele>1415.857142857143</ele><time>2026-05-03T09:18:04.076Z</time></trkpt><trkpt lat="44.7261906" lon="9.125072"><ele>1419.142857142857</ele><time>2026-05-03T09:18:06.075Z</time></trkpt><trkpt lat="44.7262242" lon="9.1251634"><ele>1422.4285714285713</ele><time>2026-05-03T09:18:07.076Z</time></trkpt><trkpt lat="44.7262842" lon="9.1252217"><ele>1425.7142857142858</ele><time>2026-05-03T09:18:09.076Z</time></trkpt><trkpt lat="44.7263403" lon="9.1253016"><ele>1429.0</ele><time>2026-05-03T09:18:11.076Z</time></trkpt><trkpt lat="44.7263823" lon="9.1253852"><ele>1429.0</ele><time>2026-05-03T09:18:13.075Z</time></trkpt><trkpt lat="44.7264426" lon="9.12552"><ele>1429.0</ele><time>2026-05-03T09:18:15.077Z</time></trkpt><trkpt lat="44.7265014" lon="9.1256552"><ele>1429.0</ele><time>2026-05-03T09:18:17.075Z</time></trkpt><trkpt lat="44.7265365" lon="9.1257518"><ele>1429.0</ele><time>2026-05-03T09:18:19.075Z</time></trkpt><trkpt lat="44.7265675" lon="9.1258766"><ele>1429.0</ele><time>2026-05-03T09:18:21.076Z</time></trkpt><trkpt lat="44.7265875" lon="9.1260003"><ele>1431.4</ele><time>2026-05-03T09:18:23.076Z</time></trkpt><trkpt lat="44.7265884" lon="9.1261223"><ele>1433.8000000000002</ele><time>2026-05-03T09:18:25.075Z</time></trkpt><trkpt lat="44.7265772" lon="9.1262494"><ele>1436.1999999999998</ele><time>2026-05-03T09:18:27.075Z</time></trkpt><trkpt lat="44.7265408" lon="9.1263785"><ele>1438.6</ele><time>2026-05-03T09:18:29.077Z</time></trkpt><trkpt lat="44.7265364" lon="9.1265079"><ele>1441.0</ele><time>2026-05-03T09:18:31.076Z</time></trkpt><trkpt lat="44.7265579" lon="9.1266392"><ele>1444.1999999999998</ele><time>2026-05-03T09:18:33.076Z</time></trkpt><trkpt lat="44.7266007" lon="9.1267836"><ele>1447.3999999999999</ele><time>2026-05-03T09:18:35.075Z</time></trkpt><trkpt lat="44.7266513" lon="9.1269259"><ele>1450.6</ele><time>2026-05-03T09:18:37.076Z</time></trkpt><trkpt lat="44.7266886" lon="9.1270517"><ele>1453.8</ele><time>2026-05-03T09:18:39.076Z</time></trkpt><trkpt lat="44.7267314" lon="9.1271904"><ele>1457.0</ele><time>2026-05-03T09:18:41.076Z</time></trkpt><trkpt lat="44.7267564" lon="9.1272722"><ele>1457.0</ele><time>2026-05-03T09:18:42.076Z</time></trkpt><trkpt lat="44.7267805" lon="9.1273658"><ele>1457.0</ele><time>2026-05-03T09:18:43.076Z</time></trkpt><trkpt lat="44.7267913" lon="9.1274618"><ele>1457.0</ele><time>2026-05-03T09:18:44.076Z</time></trkpt><trkpt lat="44.7268072" lon="9.1275852"><ele>1457.0</ele><time>2026-05-03T09:18:45.076Z</time></trkpt><trkpt lat="44.7268288" lon="9.1277224"><ele>1457.0</ele><time>2026-05-03T09:18:46.076Z</time></trkpt><trkpt lat="44.7268439" lon="9.1278302"><ele>1457.0</ele><time>2026-05-03T09:18:47.077Z</time></trkpt><trkpt lat="44.7268681" lon="9.1279365"><ele>1456.5</ele><time>2026-05-03T09:18:48.076Z</time></trkpt><trkpt lat="44.7269024" lon="9.1280461"><ele>1456.0</ele><time>2026-05-03T09:18:49.075Z</time></trkpt><trkpt lat="44.726934" lon="9.1281439"><ele>1455.5</ele><time>2026-05-03T09:18:50.076Z</time></trkpt><trkpt lat="44.7269643" lon="9.1282316"><ele>1455.0</ele><time>2026-05-03T09:18:51.075Z</time></trkpt><trkpt lat="44.7270153" lon="9.1283715"><ele>1454.5</ele><time>2026-05-03T09:18:53.075Z</time></trkpt><trkpt lat="44.7270483" lon="9.1285134"><ele>1454.0</ele><time>2026-05-03T09:18:55.076Z</time></trkpt><trkpt lat="44.7270694" lon="9.1286055"><ele>1453.857142857143</ele><time>2026-05-03T09:18:57.075Z</time></trkpt><trkpt lat="44.7271006" lon="9.1285236"><ele>1453.7142857142858</ele><time>2026-05-03T09:37:10.074Z</time></trkpt><trkpt lat="44.7270365" lon="9.1285334"><ele>1453.5714285714287</ele><time>2026-05-03T09:37:13.075Z</time></trkpt><trkpt lat="44.7270054" lon="9.1286204"><ele>1453.4285714285716</ele><time>2026-05-03T09:37:39.074Z</time></trkpt><trkpt lat="44.7269868" lon="9.1287348"><ele>1453.2857142857142</ele><time>2026-05-03T09:37:42.075Z</time></trkpt><trkpt lat="44.7270369" lon="9.1287994"><ele>1453.1428571428573</ele><time>2026-05-03T09:37:44.075Z</time></trkpt><trkpt lat="44.7270897" lon="9.1288508"><ele>1453.0</ele><time>2026-05-03T09:37:46.075Z</time></trkpt><trkpt lat="44.7271561" lon="9.1289206"><ele>1453.0000000000002</ele><time>2026-05-03T09:37:49.075Z</time></trkpt><trkpt lat="44.7272078" lon="9.1289759"><ele>1453.0</ele><time>2026-05-03T09:37:51.074Z</time></trkpt><trkpt lat="44.7272678" lon="9.1290485"><ele>1453.0</ele><time>2026-05-03T09:37:54.075Z</time></trkpt><trkpt lat="44.7273362" lon="9.1291123"><ele>1453.0</ele><time>2026-05-03T09:37:57.074Z</time></trkpt><trkpt lat="44.7273931" lon="9.1291558"><ele>1453.0</ele><time>2026-05-03T09:37:59.075Z</time></trkpt><trkpt lat="44.7274744" lon="9.1292157"><ele>1453.0000000000002</ele><time>2026-05-03T09:38:02.074Z</time></trkpt><trkpt lat="44.7275315" lon="9.1292533"><ele>1453.0</ele><time>2026-05-03T09:38:04.075Z</time></trkpt><trkpt lat="44.7275876" lon="9.1292978"><ele>1453.6000000000001</ele><time>2026-05-03T09:38:06.075Z</time></trkpt><trkpt lat="44.7276722" lon="9.1293715"><ele>1454.2</ele><time>2026-05-03T09:38:09.074Z</time></trkpt><trkpt lat="44.7277587" lon="9.1294429"><ele>1454.8</ele><time>2026-05-03T09:38:11.074Z</time></trkpt><trkpt lat="44.7278487" lon="9.1295203"><ele>1455.4</ele><time>2026-05-03T09:38:13.075Z</time></trkpt><trkpt lat="44.7279317" lon="9.1295976"><ele>1456.0</ele><time>2026-05-03T09:38:15.075Z</time></trkpt><trkpt lat="44.7280178" lon="9.1296877"><ele>1453.4</ele><time>2026-05-03T09:38:17.075Z</time></trkpt><trkpt lat="44.7280953" lon="9.1297946"><ele>1450.8</ele><time>2026-05-03T09:38:19.075Z</time></trkpt><trkpt lat="44.7281869" lon="9.1299152"><ele>1448.2</ele><time>2026-05-03T09:38:21.074Z</time></trkpt><trkpt lat="44.7282345" lon="9.1299828"><ele>1445.6000000000001</ele><time>2026-05-03T09:38:22.075Z</time></trkpt><trkpt lat="44.7283175" lon="9.1301237"><ele>1443.0</ele><time>2026-05-03T09:38:24.075Z</time></trkpt><trkpt lat="44.7283568" lon="9.1301933"><ele>1443.0</ele><time>2026-05-03T09:38:25.075Z</time></trkpt><trkpt lat="44.7284343" lon="9.1303154"><ele>1443.0</ele><time>2026-05-03T09:38:27.075Z</time></trkpt><trkpt lat="44.7285134" lon="9.1304113"><ele>1443.0</ele><time>2026-05-03T09:38:29.075Z</time></trkpt><trkpt lat="44.7285909" lon="9.1304954"><ele>1443.0</ele><time>2026-05-03T09:38:31.074Z</time></trkpt><trkpt lat="44.7286543" lon="9.1305689"><ele>1443.0</ele><time>2026-05-03T09:38:33.075Z</time></trkpt><trkpt lat="44.7287411" lon="9.1306544"><ele>1441.0</ele><time>2026-05-03T09:38:35.074Z</time></trkpt><trkpt lat="44.728791" lon="9.1307097"><ele>1439.0</ele><time>2026-05-03T09:38:36.075Z</time></trkpt><trkpt lat="44.7288799" lon="9.130812"><ele>1437.0</ele><time>2026-05-03T09:38:38.075Z</time></trkpt><trkpt lat="44.7289599" lon="9.1309188"><ele>1435.0</ele><time>2026-05-03T09:38:40.073Z</time></trkpt><trkpt lat="44.7290188" lon="9.1310102"><ele>1433.0</ele><time>2026-05-03T09:38:42.073Z</time></trkpt><trkpt lat="44.7290686" lon="9.1310984"><ele>1433.0</ele><time>2026-05-03T09:38:44.074Z</time></trkpt><trkpt lat="44.7291091" lon="9.1311933"><ele>1433.0</ele><time>2026-05-03T09:38:46.074Z</time></trkpt><trkpt lat="44.7291565" lon="9.1313109"><ele>1433.0</ele><time>2026-05-03T09:38:48.074Z</time></trkpt><trkpt lat="44.7291926" lon="9.1313927"><ele>1433.0</ele><time>2026-05-03T09:38:50.074Z</time></trkpt><trkpt lat="44.7292352" lon="9.1314682"><ele>1433.0</ele><time>2026-05-03T09:38:52.075Z</time></trkpt><trkpt lat="44.7293022" lon="9.1315226"><ele>1433.0</ele><time>2026-05-03T09:38:55.073Z</time></trkpt><trkpt lat="44.7293587" lon="9.1315669"><ele>1430.3333333333335</ele><time>2026-05-03T09:39:02.074Z</time></trkpt><trkpt lat="44.729405" lon="9.1316312"><ele>1427.6666666666667</ele><time>2026-05-03T09:39:12.075Z</time></trkpt><trkpt lat="44.7294711" lon="9.1316361"><ele>1425.0</ele><time>2026-05-03T09:39:18.075Z</time></trkpt><trkpt lat="44.7295278" lon="9.131686"><ele>1422.3333333333333</ele><time>2026-05-03T09:39:26.074Z</time></trkpt><trkpt lat="44.729602" lon="9.1317524"><ele>1419.6666666666665</ele><time>2026-05-03T09:39:33.073Z</time></trkpt><trkpt lat="44.7296571" lon="9.1318265"><ele>1417.0</ele><time>2026-05-03T09:39:35.073Z</time></trkpt><trkpt lat="44.7297345" lon="9.1319272"><ele>1417.0</ele><time>2026-05-03T09:39:37.074Z</time></trkpt><trkpt lat="44.7297585" lon="9.1320136"><ele>1417.0</ele><time>2026-05-03T09:39:39.073Z</time></trkpt><trkpt lat="44.7297869" lon="9.1320932"><ele>1417.0</ele><time>2026-05-03T09:39:42.075Z</time></trkpt><trkpt lat="44.7294711" lon="9.1316361"><ele>1417.0</ele><time>2026-05-03T09:39:18.075Z</time></trkpt><trkpt lat="44.7295278" lon="9.131686"><ele>1417.0</ele><time>2026-05-03T09:39:26.074Z</time></trkpt><trkpt lat="44.729602" lon="9.1317524"><ele>1417.0</ele><time>2026-05-03T09:39:33.073Z</time></trkpt><trkpt lat="44.7296571" lon="9.1318265"><ele>1417.0</ele><time>2026-05-03T09:39:35.073Z</time></trkpt><trkpt lat="44.7297345" lon="9.1319272"><ele>1417.0</ele><time>2026-05-03T09:39:37.074Z</time></trkpt><trkpt lat="44.7297585" lon="9.1320136"><ele>1417.0</ele><time>2026-05-03T09:39:39.073Z</time></trkpt><trkpt lat="44.7297869" lon="9.1320932"><ele>1417.0</ele><time>2026-05-03T09:39:42.075Z</time></trkpt><trkpt lat="44.7298819" lon="9.1321497"><ele>1417.0</ele><time>2026-05-03T09:39:48.073Z</time></trkpt><trkpt lat="44.7299581" lon="9.1321994"><ele>1417.0</ele><time>2026-05-03T09:39:50.073Z</time></trkpt><trkpt lat="44.7300177" lon="9.1322366"><ele>1417.0</ele><time>2026-05-03T09:39:52.074Z</time></trkpt><trkpt lat="44.7300673" lon="9.1323109"><ele>1417.0</ele><time>2026-05-03T09:39:54.075Z</time></trkpt><trkpt lat="44.7301327" lon="9.1323757"><ele>1417.0</ele><time>2026-05-03T09:39:56.074Z</time></trkpt><trkpt lat="44.730206" lon="9.1324442"><ele>1411.75</ele><time>2026-05-03T09:39:58.075Z</time></trkpt><trkpt lat="44.7302876" lon="9.132523"><ele>1406.5</ele><time>2026-05-03T09:40:00.074Z</time></trkpt><trkpt lat="44.7303895" lon="9.1326132"><ele>1401.25</ele><time>2026-05-03T09:40:02.073Z</time></trkpt><trkpt lat="44.7304824" lon="9.1326923"><ele>1396.0</ele><time>2026-05-03T09:40:04.073Z</time></trkpt><trkpt lat="44.7305681" lon="9.132822"><ele>1396.0</ele><time>2026-05-03T09:40:06.073Z</time></trkpt><trkpt lat="44.7306523" lon="9.1329447"><ele>1396.0</ele><time>2026-05-03T09:40:08.074Z</time></trkpt><trkpt lat="44.7307533" lon="9.1330498"><ele>1396.0</ele><time>2026-05-03T09:40:10.073Z</time></trkpt><trkpt lat="44.7308016" lon="9.1331178"><ele>1396.0</ele><time>2026-05-03T09:40:11.074Z</time></trkpt><trkpt lat="44.7308712" lon="9.1332604"><ele>1396.0</ele><time>2026-05-03T09:40:13.075Z</time></trkpt><trkpt lat="44.7309179" lon="9.1333459"><ele>1396.0</ele><time>2026-05-03T09:40:14.075Z</time></trkpt><trkpt lat="44.7309567" lon="9.1334298"><ele>1396.0</ele><time>2026-05-03T09:40:15.073Z</time></trkpt><trkpt lat="44.7310489" lon="9.1335384"><ele>1396.0</ele><time>2026-05-03T09:40:17.073Z</time></trkpt><trkpt lat="44.7311338" lon="9.1336515"><ele>1396.0</ele><time>2026-05-03T09:40:19.073Z</time></trkpt><trkpt lat="44.7312011" lon="9.1337216"><ele>1396.0</ele><time>2026-05-03T09:40:21.074Z</time></trkpt><trkpt lat="44.7313041" lon="9.1338141"><ele>1394.8</ele><time>2026-05-03T09:40:23.073Z</time></trkpt><trkpt lat="44.7314143" lon="9.1338995"><ele>1393.6</ele><time>2026-05-03T09:40:25.073Z</time></trkpt><trkpt lat="44.7314969" lon="9.1339815"><ele>1392.4</ele><time>2026-05-03T09:40:27.074Z</time></trkpt><trkpt lat="44.731609" lon="9.1340462"><ele>1391.2</ele><time>2026-05-03T09:40:29.074Z</time></trkpt><trkpt lat="44.7316726" lon="9.1340884"><ele>1390.0</ele><time>2026-05-03T09:40:30.074Z</time></trkpt><trkpt lat="44.7317761" lon="9.1341542"><ele>1389.4</ele><time>2026-05-03T09:40:32.075Z</time></trkpt><trkpt lat="44.7318798" lon="9.1342294"><ele>1388.8</ele><time>2026-05-03T09:40:34.073Z</time></trkpt><trkpt lat="44.7319973" lon="9.1343154"><ele>1388.1999999999998</ele><time>2026-05-03T09:40:36.073Z</time></trkpt><trkpt lat="44.7320578" lon="9.1343718"><ele>1387.6</ele><time>2026-05-03T09:40:37.074Z</time></trkpt><trkpt lat="44.73212" lon="9.134407"><ele>1387.0</ele><time>2026-05-03T09:40:38.073Z</time></trkpt><trkpt lat="44.7321961" lon="9.1344385"><ele>1385.0</ele><time>2026-05-03T09:40:39.073Z</time></trkpt><trkpt lat="44.732258" lon="9.1344829"><ele>1383.0</ele><time>2026-05-03T09:40:40.074Z</time></trkpt><trkpt lat="44.7323709" lon="9.1345477"><ele>1381.0</ele><time>2026-05-03T09:40:42.073Z</time></trkpt><trkpt lat="44.7324388" lon="9.1345895"><ele>1379.0</ele><time>2026-05-03T09:40:43.074Z</time></trkpt><trkpt lat="44.7325296" lon="9.1346664"><ele>1377.0</ele><time>2026-05-03T09:40:45.074Z</time></trkpt><trkpt lat="44.7326265" lon="9.1347449"><ele>1377.0</ele><time>2026-05-03T09:40:47.074Z</time></trkpt><trkpt lat="44.732687" lon="9.1347699"><ele>1377.0</ele><time>2026-05-03T09:40:48.073Z</time></trkpt><trkpt lat="44.7327617" lon="9.1348309"><ele>1377.0</ele><time>2026-05-03T09:40:50.074Z</time></trkpt><trkpt lat="44.7328097" lon="9.1348911"><ele>1377.0</ele><time>2026-05-03T09:40:52.073Z</time></trkpt><trkpt lat="44.7328544" lon="9.1350133"><ele>1377.0</ele><time>2026-05-03T09:40:55.073Z</time></trkpt><trkpt lat="44.7329131" lon="9.1350661"><ele>1377.0</ele><time>2026-05-03T09:40:57.074Z</time></trkpt><trkpt lat="44.7329834" lon="9.1350875"><ele>1373.75</ele><time>2026-05-03T09:40:59.075Z</time></trkpt><trkpt lat="44.7330956" lon="9.1351327"><ele>1370.5</ele><time>2026-05-03T09:41:01.073Z</time></trkpt><trkpt lat="44.7331857" lon="9.1352327"><ele>1367.25</ele><time>2026-05-03T09:41:03.073Z</time></trkpt><trkpt lat="44.7332577" lon="9.1353379"><ele>1364.0</ele><time>2026-05-03T09:41:05.073Z</time></trkpt><trkpt lat="44.7333651" lon="9.1354422"><ele>1364.0</ele><time>2026-05-03T09:41:07.073Z</time></trkpt><trkpt lat="44.7334559" lon="9.1355078"><ele>1364.0</ele><time>2026-05-03T09:41:09.075Z</time></trkpt><trkpt lat="44.7335464" lon="9.1355589"><ele>1364.0</ele><time>2026-05-03T09:41:11.073Z</time></trkpt><trkpt lat="44.7336269" lon="9.1355906"><ele>1364.0</ele><time>2026-05-03T09:41:13.074Z</time></trkpt><trkpt lat="44.7337305" lon="9.1356281"><ele>1364.0</ele><time>2026-05-03T09:41:15.074Z</time></trkpt><trkpt lat="44.7338106" lon="9.1356792"><ele>1360.3333333333335</ele><time>2026-05-03T09:41:17.074Z</time></trkpt><trkpt lat="44.7338768" lon="9.1356748"><ele>1356.6666666666667</ele><time>2026-05-03T09:41:19.073Z</time></trkpt><trkpt lat="44.7339591" lon="9.1356224"><ele>1353.0</ele><time>2026-05-03T09:41:21.073Z</time></trkpt><trkpt lat="44.7340632" lon="9.1355757"><ele>1349.3333333333333</ele><time>2026-05-03T09:41:23.075Z</time></trkpt><trkpt lat="44.7341529" lon="9.1355131"><ele>1345.6666666666665</ele><time>2026-05-03T09:41:25.073Z</time></trkpt><trkpt lat="44.7342114" lon="9.1354695"><ele>1342.0</ele><time>2026-05-03T09:41:27.073Z</time></trkpt><trkpt lat="44.7342671" lon="9.135408"><ele>1342.0</ele><time>2026-05-03T09:41:29.074Z</time></trkpt><trkpt lat="44.7343099" lon="9.1353241"><ele>1342.0</ele><time>2026-05-03T09:41:31.074Z</time></trkpt><trkpt lat="44.7343523" lon="9.135234"><ele>1342.0</ele><time>2026-05-03T09:41:33.073Z</time></trkpt><trkpt lat="44.7343818" lon="9.1351332"><ele>1342.0</ele><time>2026-05-03T09:41:35.073Z</time></trkpt><trkpt lat="44.7344281" lon="9.1350458"><ele>1342.0</ele><time>2026-05-03T09:41:37.073Z</time></trkpt><trkpt lat="44.7344838" lon="9.1349797"><ele>1342.0</ele><time>2026-05-03T09:41:39.074Z</time></trkpt><trkpt lat="44.7345519" lon="9.1349265"><ele>1338.1999999999998</ele><time>2026-05-03T09:41:42.073Z</time></trkpt><trkpt lat="44.7346223" lon="9.1349656"><ele>1334.4</ele><time>2026-05-03T09:41:45.074Z</time></trkpt><trkpt lat="44.7347042" lon="9.1349942"><ele>1330.6</ele><time>2026-05-03T09:41:47.074Z</time></trkpt><trkpt lat="44.7348002" lon="9.135028"><ele>1326.8000000000002</ele><time>2026-05-03T09:41:49.073Z</time></trkpt><trkpt lat="44.7348935" lon="9.1350818"><ele>1323.0</ele><time>2026-05-03T09:41:51.073Z</time></trkpt><trkpt lat="44.7350027" lon="9.1351479"><ele>1323.0</ele><time>2026-05-03T09:41:53.074Z</time></trkpt><trkpt lat="44.7350954" lon="9.1352325"><ele>1323.0</ele><time>2026-05-03T09:41:55.074Z</time></trkpt><trkpt lat="44.7351815" lon="9.1353199"><ele>1323.0</ele><time>2026-05-03T09:41:57.073Z</time></trkpt><trkpt lat="44.7352911" lon="9.1353842"><ele>1323.0</ele><time>2026-05-03T09:41:59.074Z</time></trkpt><trkpt lat="44.7354164" lon="9.1354315"><ele>1319.0</ele><time>2026-05-03T09:42:01.073Z</time></trkpt><trkpt lat="44.7355415" lon="9.1354532"><ele>1315.0</ele><time>2026-05-03T09:42:03.074Z</time></trkpt><trkpt lat="44.7356426" lon="9.1354976"><ele>1311.0</ele><time>2026-05-03T09:42:05.074Z</time></trkpt><trkpt lat="44.7357264" lon="9.135528"><ele>1307.0</ele><time>2026-05-03T09:42:07.073Z</time></trkpt><trkpt lat="44.7358" lon="9.1355494"><ele>1303.0</ele><time>2026-05-03T09:42:09.074Z</time></trkpt><trkpt lat="44.735897" lon="9.1355237"><ele>1303.0</ele><time>2026-05-03T09:42:11.074Z</time></trkpt><trkpt lat="44.7359604" lon="9.1355295"><ele>1303.0</ele><time>2026-05-03T09:42:12.074Z</time></trkpt><trkpt lat="44.7360607" lon="9.1355377"><ele>1303.0</ele><time>2026-05-03T09:42:14.074Z</time></trkpt><trkpt lat="44.736124" lon="9.135554"><ele>1303.0</ele><time>2026-05-03T09:42:16.074Z</time></trkpt><trkpt lat="44.7361921" lon="9.1355301"><ele>1303.0</ele><time>2026-05-03T09:42:38.074Z</time></trkpt><trkpt lat="44.7362585" lon="9.1355417"><ele>1303.0</ele><time>2026-05-03T09:42:41.073Z</time></trkpt><trkpt lat="44.7363491" lon="9.1355998"><ele>1301.8333333333333</ele><time>2026-05-03T09:42:43.074Z</time></trkpt><trkpt lat="44.7363988" lon="9.1356606"><ele>1300.6666666666665</ele><time>2026-05-03T09:42:44.074Z</time></trkpt><trkpt lat="44.7364542" lon="9.135721"><ele>1299.5</ele><time>2026-05-03T09:42:45.073Z</time></trkpt><trkpt lat="44.7365193" lon="9.1357587"><ele>1298.3333333333333</ele><time>2026-05-03T09:42:46.074Z</time></trkpt><trkpt lat="44.7365808" lon="9.1358348"><ele>1297.1666666666667</ele><time>2026-05-03T09:42:48.073Z</time></trkpt><trkpt lat="44.7366424" lon="9.1358768"><ele>1296.0</ele><time>2026-05-03T09:42:49.074Z</time></trkpt><trkpt lat="44.7367485" lon="9.1359774"><ele>1296.0</ele><time>2026-05-03T09:42:51.073Z</time></trkpt><trkpt lat="44.7368208" lon="9.136111"><ele>1296.0</ele><time>2026-05-03T09:42:53.073Z</time></trkpt><trkpt lat="44.7368889" lon="9.1362032"><ele>1296.0</ele><time>2026-05-03T09:42:55.074Z</time></trkpt><trkpt lat="44.7369867" lon="9.1362639"><ele>1296.0</ele><time>2026-05-03T09:42:57.074Z</time></trkpt><trkpt lat="44.7370732" lon="9.1363402"><ele>1296.0</ele><time>2026-05-03T09:42:59.074Z</time></trkpt><trkpt lat="44.7371715" lon="9.1364329"><ele>1293.4</ele><time>2026-05-03T09:43:01.073Z</time></trkpt><trkpt lat="44.7372493" lon="9.1365105"><ele>1290.8</ele><time>2026-05-03T09:43:03.074Z</time></trkpt><trkpt lat="44.7373406" lon="9.1365362"><ele>1288.2</ele><time>2026-05-03T09:43:05.074Z</time></trkpt><trkpt lat="44.737455" lon="9.1365854"><ele>1285.6000000000001</ele><time>2026-05-03T09:43:07.073Z</time></trkpt><trkpt lat="44.7375487" lon="9.1366703"><ele>1283.0</ele><time>2026-05-03T09:43:09.073Z</time></trkpt><trkpt lat="44.7376044" lon="9.1367249"><ele>1283.0</ele><time>2026-05-03T09:43:10.073Z</time></trkpt><trkpt lat="44.7376551" lon="9.1368839"><ele>1283.0</ele><time>2026-05-03T09:43:12.074Z</time></trkpt><trkpt lat="44.7377128" lon="9.1369929"><ele>1283.0</ele><time>2026-05-03T09:43:14.075Z</time></trkpt><trkpt lat="44.7378128" lon="9.1370819"><ele>1283.0</ele><time>2026-05-03T09:43:16.074Z</time></trkpt><trkpt lat="44.7378834" lon="9.1371416"><ele>1283.0</ele><time>2026-05-03T09:43:17.074Z</time></trkpt><trkpt lat="44.7379661" lon="9.1371855"><ele>1279.6666666666667</ele><time>2026-05-03T09:43:18.073Z</time></trkpt><trkpt lat="44.7380416" lon="9.1372257"><ele>1276.3333333333335</ele><time>2026-05-03T09:43:19.074Z</time></trkpt><trkpt lat="44.7381029" lon="9.1372563"><ele>1273.0</ele><time>2026-05-03T09:43:20.073Z</time></trkpt><trkpt lat="44.7381829" lon="9.1373354"><ele>1269.6666666666667</ele><time>2026-05-03T09:43:22.073Z</time></trkpt><trkpt lat="44.738281" lon="9.1373787"><ele>1266.3333333333333</ele><time>2026-05-03T09:43:24.073Z</time></trkpt><trkpt lat="44.7383817" lon="9.1373772"><ele>1263.0</ele><time>2026-05-03T09:43:26.074Z</time></trkpt><trkpt lat="44.738502" lon="9.1374075"><ele>1260.0</ele><time>2026-05-03T09:43:28.074Z</time></trkpt><trkpt lat="44.738568" lon="9.1374238"><ele>1257.0</ele><time>2026-05-03T09:43:29.074Z</time></trkpt><trkpt lat="44.7386317" lon="9.1374498"><ele>1254.0</ele><time>2026-05-03T09:43:30.073Z</time></trkpt><trkpt lat="44.7387234" lon="9.1374411"><ele>1251.0</ele><time>2026-05-03T09:43:32.074Z</time></trkpt><trkpt lat="44.7388011" lon="9.1373723"><ele>1248.0</ele><time>2026-05-03T09:43:35.073Z</time></trkpt><trkpt lat="44.7388527" lon="9.1373167"><ele>1245.0</ele><time>2026-05-03T09:43:37.075Z</time></trkpt><trkpt lat="44.7275688" lon="9.147971"><ele>1208.2</ele><time>2026-05-03T09:51:18.073Z</time></trkpt><trkpt lat="44.7275245" lon="9.1481118"><ele>1171.4</ele><time>2026-05-03T09:51:20.072Z</time></trkpt><trkpt lat="44.727371" lon="9.1481526"><ele>1134.6</ele><time>2026-05-03T09:51:24.072Z</time></trkpt><trkpt lat="44.7273106" lon="9.1481181"><ele>1097.8</ele><time>2026-05-03T09:51:25.072Z</time></trkpt><trkpt lat="44.7272402" lon="9.148075"><ele>1061.0</ele><time>2026-05-03T09:51:26.073Z</time></trkpt><trkpt lat="44.7271603" lon="9.1480468"><ele>1061.0</ele><time>2026-05-03T09:51:27.073Z</time></trkpt><trkpt lat="44.7270526" lon="9.1479933"><ele>1061.0</ele><time>2026-05-03T09:51:29.073Z</time></trkpt><trkpt lat="44.7269478" lon="9.1479354"><ele>1061.0</ele><time>2026-05-03T09:51:31.073Z</time></trkpt><trkpt lat="44.7268602" lon="9.1478835"><ele>1061.0</ele><time>2026-05-03T09:51:33.073Z</time></trkpt><trkpt lat="44.7267865" lon="9.1478881"><ele>1061.0</ele><time>2026-05-03T09:51:35.072Z</time></trkpt><trkpt lat="44.7267134" lon="9.1478903"><ele>1059.0</ele><time>2026-05-03T09:51:38.073Z</time></trkpt><trkpt lat="44.7266339" lon="9.1478422"><ele>1057.0</ele><time>2026-05-03T09:51:46.073Z</time></trkpt><trkpt lat="44.7264597" lon="9.1479002"><ele>1055.0</ele><time>2026-05-03T09:51:49.073Z</time></trkpt><trkpt lat="44.7263985" lon="9.1479753"><ele>1053.0</ele><time>2026-05-03T09:51:50.073Z</time></trkpt><trkpt lat="44.7263375" lon="9.1480544"><ele>1051.0</ele><time>2026-05-03T09:51:51.073Z</time></trkpt><trkpt lat="44.7262543" lon="9.1481025"><ele>1051.0</ele><time>2026-05-03T09:51:52.073Z</time></trkpt><trkpt lat="44.726174" lon="9.1481105"><ele>1051.0</ele><time>2026-05-03T09:51:53.074Z</time></trkpt><trkpt lat="44.7260874" lon="9.1480729"><ele>1051.0</ele><time>2026-05-03T09:51:54.072Z</time></trkpt><trkpt lat="44.7259968" lon="9.1480098"><ele>1051.0</ele><time>2026-05-03T09:51:55.073Z</time></trkpt><trkpt lat="44.7258998" lon="9.1479301"><ele>1051.0</ele><time>2026-05-03T09:51:56.073Z</time></trkpt><trkpt lat="44.7258187" lon="9.1478585"><ele>1051.6666666666665</ele><time>2026-05-03T09:51:57.072Z</time></trkpt><trkpt lat="44.725754" lon="9.1478032"><ele>1052.3333333333333</ele><time>2026-05-03T09:51:58.073Z</time></trkpt><trkpt lat="44.7256917" lon="9.1477687"><ele>1053.0</ele><time>2026-05-03T09:51:59.073Z</time></trkpt><trkpt lat="44.7255952" lon="9.1478285"><ele>1053.6666666666667</ele><time>2026-05-03T09:52:01.072Z</time></trkpt><trkpt lat="44.7255871" lon="9.1479611"><ele>1054.3333333333335</ele><time>2026-05-03T09:52:02.074Z</time></trkpt><trkpt lat="44.7255736" lon="9.148104"><ele>1055.0</ele><time>2026-05-03T09:52:03.073Z</time></trkpt><trkpt lat="44.7255602" lon="9.1482389"><ele>1051.75</ele><time>2026-05-03T09:52:04.073Z</time></trkpt><trkpt lat="44.7255275" lon="9.1483992"><ele>1048.5</ele><time>2026-05-03T09:52:05.073Z</time></trkpt><trkpt lat="44.7254766" lon="9.1485526"><ele>1045.25</ele><time>2026-05-03T09:52:06.073Z</time></trkpt><trkpt lat="44.7254041" lon="9.1486903"><ele>1042.0</ele><time>2026-05-03T09:52:07.073Z</time></trkpt><trkpt lat="44.7252347" lon="9.1489307"><ele>1044.6666666666665</ele><time>2026-05-03T09:52:09.073Z</time></trkpt><trkpt lat="44.7251587" lon="9.1490383"><ele>1047.3333333333333</ele><time>2026-05-03T09:52:10.073Z</time></trkpt><trkpt lat="44.7251003" lon="9.1491352"><ele>1050.0</ele><time>2026-05-03T09:52:11.073Z</time></trkpt><trkpt lat="44.7250463" lon="9.1492241"><ele>1052.6666666666667</ele><time>2026-05-03T09:52:12.073Z</time></trkpt><trkpt lat="44.725004" lon="9.1493149"><ele>1055.3333333333335</ele><time>2026-05-03T09:52:13.073Z</time></trkpt><trkpt lat="44.7249716" lon="9.1494202"><ele>1058.0</ele><time>2026-05-03T09:52:14.073Z</time></trkpt><trkpt lat="44.7249466" lon="9.1495417"><ele>1058.0</ele><time>2026-05-03T09:52:15.072Z</time></trkpt><trkpt lat="44.7249329" lon="9.1496684"><ele>1058.0</ele><time>2026-05-03T09:52:16.073Z</time></trkpt><trkpt lat="44.724897" lon="9.1497677"><ele>1058.0</ele><time>2026-05-03T09:52:17.073Z</time></trkpt><trkpt lat="44.7248657" lon="9.1498477"><ele>1058.0</ele><time>2026-05-03T09:52:18.074Z</time></trkpt><trkpt lat="44.7247886" lon="9.1498745"><ele>1058.0</ele><time>2026-05-03T09:52:19.073Z</time></trkpt><trkpt lat="44.7247219" lon="9.1498911"><ele>1058.0</ele><time>2026-05-03T09:52:20.073Z</time></trkpt><trkpt lat="44.7246536" lon="9.1499138"><ele>1057.0</ele><time>2026-05-03T09:52:21.072Z</time></trkpt><trkpt lat="44.7245847" lon="9.1499712"><ele>1056.0</ele><time>2026-05-03T09:52:22.073Z</time></trkpt><trkpt lat="44.7245309" lon="9.1500812"><ele>1055.0</ele><time>2026-05-03T09:52:23.072Z</time></trkpt><trkpt lat="44.7244866" lon="9.1501823"><ele>1054.0</ele><time>2026-05-03T09:52:24.072Z</time></trkpt><trkpt lat="44.7244436" lon="9.1502567"><ele>1053.0</ele><time>2026-05-03T09:52:25.074Z</time></trkpt><trkpt lat="44.724375" lon="9.1503236"><ele>1052.0</ele><time>2026-05-03T09:52:26.072Z</time></trkpt><trkpt lat="44.7243034" lon="9.1503694"><ele>1058.25</ele><time>2026-05-03T09:52:27.073Z</time></trkpt><trkpt lat="44.7242173" lon="9.1504237"><ele>1064.5</ele><time>2026-05-03T09:52:28.072Z</time></trkpt><trkpt lat="44.7240303" lon="9.1505671"><ele>1070.75</ele><time>2026-05-03T09:52:30.073Z</time></trkpt><trkpt lat="44.7239296" lon="9.1506388"><ele>1077.0</ele><time>2026-05-03T09:52:31.073Z</time></trkpt><trkpt lat="44.7238223" lon="9.1506912"><ele>1078.8</ele><time>2026-05-03T09:52:32.073Z</time></trkpt><trkpt lat="44.7237304" lon="9.1507339"><ele>1080.6</ele><time>2026-05-03T09:52:33.074Z</time></trkpt><trkpt lat="44.7236681" lon="9.1507746"><ele>1082.3999999999999</ele><time>2026-05-03T09:52:34.072Z</time></trkpt><trkpt lat="44.723552" lon="9.1508387"><ele>1084.2</ele><time>2026-05-03T09:52:36.073Z</time></trkpt><trkpt lat="44.7234484" lon="9.1507642"><ele>1086.0</ele><time>2026-05-03T09:52:38.072Z</time></trkpt><trkpt lat="44.7233822" lon="9.1506324"><ele>1086.2</ele><time>2026-05-03T09:52:40.072Z</time></trkpt><trkpt lat="44.7233787" lon="9.1504727"><ele>1086.3999999999999</ele><time>2026-05-03T09:52:42.073Z</time></trkpt><trkpt lat="44.7233953" lon="9.1503461"><ele>1086.6</ele><time>2026-05-03T09:52:44.073Z</time></trkpt><trkpt lat="44.7234208" lon="9.1502046"><ele>1086.8</ele><time>2026-05-03T09:52:46.073Z</time></trkpt><trkpt lat="44.7234501" lon="9.1500789"><ele>1087.0</ele><time>2026-05-03T09:52:48.072Z</time></trkpt><trkpt lat="44.7234534" lon="9.1499515"><ele>1087.0</ele><time>2026-05-03T09:52:50.073Z</time></trkpt></trkseg></trk></gpx>